<?xml version='1.0' encoding='UTF-8'?>
<gpx version="1.1" creator="https://www.komoot.de" xmlns="http://www.topografix.com/GPX/1/1" xmlns:xsi="http://www.w3.org/2001/XMLSchema-instance" xsi:schemaLocation="http://www.topografix.com/GPX/1/1 http://www.topografix.com/GPX/1/1/gpx.xsd">
  <metadata>
    <name>Randonnée Medio 2026 (4/5/26)</name>
    <author>
      <link href="https://www.komoot.de">
        <text>komoot</text>
        <type>text/html</type>
      </link>
    </author>
  </metadata>
  <trk>
    <name>Randonnée Medio 2026 (4/5/26)</name>
    <trkseg>
      <trkpt lat="43.655823" lon="10.630496">
        <ele>14.859471</ele>
        <time>2026-05-05T16:27:19.083Z</time>
      </trkpt>
      <trkpt lat="43.655783" lon="10.630798">
        <ele>14.859471</ele>
        <time>2026-05-05T16:27:23.807Z</time>
      </trkpt>
      <trkpt lat="43.655747" lon="10.631021">
        <ele>14.859471</ele>
        <time>2026-05-05T16:27:27.260Z</time>
      </trkpt>
      <trkpt lat="43.655659" lon="10.631488">
        <ele>14.859471</ele>
        <time>2026-05-05T16:27:34.437Z</time>
      </trkpt>
      <trkpt lat="43.655590" lon="10.631469">
        <ele>14.859471</ele>
        <time>2026-05-05T16:27:35.877Z</time>
      </trkpt>
      <trkpt lat="43.655438" lon="10.631528">
        <ele>14.803625</ele>
        <time>2026-05-05T16:27:39.098Z</time>
      </trkpt>
      <trkpt lat="43.655125" lon="10.631413">
        <ele>14.527480</ele>
        <time>2026-05-05T16:27:45.656Z</time>
      </trkpt>
      <trkpt lat="43.654984" lon="10.631432">
        <ele>14.406687</ele>
        <time>2026-05-05T16:27:48.537Z</time>
      </trkpt>
      <trkpt lat="43.654679" lon="10.631313">
        <ele>14.136469</ele>
        <time>2026-05-05T16:27:54.961Z</time>
      </trkpt>
      <trkpt lat="43.654628" lon="10.631289">
        <ele>14.090533</ele>
        <time>2026-05-05T16:27:56.054Z</time>
      </trkpt>
      <trkpt lat="43.654604" lon="10.631337">
        <ele>14.054539</ele>
        <time>2026-05-05T16:27:56.911Z</time>
      </trkpt>
      <trkpt lat="43.654409" lon="10.631137">
        <ele>13.847496</ele>
        <time>2026-05-05T16:28:01.827Z</time>
      </trkpt>
      <trkpt lat="43.654390" lon="10.631087">
        <ele>13.812655</ele>
        <time>2026-05-05T16:28:02.660Z</time>
      </trkpt>
      <trkpt lat="43.654348" lon="10.630904">
        <ele>13.694219</ele>
        <time>2026-05-05T16:28:05.496Z</time>
      </trkpt>
      <trkpt lat="43.654250" lon="10.629909">
        <ele>13.255059</ele>
        <time>2026-05-05T16:28:20.889Z</time>
      </trkpt>
      <trkpt lat="43.654165" lon="10.629503">
        <ele>13.181537</ele>
        <time>2026-05-05T16:28:27.605Z</time>
      </trkpt>
      <trkpt lat="43.653977" lon="10.628956">
        <ele>13.076194</ele>
        <time>2026-05-05T16:28:37.420Z</time>
      </trkpt>
      <trkpt lat="43.653652" lon="10.628288">
        <ele>12.936164</ele>
        <time>2026-05-05T16:28:50.805Z</time>
      </trkpt>
      <trkpt lat="43.653551" lon="10.628080">
        <ele>12.893043</ele>
        <time>2026-05-05T16:28:55.002Z</time>
      </trkpt>
      <trkpt lat="43.653513" lon="10.627930">
        <ele>12.880301</ele>
        <time>2026-05-05T16:28:57.650Z</time>
      </trkpt>
      <trkpt lat="43.653511" lon="10.627778">
        <ele>12.868113</ele>
        <time>2026-05-05T16:29:00.213Z</time>
      </trkpt>
      <trkpt lat="43.653522" lon="10.627635">
        <ele>12.856584</ele>
        <time>2026-05-05T16:29:02.586Z</time>
      </trkpt>
      <trkpt lat="43.653462" lon="10.627401">
        <ele>12.836680</ele>
        <time>2026-05-05T16:29:06.659Z</time>
      </trkpt>
      <trkpt lat="43.653390" lon="10.627308">
        <ele>12.825760</ele>
        <time>2026-05-05T16:29:08.834Z</time>
      </trkpt>
      <trkpt lat="43.653309" lon="10.627252">
        <ele>12.815725</ele>
        <time>2026-05-05T16:29:10.840Z</time>
      </trkpt>
      <trkpt lat="43.653194" lon="10.627236">
        <ele>12.802918</ele>
        <time>2026-05-05T16:29:13.410Z</time>
      </trkpt>
      <trkpt lat="43.653039" lon="10.627318">
        <ele>12.784527</ele>
        <time>2026-05-05T16:29:17.064Z</time>
      </trkpt>
      <trkpt lat="43.652945" lon="10.627477">
        <ele>12.768066</ele>
        <time>2026-05-05T16:29:20.358Z</time>
      </trkpt>
      <trkpt lat="43.652919" lon="10.627674">
        <ele>12.752011</ele>
        <time>2026-05-05T16:29:23.559Z</time>
      </trkpt>
      <trkpt lat="43.652858" lon="10.627921">
        <ele>12.731086</ele>
        <time>2026-05-05T16:29:27.745Z</time>
      </trkpt>
      <trkpt lat="43.652692" lon="10.628222">
        <ele>12.700743</ele>
        <time>2026-05-05T16:29:33.915Z</time>
      </trkpt>
      <trkpt lat="43.652159" lon="10.628792">
        <ele>12.995128</ele>
        <time>2026-05-05T16:29:49.646Z</time>
      </trkpt>
      <trkpt lat="43.651701" lon="10.629282">
        <ele>13.278955</ele>
        <time>2026-05-05T16:30:05.068Z</time>
      </trkpt>
      <trkpt lat="43.651677" lon="10.629240">
        <ele>13.297931</ele>
        <time>2026-05-05T16:30:06.158Z</time>
      </trkpt>
      <trkpt lat="43.651668" lon="10.629224">
        <ele>13.305117</ele>
        <time>2026-05-05T16:30:06.588Z</time>
      </trkpt>
      <trkpt lat="43.651229" lon="10.629683">
        <ele>13.574871</ele>
        <time>2026-05-05T16:30:22.278Z</time>
      </trkpt>
      <trkpt lat="43.650969" lon="10.629738">
        <ele>13.755344</ele>
        <time>2026-05-05T16:30:29.760Z</time>
      </trkpt>
      <trkpt lat="43.650905" lon="10.629713">
        <ele>13.801045</ele>
        <time>2026-05-05T16:30:31.601Z</time>
      </trkpt>
      <trkpt lat="43.650745" lon="10.629541">
        <ele>13.940333</ele>
        <time>2026-05-05T16:30:37.285Z</time>
      </trkpt>
      <trkpt lat="43.650575" lon="10.629437">
        <ele>14.068083</ele>
        <time>2026-05-05T16:30:42.468Z</time>
      </trkpt>
      <trkpt lat="43.650549" lon="10.629375">
        <ele>14.103712</ele>
        <time>2026-05-05T16:30:43.911Z</time>
      </trkpt>
      <trkpt lat="43.650541" lon="10.629217">
        <ele>14.182462</ele>
        <time>2026-05-05T16:30:47.038Z</time>
      </trkpt>
      <trkpt lat="43.650424" lon="10.629794">
        <ele>14.480400</ele>
        <time>2026-05-05T16:30:58.603Z</time>
      </trkpt>
      <trkpt lat="43.650414" lon="10.629829">
        <ele>14.499110</ele>
        <time>2026-05-05T16:30:59.283Z</time>
      </trkpt>
      <trkpt lat="43.650311" lon="10.629978">
        <ele>14.601568</ele>
        <time>2026-05-05T16:31:03.161Z</time>
      </trkpt>
      <trkpt lat="43.650064" lon="10.630088">
        <ele>14.779890</ele>
        <time>2026-05-05T16:31:09.747Z</time>
      </trkpt>
      <trkpt lat="43.648514" lon="10.629638">
        <ele>15.645060</ele>
        <time>2026-05-05T16:31:51.110Z</time>
      </trkpt>
      <trkpt lat="43.648362" lon="10.629594">
        <ele>15.729237</ele>
        <time>2026-05-05T16:31:55.396Z</time>
      </trkpt>
      <trkpt lat="43.647164" lon="10.629249">
        <ele>16.381972</ele>
        <time>2026-05-05T16:32:28.200Z</time>
      </trkpt>
      <trkpt lat="43.646987" lon="10.629197">
        <ele>16.478345</ele>
        <time>2026-05-05T16:32:32.941Z</time>
      </trkpt>
      <trkpt lat="43.646035" lon="10.628916">
        <ele>16.920991</ele>
        <time>2026-05-05T16:32:57.573Z</time>
      </trkpt>
      <trkpt lat="43.645492" lon="10.628760">
        <ele>17.127672</ele>
        <time>2026-05-05T16:33:11.624Z</time>
      </trkpt>
      <trkpt lat="43.643094" lon="10.628072">
        <ele>18.056067</ele>
        <time>2026-05-05T16:34:13.479Z</time>
      </trkpt>
      <trkpt lat="43.642718" lon="10.628002">
        <ele>18.096415</ele>
        <time>2026-05-05T16:34:23.130Z</time>
      </trkpt>
      <trkpt lat="43.642326" lon="10.627982">
        <ele>18.088402</ele>
        <time>2026-05-05T16:34:32.704Z</time>
      </trkpt>
      <trkpt lat="43.641749" lon="10.628010">
        <ele>18.076607</ele>
        <time>2026-05-05T16:34:45.879Z</time>
      </trkpt>
      <trkpt lat="43.641685" lon="10.628016">
        <ele>18.075296</ele>
        <time>2026-05-05T16:34:47.313Z</time>
      </trkpt>
      <trkpt lat="43.640730" lon="10.628111">
        <ele>17.914133</ele>
        <time>2026-05-05T16:35:08.131Z</time>
      </trkpt>
      <trkpt lat="43.640232" lon="10.628496">
        <ele>17.723892</ele>
        <time>2026-05-05T16:35:21.075Z</time>
      </trkpt>
      <trkpt lat="43.640014" lon="10.628718">
        <ele>17.633611</ele>
        <time>2026-05-05T16:35:27.368Z</time>
      </trkpt>
      <trkpt lat="43.639782" lon="10.629060">
        <ele>17.520517</ele>
        <time>2026-05-05T16:35:35.431Z</time>
      </trkpt>
      <trkpt lat="43.639660" lon="10.629368">
        <ele>17.466666</ele>
        <time>2026-05-05T16:35:41.499Z</time>
      </trkpt>
      <trkpt lat="43.639640" lon="10.629420">
        <ele>17.467299</ele>
        <time>2026-05-05T16:35:42.531Z</time>
      </trkpt>
      <trkpt lat="43.639546" lon="10.629871">
        <ele>17.472350</ele>
        <time>2026-05-05T16:35:50.684Z</time>
      </trkpt>
      <trkpt lat="43.639463" lon="10.630073">
        <ele>17.474849</ele>
        <time>2026-05-05T16:35:54.740Z</time>
      </trkpt>
      <trkpt lat="43.639465" lon="10.630218">
        <ele>17.476410</ele>
        <time>2026-05-05T16:35:57.278Z</time>
      </trkpt>
      <trkpt lat="43.638996" lon="10.631122">
        <ele>17.488379</ele>
        <time>2026-05-05T16:36:17.119Z</time>
      </trkpt>
      <trkpt lat="43.638868" lon="10.631772">
        <ele>17.552581</ele>
        <time>2026-05-05T16:36:29.148Z</time>
      </trkpt>
      <trkpt lat="43.638836" lon="10.631878">
        <ele>17.573726</ele>
        <time>2026-05-05T16:36:31.184Z</time>
      </trkpt>
      <trkpt lat="43.638741" lon="10.632043">
        <ele>17.612543</ele>
        <time>2026-05-05T16:36:34.949Z</time>
      </trkpt>
      <trkpt lat="43.638587" lon="10.632190">
        <ele>17.660157</ele>
        <time>2026-05-05T16:36:39.550Z</time>
      </trkpt>
      <trkpt lat="43.637491" lon="10.632823">
        <ele>17.962363</ele>
        <time>2026-05-05T16:37:11.084Z</time>
      </trkpt>
      <trkpt lat="43.636833" lon="10.633185">
        <ele>18.142848</ele>
        <time>2026-05-05T16:37:29.337Z</time>
      </trkpt>
      <trkpt lat="43.636609" lon="10.633248">
        <ele>18.201102</ele>
        <time>2026-05-05T16:37:35.203Z</time>
      </trkpt>
      <trkpt lat="43.636094" lon="10.633303">
        <ele>18.332735</ele>
        <time>2026-05-05T16:37:48.675Z</time>
      </trkpt>
      <trkpt lat="43.635384" lon="10.633149">
        <ele>18.470907</ele>
        <time>2026-05-05T16:38:06.669Z</time>
      </trkpt>
      <trkpt lat="43.635121" lon="10.633194">
        <ele>18.510285</ele>
        <time>2026-05-05T16:38:13.219Z</time>
      </trkpt>
      <trkpt lat="43.634806" lon="10.633306">
        <ele>18.558616</ele>
        <time>2026-05-05T16:38:21.473Z</time>
      </trkpt>
      <trkpt lat="43.634594" lon="10.633447">
        <ele>18.593576</ele>
        <time>2026-05-05T16:38:27.476Z</time>
      </trkpt>
      <trkpt lat="43.634104" lon="10.633901">
        <ele>18.687148</ele>
        <time>2026-05-05T16:38:42.473Z</time>
      </trkpt>
      <trkpt lat="43.633857" lon="10.633902">
        <ele>18.760131</ele>
        <time>2026-05-05T16:38:48.568Z</time>
      </trkpt>
      <trkpt lat="43.633001" lon="10.633702">
        <ele>19.016650</ele>
        <time>2026-05-05T16:39:10.999Z</time>
      </trkpt>
      <trkpt lat="43.632865" lon="10.633739">
        <ele>19.057607</ele>
        <time>2026-05-05T16:39:14.720Z</time>
      </trkpt>
      <trkpt lat="43.632545" lon="10.634508">
        <ele>19.239958</ele>
        <time>2026-05-05T16:39:31.940Z</time>
      </trkpt>
      <trkpt lat="43.632377" lon="10.634772">
        <ele>19.301522</ele>
        <time>2026-05-05T16:39:38.762Z</time>
      </trkpt>
      <trkpt lat="43.632361" lon="10.634808">
        <ele>19.308920</ele>
        <time>2026-05-05T16:39:39.602Z</time>
      </trkpt>
      <trkpt lat="43.632315" lon="10.634911">
        <ele>19.330116</ele>
        <time>2026-05-05T16:39:41.954Z</time>
      </trkpt>
      <trkpt lat="43.632171" lon="10.635325">
        <ele>19.410558</ele>
        <time>2026-05-05T16:39:50.679Z</time>
      </trkpt>
      <trkpt lat="43.632063" lon="10.635430">
        <ele>19.442512</ele>
        <time>2026-05-05T16:39:54.031Z</time>
      </trkpt>
      <trkpt lat="43.631951" lon="10.635458">
        <ele>19.470052</ele>
        <time>2026-05-05T16:39:56.891Z</time>
      </trkpt>
      <trkpt lat="43.631766" lon="10.635443">
        <ele>19.514893</ele>
        <time>2026-05-05T16:40:01.482Z</time>
      </trkpt>
      <trkpt lat="43.631534" lon="10.635378">
        <ele>19.572172</ele>
        <time>2026-05-05T16:40:07.295Z</time>
      </trkpt>
      <trkpt lat="43.631334" lon="10.635272">
        <ele>19.624003</ele>
        <time>2026-05-05T16:40:12.553Z</time>
      </trkpt>
      <trkpt lat="43.631000" lon="10.634979">
        <ele>19.564279</ele>
        <time>2026-05-05T16:40:22.474Z</time>
      </trkpt>
      <trkpt lat="43.630814" lon="10.634862">
        <ele>19.514922</ele>
        <time>2026-05-05T16:40:27.670Z</time>
      </trkpt>
      <trkpt lat="43.630604" lon="10.634793">
        <ele>19.462791</ele>
        <time>2026-05-05T16:40:33.010Z</time>
      </trkpt>
      <trkpt lat="43.630297" lon="10.634692">
        <ele>19.386576</ele>
        <time>2026-05-05T16:40:40.420Z</time>
      </trkpt>
      <trkpt lat="43.629951" lon="10.634688">
        <ele>19.303012</ele>
        <time>2026-05-05T16:40:48.316Z</time>
      </trkpt>
      <trkpt lat="43.629733" lon="10.634720">
        <ele>19.250067</ele>
        <time>2026-05-05T16:40:53.270Z</time>
      </trkpt>
      <trkpt lat="43.629383" lon="10.634877">
        <ele>19.169317</ele>
        <time>2026-05-05T16:41:01.344Z</time>
      </trkpt>
      <trkpt lat="43.629213" lon="10.634858">
        <ele>19.135344</ele>
        <time>2026-05-05T16:41:05.030Z</time>
      </trkpt>
      <trkpt lat="43.628915" lon="10.634690">
        <ele>19.071232</ele>
        <time>2026-05-05T16:41:12.199Z</time>
      </trkpt>
      <trkpt lat="43.628254" lon="10.634421">
        <ele>18.933972</ele>
        <time>2026-05-05T16:41:28.275Z</time>
      </trkpt>
      <trkpt lat="43.627935" lon="10.634319">
        <ele>18.868750</ele>
        <time>2026-05-05T16:41:37.257Z</time>
      </trkpt>
      <trkpt lat="43.627755" lon="10.634303">
        <ele>18.906469</ele>
        <time>2026-05-05T16:41:42.414Z</time>
      </trkpt>
      <trkpt lat="43.626780" lon="10.634414">
        <ele>19.584003</ele>
        <time>2026-05-05T16:42:11.020Z</time>
      </trkpt>
      <trkpt lat="43.626572" lon="10.634422">
        <ele>19.728111</ele>
        <time>2026-05-05T16:42:16.808Z</time>
      </trkpt>
      <trkpt lat="43.626374" lon="10.634429">
        <ele>19.865282</ele>
        <time>2026-05-05T16:42:22.303Z</time>
      </trkpt>
      <trkpt lat="43.625936" lon="10.634394">
        <ele>20.136202</ele>
        <time>2026-05-05T16:42:34.659Z</time>
      </trkpt>
      <trkpt lat="43.625365" lon="10.634362">
        <ele>20.356323</ele>
        <time>2026-05-05T16:42:50.509Z</time>
      </trkpt>
      <trkpt lat="43.624538" lon="10.634297">
        <ele>20.675386</ele>
        <time>2026-05-05T16:43:12.096Z</time>
      </trkpt>
      <trkpt lat="43.624368" lon="10.634271">
        <ele>20.741267</ele>
        <time>2026-05-05T16:43:16.547Z</time>
      </trkpt>
      <trkpt lat="43.624178" lon="10.634241">
        <ele>20.837804</ele>
        <time>2026-05-05T16:43:21.454Z</time>
      </trkpt>
      <trkpt lat="43.623431" lon="10.634209">
        <ele>21.367946</ele>
        <time>2026-05-05T16:43:40.239Z</time>
      </trkpt>
      <trkpt lat="43.623032" lon="10.634191">
        <ele>21.651129</ele>
        <time>2026-05-05T16:43:51.095Z</time>
      </trkpt>
      <trkpt lat="43.622102" lon="10.634111">
        <ele>22.444382</ele>
        <time>2026-05-05T16:44:22.330Z</time>
      </trkpt>
      <trkpt lat="43.621790" lon="10.634040">
        <ele>22.788085</ele>
        <time>2026-05-05T16:44:32.891Z</time>
      </trkpt>
      <trkpt lat="43.621893" lon="10.633813">
        <ele>22.998890</ele>
        <time>2026-05-05T16:44:38.942Z</time>
      </trkpt>
      <trkpt lat="43.622179" lon="10.633183">
        <ele>23.584024</ele>
        <time>2026-05-05T16:44:54.757Z</time>
      </trkpt>
      <trkpt lat="43.622445" lon="10.632599">
        <ele>24.031935</ele>
        <time>2026-05-05T16:45:08.401Z</time>
      </trkpt>
      <trkpt lat="43.622471" lon="10.632540">
        <ele>24.038588</ele>
        <time>2026-05-05T16:45:09.600Z</time>
      </trkpt>
      <trkpt lat="43.622915" lon="10.631563">
        <ele>24.149707</ele>
        <time>2026-05-05T16:45:28.251Z</time>
      </trkpt>
      <trkpt lat="43.622935" lon="10.631517">
        <ele>24.154875</ele>
        <time>2026-05-05T16:45:29.138Z</time>
      </trkpt>
      <trkpt lat="43.622870" lon="10.631450">
        <ele>24.165667</ele>
        <time>2026-05-05T16:45:31.118Z</time>
      </trkpt>
      <trkpt lat="43.622708" lon="10.631312">
        <ele>24.190993</ele>
        <time>2026-05-05T16:45:35.773Z</time>
      </trkpt>
      <trkpt lat="43.622611" lon="10.631229">
        <ele>24.206176</ele>
        <time>2026-05-05T16:45:38.666Z</time>
      </trkpt>
      <trkpt lat="43.622416" lon="10.631149">
        <ele>24.233243</ele>
        <time>2026-05-05T16:45:44.040Z</time>
      </trkpt>
      <trkpt lat="43.621904" lon="10.631308">
        <ele>24.292907</ele>
        <time>2026-05-05T16:45:57.993Z</time>
      </trkpt>
      <trkpt lat="43.621581" lon="10.631408">
        <ele>24.327015</ele>
        <time>2026-05-05T16:46:06.233Z</time>
      </trkpt>
      <trkpt lat="43.621350" lon="10.631334">
        <ele>24.351449</ele>
        <time>2026-05-05T16:46:12.011Z</time>
      </trkpt>
      <trkpt lat="43.621344" lon="10.631301">
        <ele>24.353987</ele>
        <time>2026-05-05T16:46:12.562Z</time>
      </trkpt>
      <trkpt lat="43.621267" lon="10.631149">
        <ele>24.367826</ele>
        <time>2026-05-05T16:46:15.580Z</time>
      </trkpt>
      <trkpt lat="43.620877" lon="10.630836">
        <ele>24.414302</ele>
        <time>2026-05-05T16:46:25.733Z</time>
      </trkpt>
      <trkpt lat="43.620610" lon="10.630661">
        <ele>24.444187</ele>
        <time>2026-05-05T16:46:32.843Z</time>
      </trkpt>
      <trkpt lat="43.620595" lon="10.630652">
        <ele>24.445192</ele>
        <time>2026-05-05T16:46:33.268Z</time>
      </trkpt>
      <trkpt lat="43.620476" lon="10.630575">
        <ele>24.453262</ele>
        <time>2026-05-05T16:46:36.493Z</time>
      </trkpt>
      <trkpt lat="43.620309" lon="10.630466">
        <ele>24.464606</ele>
        <time>2026-05-05T16:46:40.891Z</time>
      </trkpt>
      <trkpt lat="43.620108" lon="10.630331">
        <ele>24.478332</ele>
        <time>2026-05-05T16:46:46.156Z</time>
      </trkpt>
      <trkpt lat="43.620015" lon="10.630342">
        <ele>24.484065</ele>
        <time>2026-05-05T16:46:48.434Z</time>
      </trkpt>
      <trkpt lat="43.619953" lon="10.630390">
        <ele>24.488430</ele>
        <time>2026-05-05T16:46:50.178Z</time>
      </trkpt>
      <trkpt lat="43.619928" lon="10.630469">
        <ele>24.492263</ele>
        <time>2026-05-05T16:46:51.714Z</time>
      </trkpt>
      <trkpt lat="43.619878" lon="10.630624">
        <ele>24.499808</ele>
        <time>2026-05-05T16:46:54.647Z</time>
      </trkpt>
      <trkpt lat="43.619827" lon="10.630796">
        <ele>24.508072</ele>
        <time>2026-05-05T16:46:57.834Z</time>
      </trkpt>
      <trkpt lat="43.619776" lon="10.630962">
        <ele>24.516089</ele>
        <time>2026-05-05T16:47:00.855Z</time>
      </trkpt>
      <trkpt lat="43.619738" lon="10.631101">
        <ele>24.522695</ele>
        <time>2026-05-05T16:47:03.389Z</time>
      </trkpt>
      <trkpt lat="43.619643" lon="10.631432">
        <ele>24.538526</ele>
        <time>2026-05-05T16:47:09.521Z</time>
      </trkpt>
      <trkpt lat="43.619583" lon="10.631640">
        <ele>24.548481</ele>
        <time>2026-05-05T16:47:13.390Z</time>
      </trkpt>
      <trkpt lat="43.619511" lon="10.631902">
        <ele>24.488050</ele>
        <time>2026-05-05T16:47:17.991Z</time>
      </trkpt>
      <trkpt lat="43.619456" lon="10.632100">
        <ele>24.401004</ele>
        <time>2026-05-05T16:47:21.424Z</time>
      </trkpt>
      <trkpt lat="43.619373" lon="10.632440">
        <ele>24.253733</ele>
        <time>2026-05-05T16:47:27.056Z</time>
      </trkpt>
      <trkpt lat="43.619284" lon="10.632793">
        <ele>24.100310</ele>
        <time>2026-05-05T16:47:32.780Z</time>
      </trkpt>
      <trkpt lat="43.619277" lon="10.632819">
        <ele>24.088925</ele>
        <time>2026-05-05T16:47:33.196Z</time>
      </trkpt>
      <trkpt lat="43.619214" lon="10.633104">
        <ele>23.966616</ele>
        <time>2026-05-05T16:47:37.404Z</time>
      </trkpt>
      <trkpt lat="43.619216" lon="10.633183">
        <ele>23.934171</ele>
        <time>2026-05-05T16:47:38.533Z</time>
      </trkpt>
      <trkpt lat="43.619253" lon="10.633270">
        <ele>23.892756</ele>
        <time>2026-05-05T16:47:39.948Z</time>
      </trkpt>
      <trkpt lat="43.619372" lon="10.633276">
        <ele>23.825243</ele>
        <time>2026-05-05T16:47:42.348Z</time>
      </trkpt>
      <trkpt lat="43.619900" lon="10.633425">
        <ele>23.541105</ele>
        <time>2026-05-05T16:47:53.696Z</time>
      </trkpt>
      <trkpt lat="43.619799" lon="10.633786">
        <ele>23.619120</ele>
        <time>2026-05-05T16:47:59.815Z</time>
      </trkpt>
      <trkpt lat="43.619692" lon="10.634171">
        <ele>23.702250</ele>
        <time>2026-05-05T16:48:07.213Z</time>
      </trkpt>
      <trkpt lat="43.619507" lon="10.634429">
        <ele>23.775451</ele>
        <time>2026-05-05T16:48:14.043Z</time>
      </trkpt>
      <trkpt lat="43.619193" lon="10.634815">
        <ele>23.892494</ele>
        <time>2026-05-05T16:48:24.459Z</time>
      </trkpt>
      <trkpt lat="43.618910" lon="10.635292">
        <ele>24.016813</ele>
        <time>2026-05-05T16:48:37.036Z</time>
      </trkpt>
      <trkpt lat="43.618878" lon="10.635346">
        <ele>24.030880</ele>
        <time>2026-05-05T16:48:38.448Z</time>
      </trkpt>
      <trkpt lat="43.618390" lon="10.636155">
        <ele>24.456287</ele>
        <time>2026-05-05T16:48:59.598Z</time>
      </trkpt>
      <trkpt lat="43.618017" lon="10.636829">
        <ele>24.802322</ele>
        <time>2026-05-05T16:49:15.357Z</time>
      </trkpt>
      <trkpt lat="43.617922" lon="10.637063">
        <ele>24.911750</ele>
        <time>2026-05-05T16:49:20.217Z</time>
      </trkpt>
      <trkpt lat="43.617803" lon="10.637389">
        <ele>25.052571</ele>
        <time>2026-05-05T16:49:26.859Z</time>
      </trkpt>
      <trkpt lat="43.617669" lon="10.637674">
        <ele>25.100743</ele>
        <time>2026-05-05T16:49:33.099Z</time>
      </trkpt>
      <trkpt lat="43.617524" lon="10.637920">
        <ele>25.145710</ele>
        <time>2026-05-05T16:49:38.866Z</time>
      </trkpt>
      <trkpt lat="43.616900" lon="10.638740">
        <ele>25.314351</ele>
        <time>2026-05-05T16:49:59.659Z</time>
      </trkpt>
      <trkpt lat="43.616666" lon="10.639057">
        <ele>25.378527</ele>
        <time>2026-05-05T16:50:07.144Z</time>
      </trkpt>
      <trkpt lat="43.616334" lon="10.639544">
        <ele>25.435316</ele>
        <time>2026-05-05T16:50:18.248Z</time>
      </trkpt>
      <trkpt lat="43.616009" lon="10.640154">
        <ele>25.486674</ele>
        <time>2026-05-05T16:50:31.329Z</time>
      </trkpt>
      <trkpt lat="43.615851" lon="10.640389">
        <ele>25.508420</ele>
        <time>2026-05-05T16:50:36.839Z</time>
      </trkpt>
      <trkpt lat="43.615655" lon="10.640578">
        <ele>25.530809</ele>
        <time>2026-05-05T16:50:42.537Z</time>
      </trkpt>
      <trkpt lat="43.615229" lon="10.640890">
        <ele>25.587521</ele>
        <time>2026-05-05T16:50:54.119Z</time>
      </trkpt>
      <trkpt lat="43.614859" lon="10.641148">
        <ele>25.689772</ele>
        <time>2026-05-05T16:51:03.932Z</time>
      </trkpt>
      <trkpt lat="43.614428" lon="10.641438">
        <ele>25.808044</ele>
        <time>2026-05-05T16:51:15.474Z</time>
      </trkpt>
      <trkpt lat="43.614038" lon="10.641644">
        <ele>25.911052</ele>
        <time>2026-05-05T16:51:25.580Z</time>
      </trkpt>
      <trkpt lat="43.613532" lon="10.641831">
        <ele>26.100270</ele>
        <time>2026-05-05T16:51:38.842Z</time>
      </trkpt>
      <trkpt lat="43.613306" lon="10.641951">
        <ele>26.289628</ele>
        <time>2026-05-05T16:51:45.251Z</time>
      </trkpt>
      <trkpt lat="43.612841" lon="10.642364">
        <ele>26.721990</ele>
        <time>2026-05-05T16:52:00.889Z</time>
      </trkpt>
      <trkpt lat="43.612629" lon="10.642502">
        <ele>26.905279</ele>
        <time>2026-05-05T16:52:07.640Z</time>
      </trkpt>
      <trkpt lat="43.612159" lon="10.642654">
        <ele>27.282794</ele>
        <time>2026-05-05T16:52:21.733Z</time>
      </trkpt>
      <trkpt lat="43.612025" lon="10.642697">
        <ele>27.390382</ele>
        <time>2026-05-05T16:52:25.658Z</time>
      </trkpt>
      <trkpt lat="43.611916" lon="10.642735">
        <ele>27.467880</ele>
        <time>2026-05-05T16:52:28.837Z</time>
      </trkpt>
      <trkpt lat="43.611547" lon="10.642925">
        <ele>27.721478</ele>
        <time>2026-05-05T16:52:39.220Z</time>
      </trkpt>
      <trkpt lat="43.611200" lon="10.643013">
        <ele>27.948668</ele>
        <time>2026-05-05T16:52:47.502Z</time>
      </trkpt>
      <trkpt lat="43.611148" lon="10.643021">
        <ele>27.982361</ele>
        <time>2026-05-05T16:52:48.713Z</time>
      </trkpt>
      <trkpt lat="43.610943" lon="10.643018">
        <ele>28.114380</ele>
        <time>2026-05-05T16:52:53.524Z</time>
      </trkpt>
      <trkpt lat="43.610695" lon="10.642936">
        <ele>28.278595</ele>
        <time>2026-05-05T16:53:00.286Z</time>
      </trkpt>
      <trkpt lat="43.610590" lon="10.642803">
        <ele>28.370342</ele>
        <time>2026-05-05T16:53:04.307Z</time>
      </trkpt>
      <trkpt lat="43.610426" lon="10.642722">
        <ele>28.482501</ele>
        <time>2026-05-05T16:53:09.476Z</time>
      </trkpt>
      <trkpt lat="43.610253" lon="10.642744">
        <ele>28.570639</ele>
        <time>2026-05-05T16:53:15.004Z</time>
      </trkpt>
      <trkpt lat="43.610103" lon="10.642864">
        <ele>28.524838</ele>
        <time>2026-05-05T16:53:20.743Z</time>
      </trkpt>
      <trkpt lat="43.610001" lon="10.643068">
        <ele>28.477410</ele>
        <time>2026-05-05T16:53:26.389Z</time>
      </trkpt>
      <trkpt lat="43.609974" lon="10.643313">
        <ele>28.430001</ele>
        <time>2026-05-05T16:53:31.485Z</time>
      </trkpt>
      <trkpt lat="43.610008" lon="10.643502">
        <ele>28.392745</ele>
        <time>2026-05-05T16:53:35.110Z</time>
      </trkpt>
      <trkpt lat="43.610087" lon="10.643663">
        <ele>28.355538</ele>
        <time>2026-05-05T16:53:38.529Z</time>
      </trkpt>
      <trkpt lat="43.609933" lon="10.643890">
        <ele>28.296028</ele>
        <time>2026-05-05T16:53:43.611Z</time>
      </trkpt>
      <trkpt lat="43.609898" lon="10.643952">
        <ele>28.280988</ele>
        <time>2026-05-05T16:53:45.710Z</time>
      </trkpt>
      <trkpt lat="43.609732" lon="10.644032">
        <ele>28.234535</ele>
        <time>2026-05-05T16:53:52.102Z</time>
      </trkpt>
      <trkpt lat="43.609603" lon="10.643922">
        <ele>28.194478</ele>
        <time>2026-05-05T16:53:57.447Z</time>
      </trkpt>
      <trkpt lat="43.609362" lon="10.643212">
        <ele>27.843767</ele>
        <time>2026-05-05T16:54:15.951Z</time>
      </trkpt>
      <trkpt lat="43.609219" lon="10.643010">
        <ele>27.602225</ele>
        <time>2026-05-05T16:54:22.392Z</time>
      </trkpt>
      <trkpt lat="43.609107" lon="10.642966">
        <ele>27.464724</ele>
        <time>2026-05-05T16:54:25.978Z</time>
      </trkpt>
      <trkpt lat="43.608539" lon="10.642882">
        <ele>26.790171</ele>
        <time>2026-05-05T16:54:44.107Z</time>
      </trkpt>
      <trkpt lat="43.606243" lon="10.642544">
        <ele>27.192779</ele>
        <time>2026-05-05T16:56:22.992Z</time>
      </trkpt>
      <trkpt lat="43.605530" lon="10.642439">
        <ele>27.358823</ele>
        <time>2026-05-05T16:56:54.238Z</time>
      </trkpt>
      <trkpt lat="43.598622" lon="10.642299">
        <ele>28.249297</ele>
        <time>2026-05-05T17:01:16.817Z</time>
      </trkpt>
      <trkpt lat="43.598235" lon="10.643181">
        <ele>29.488480</ele>
        <time>2026-05-05T17:01:43.154Z</time>
      </trkpt>
      <trkpt lat="43.597994" lon="10.643871">
        <ele>30.408996</ele>
        <time>2026-05-05T17:02:04.895Z</time>
      </trkpt>
      <trkpt lat="43.597771" lon="10.644423">
        <ele>31.361140</ele>
        <time>2026-05-05T17:02:22.182Z</time>
      </trkpt>
      <trkpt lat="43.597759" lon="10.644486">
        <ele>31.481714</ele>
        <time>2026-05-05T17:02:24.546Z</time>
      </trkpt>
      <trkpt lat="43.597784" lon="10.644580">
        <ele>31.667063</ele>
        <time>2026-05-05T17:02:28.230Z</time>
      </trkpt>
      <trkpt lat="43.598242" lon="10.645327">
        <ele>33.478673</ele>
        <time>2026-05-05T17:03:03.224Z</time>
      </trkpt>
      <trkpt lat="43.598702" lon="10.645994">
        <ele>35.183478</ele>
        <time>2026-05-05T17:03:39.020Z</time>
      </trkpt>
      <trkpt lat="43.598814" lon="10.646219">
        <ele>36.129394</ele>
        <time>2026-05-05T17:03:50.672Z</time>
      </trkpt>
      <trkpt lat="43.598830" lon="10.646308">
        <ele>36.566435</ele>
        <time>2026-05-05T17:03:54.739Z</time>
      </trkpt>
      <trkpt lat="43.598821" lon="10.646418">
        <ele>37.094021</ele>
        <time>2026-05-05T17:03:59.767Z</time>
      </trkpt>
      <trkpt lat="43.598546" lon="10.647313">
        <ele>41.727584</ele>
        <time>2026-05-05T17:04:50.436Z</time>
      </trkpt>
      <trkpt lat="43.598482" lon="10.647674">
        <ele>43.498894</ele>
        <time>2026-05-05T17:05:12.957Z</time>
      </trkpt>
      <trkpt lat="43.598478" lon="10.647864">
        <ele>44.404807</ele>
        <time>2026-05-05T17:05:25.092Z</time>
      </trkpt>
      <trkpt lat="43.598652" lon="10.648356">
        <ele>47.014318</ele>
        <time>2026-05-05T17:06:01.997Z</time>
      </trkpt>
      <trkpt lat="43.598892" lon="10.648886">
        <ele>50.405266</ele>
        <time>2026-05-05T17:06:46.339Z</time>
      </trkpt>
      <trkpt lat="43.598940" lon="10.649064">
        <ele>51.446205</ele>
        <time>2026-05-05T17:06:59.606Z</time>
      </trkpt>
      <trkpt lat="43.598958" lon="10.649336">
        <ele>52.943071</ele>
        <time>2026-05-05T17:07:18.169Z</time>
      </trkpt>
      <trkpt lat="43.598918" lon="10.649584">
        <ele>54.335499</ele>
        <time>2026-05-05T17:07:34.801Z</time>
      </trkpt>
      <trkpt lat="43.598843" lon="10.649792">
        <ele>55.608896</ele>
        <time>2026-05-05T17:07:49.185Z</time>
      </trkpt>
      <trkpt lat="43.598785" lon="10.649895">
        <ele>56.323940</ele>
        <time>2026-05-05T17:07:56.906Z</time>
      </trkpt>
      <trkpt lat="43.598622" lon="10.650076">
        <ele>57.906828</ele>
        <time>2026-05-05T17:08:13.247Z</time>
      </trkpt>
      <trkpt lat="43.598033" lon="10.650300">
        <ele>61.438024</ele>
        <time>2026-05-05T17:08:55.046Z</time>
      </trkpt>
      <trkpt lat="43.597833" lon="10.650443">
        <ele>62.029565</ele>
        <time>2026-05-05T17:09:08.218Z</time>
      </trkpt>
      <trkpt lat="43.597754" lon="10.650585">
        <ele>62.370161</ele>
        <time>2026-05-05T17:09:15.209Z</time>
      </trkpt>
      <trkpt lat="43.596956" lon="10.652611">
        <ele>65.845526</ele>
        <time>2026-05-05T17:10:36.225Z</time>
      </trkpt>
      <trkpt lat="43.596695" lon="10.652710">
        <ele>66.005151</ele>
        <time>2026-05-05T17:10:48.255Z</time>
      </trkpt>
      <trkpt lat="43.596508" lon="10.652842">
        <ele>66.129009</ele>
        <time>2026-05-05T17:10:57.237Z</time>
      </trkpt>
      <trkpt lat="43.596397" lon="10.652986">
        <ele>66.218830</ele>
        <time>2026-05-05T17:11:03.563Z</time>
      </trkpt>
      <trkpt lat="43.596189" lon="10.653534">
        <ele>66.483080</ele>
        <time>2026-05-05T17:11:21.190Z</time>
      </trkpt>
      <trkpt lat="43.595150" lon="10.654231">
        <ele>65.349680</ele>
        <time>2026-05-05T17:12:02.167Z</time>
      </trkpt>
      <trkpt lat="43.594396" lon="10.654475">
        <ele>64.218541</ele>
        <time>2026-05-05T17:12:27.885Z</time>
      </trkpt>
      <trkpt lat="43.593652" lon="10.654650">
        <ele>62.767969</ele>
        <time>2026-05-05T17:12:51.558Z</time>
      </trkpt>
      <trkpt lat="43.593646" lon="10.654654">
        <ele>62.754468</ele>
        <time>2026-05-05T17:12:51.757Z</time>
      </trkpt>
      <trkpt lat="43.593573" lon="10.654704">
        <ele>62.589346</ele>
        <time>2026-05-05T17:12:54.311Z</time>
      </trkpt>
      <trkpt lat="43.593432" lon="10.654801">
        <ele>62.270134</ele>
        <time>2026-05-05T17:12:59.264Z</time>
      </trkpt>
      <trkpt lat="43.593063" lon="10.655197">
        <ele>61.323126</ele>
        <time>2026-05-05T17:13:14.240Z</time>
      </trkpt>
      <trkpt lat="43.592664" lon="10.656137">
        <ele>61.011912</ele>
        <time>2026-05-05T17:13:41.827Z</time>
      </trkpt>
      <trkpt lat="43.592465" lon="10.656699">
        <ele>61.922626</ele>
        <time>2026-05-05T17:14:03.935Z</time>
      </trkpt>
      <trkpt lat="43.592238" lon="10.657070">
        <ele>62.629671</ele>
        <time>2026-05-05T17:14:24.573Z</time>
      </trkpt>
      <trkpt lat="43.592121" lon="10.657334">
        <ele>63.080253</ele>
        <time>2026-05-05T17:14:38.654Z</time>
      </trkpt>
      <trkpt lat="43.592037" lon="10.657643">
        <ele>63.560746</ele>
        <time>2026-05-05T17:14:53.727Z</time>
      </trkpt>
      <trkpt lat="43.591911" lon="10.658347">
        <ele>63.821348</ele>
        <time>2026-05-05T17:15:23.755Z</time>
      </trkpt>
      <trkpt lat="43.591867" lon="10.658524">
        <ele>63.750196</ele>
        <time>2026-05-05T17:15:30.474Z</time>
      </trkpt>
      <trkpt lat="43.591777" lon="10.658738">
        <ele>63.656106</ele>
        <time>2026-05-05T17:15:38.631Z</time>
      </trkpt>
      <trkpt lat="43.591628" lon="10.658916">
        <ele>63.552670</ele>
        <time>2026-05-05T17:15:46.481Z</time>
      </trkpt>
      <trkpt lat="43.591424" lon="10.659082">
        <ele>63.428361</ele>
        <time>2026-05-05T17:15:54.844Z</time>
      </trkpt>
      <trkpt lat="43.590727" lon="10.659545">
        <ele>62.930505</ele>
        <time>2026-05-05T17:16:18.798Z</time>
      </trkpt>
      <trkpt lat="43.589769" lon="10.660353">
        <ele>59.561587</ele>
        <time>2026-05-05T17:16:52.378Z</time>
      </trkpt>
      <trkpt lat="43.589035" lon="10.661217">
        <ele>56.732737</ele>
        <time>2026-05-05T17:17:25.091Z</time>
      </trkpt>
      <trkpt lat="43.588443" lon="10.662262">
        <ele>54.043129</ele>
        <time>2026-05-05T17:17:56.356Z</time>
      </trkpt>
      <trkpt lat="43.588295" lon="10.662518">
        <ele>53.379076</ele>
        <time>2026-05-05T17:18:00.579Z</time>
      </trkpt>
      <trkpt lat="43.587954" lon="10.662150">
        <ele>52.025451</ele>
        <time>2026-05-05T17:18:13.292Z</time>
      </trkpt>
      <trkpt lat="43.587883" lon="10.662105">
        <ele>51.736454</ele>
        <time>2026-05-05T17:18:15.544Z</time>
      </trkpt>
      <trkpt lat="43.587810" lon="10.662107">
        <ele>51.466360</ele>
        <time>2026-05-05T17:18:17.640Z</time>
      </trkpt>
      <trkpt lat="43.587465" lon="10.662384">
        <ele>49.990016</ele>
        <time>2026-05-05T17:18:29.015Z</time>
      </trkpt>
      <trkpt lat="43.587224" lon="10.662454">
        <ele>49.078995</ele>
        <time>2026-05-05T17:18:36.086Z</time>
      </trkpt>
      <trkpt lat="43.587160" lon="10.662422">
        <ele>48.827199</ele>
        <time>2026-05-05T17:18:38.068Z</time>
      </trkpt>
      <trkpt lat="43.587041" lon="10.662294">
        <ele>48.269162</ele>
        <time>2026-05-05T17:18:42.563Z</time>
      </trkpt>
      <trkpt lat="43.586824" lon="10.661995">
        <ele>47.135051</ele>
        <time>2026-05-05T17:18:52.313Z</time>
      </trkpt>
      <trkpt lat="43.586702" lon="10.661881">
        <ele>46.590096</ele>
        <time>2026-05-05T17:18:57.256Z</time>
      </trkpt>
      <trkpt lat="43.586625" lon="10.661760">
        <ele>46.158533</ele>
        <time>2026-05-05T17:19:01.266Z</time>
      </trkpt>
      <trkpt lat="43.586540" lon="10.661551">
        <ele>45.832813</ele>
        <time>2026-05-05T17:19:07.288Z</time>
      </trkpt>
      <trkpt lat="43.586389" lon="10.661447">
        <ele>45.657747</ele>
        <time>2026-05-05T17:19:13.213Z</time>
      </trkpt>
      <trkpt lat="43.586239" lon="10.661415">
        <ele>45.500283</ele>
        <time>2026-05-05T17:19:18.519Z</time>
      </trkpt>
      <trkpt lat="43.585776" lon="10.661452">
        <ele>45.019141</ele>
        <time>2026-05-05T17:19:34.624Z</time>
      </trkpt>
      <trkpt lat="43.585426" lon="10.660097">
        <ele>44.177574</ele>
        <time>2026-05-05T17:20:11.685Z</time>
      </trkpt>
      <trkpt lat="43.585285" lon="10.659288">
        <ele>44.536856</ele>
        <time>2026-05-05T17:20:33.940Z</time>
      </trkpt>
      <trkpt lat="43.584310" lon="10.659576">
        <ele>45.131208</ele>
        <time>2026-05-05T17:21:18.456Z</time>
      </trkpt>
      <trkpt lat="43.584050" lon="10.659839">
        <ele>46.222649</ele>
        <time>2026-05-05T17:21:34.490Z</time>
      </trkpt>
      <trkpt lat="43.583823" lon="10.660015">
        <ele>47.244778</ele>
        <time>2026-05-05T17:21:48.330Z</time>
      </trkpt>
      <trkpt lat="43.583134" lon="10.659882">
        <ele>49.976089</ele>
        <time>2026-05-05T17:22:31.750Z</time>
      </trkpt>
      <trkpt lat="43.582859" lon="10.659862">
        <ele>51.057229</ele>
        <time>2026-05-05T17:22:51.081Z</time>
      </trkpt>
      <trkpt lat="43.582675" lon="10.659962">
        <ele>51.833572</ele>
        <time>2026-05-05T17:23:05.496Z</time>
      </trkpt>
      <trkpt lat="43.582188" lon="10.660002">
        <ele>54.607272</ele>
        <time>2026-05-05T17:23:42.733Z</time>
      </trkpt>
      <trkpt lat="43.580937" lon="10.660741">
        <ele>62.956135</ele>
        <time>2026-05-05T17:25:25.971Z</time>
      </trkpt>
      <trkpt lat="43.580759" lon="10.660871">
        <ele>64.323163</ele>
        <time>2026-05-05T17:25:40.382Z</time>
      </trkpt>
      <trkpt lat="43.580219" lon="10.661001">
        <ele>68.160705</ele>
        <time>2026-05-05T17:26:20.742Z</time>
      </trkpt>
      <trkpt lat="43.579911" lon="10.661147">
        <ele>70.440570</ele>
        <time>2026-05-05T17:26:45.249Z</time>
      </trkpt>
      <trkpt lat="43.579604" lon="10.661247">
        <ele>72.648870</ele>
        <time>2026-05-05T17:27:10.810Z</time>
      </trkpt>
      <trkpt lat="43.579380" lon="10.661137">
        <ele>74.313345</ele>
        <time>2026-05-05T17:27:31.846Z</time>
      </trkpt>
      <trkpt lat="43.579173" lon="10.661104">
        <ele>75.772163</ele>
        <time>2026-05-05T17:27:50.985Z</time>
      </trkpt>
      <trkpt lat="43.579006" lon="10.661180">
        <ele>77.012966</ele>
        <time>2026-05-05T17:28:07.638Z</time>
      </trkpt>
      <trkpt lat="43.578896" lon="10.661267">
        <ele>77.908031</ele>
        <time>2026-05-05T17:28:19.642Z</time>
      </trkpt>
      <trkpt lat="43.578478" lon="10.661400">
        <ele>80.936582</ele>
        <time>2026-05-05T17:28:59.852Z</time>
      </trkpt>
      <trkpt lat="43.578039" lon="10.661607">
        <ele>84.211852</ele>
        <time>2026-05-05T17:29:39.725Z</time>
      </trkpt>
      <trkpt lat="43.577771" lon="10.661790">
        <ele>86.322835</ele>
        <time>2026-05-05T17:30:03.255Z</time>
      </trkpt>
      <trkpt lat="43.577398" lon="10.661986">
        <ele>88.571777</ele>
        <time>2026-05-05T17:30:29.159Z</time>
      </trkpt>
      <trkpt lat="43.576967" lon="10.662100">
        <ele>88.683806</ele>
        <time>2026-05-05T17:30:49.603Z</time>
      </trkpt>
      <trkpt lat="43.576691" lon="10.662003">
        <ele>88.756512</ele>
        <time>2026-05-05T17:31:00.381Z</time>
      </trkpt>
      <trkpt lat="43.576422" lon="10.662004">
        <ele>88.825184</ele>
        <time>2026-05-05T17:31:10.030Z</time>
      </trkpt>
      <trkpt lat="43.576584" lon="10.661773">
        <ele>88.884644</ele>
        <time>2026-05-05T17:31:14.993Z</time>
      </trkpt>
      <trkpt lat="43.576666" lon="10.661608">
        <ele>88.921649</ele>
        <time>2026-05-05T17:31:18.084Z</time>
      </trkpt>
      <trkpt lat="43.577051" lon="10.660659">
        <ele>87.765706</ele>
        <time>2026-05-05T17:31:33.675Z</time>
      </trkpt>
      <trkpt lat="43.577154" lon="10.660406">
        <ele>87.175947</ele>
        <time>2026-05-05T17:31:37.795Z</time>
      </trkpt>
      <trkpt lat="43.577215" lon="10.660249">
        <ele>86.813909</ele>
        <time>2026-05-05T17:31:40.355Z</time>
      </trkpt>
      <trkpt lat="43.577355" lon="10.660006">
        <ele>86.182974</ele>
        <time>2026-05-05T17:31:44.728Z</time>
      </trkpt>
      <trkpt lat="43.577563" lon="10.659762">
        <ele>85.417276</ele>
        <time>2026-05-05T17:31:49.967Z</time>
      </trkpt>
      <trkpt lat="43.577786" lon="10.659692">
        <ele>84.775764</ele>
        <time>2026-05-05T17:31:54.244Z</time>
      </trkpt>
      <trkpt lat="43.578499" lon="10.659748">
        <ele>81.027064</ele>
        <time>2026-05-05T17:32:06.451Z</time>
      </trkpt>
      <trkpt lat="43.578784" lon="10.659557">
        <ele>78.836757</ele>
        <time>2026-05-05T17:32:15.245Z</time>
      </trkpt>
      <trkpt lat="43.578932" lon="10.659399">
        <ele>77.543254</ele>
        <time>2026-05-05T17:32:20.335Z</time>
      </trkpt>
      <trkpt lat="43.579162" lon="10.657688">
        <ele>69.488706</ele>
        <time>2026-05-05T17:32:53.624Z</time>
      </trkpt>
      <trkpt lat="43.579403" lon="10.656890">
        <ele>66.218201</ele>
        <time>2026-05-05T17:33:10.929Z</time>
      </trkpt>
      <trkpt lat="43.579440" lon="10.656567">
        <ele>64.981173</ele>
        <time>2026-05-05T17:33:17.964Z</time>
      </trkpt>
      <trkpt lat="43.579268" lon="10.656094">
        <ele>62.979131</ele>
        <time>2026-05-05T17:33:30.156Z</time>
      </trkpt>
      <trkpt lat="43.579210" lon="10.655779">
        <ele>62.052491</ele>
        <time>2026-05-05T17:33:38.207Z</time>
      </trkpt>
      <trkpt lat="43.579195" lon="10.655143">
        <ele>61.527819</ele>
        <time>2026-05-05T17:33:55.178Z</time>
      </trkpt>
      <trkpt lat="43.579384" lon="10.654540">
        <ele>60.986094</ele>
        <time>2026-05-05T17:34:13.561Z</time>
      </trkpt>
      <trkpt lat="43.579549" lon="10.654171">
        <ele>60.628555</ele>
        <time>2026-05-05T17:34:25.098Z</time>
      </trkpt>
      <trkpt lat="43.579749" lon="10.654030">
        <ele>60.372951</ele>
        <time>2026-05-05T17:34:32.882Z</time>
      </trkpt>
      <trkpt lat="43.580121" lon="10.653702">
        <ele>59.274805</ele>
        <time>2026-05-05T17:34:47.361Z</time>
      </trkpt>
      <trkpt lat="43.581038" lon="10.652841">
        <ele>54.581586</ele>
        <time>2026-05-05T17:35:20.599Z</time>
      </trkpt>
      <trkpt lat="43.581326" lon="10.652516">
        <ele>53.007396</ele>
        <time>2026-05-05T17:35:31.062Z</time>
      </trkpt>
      <trkpt lat="43.581531" lon="10.652191">
        <ele>51.575519</ele>
        <time>2026-05-05T17:35:39.695Z</time>
      </trkpt>
      <trkpt lat="43.581623" lon="10.651777">
        <ele>50.062231</ele>
        <time>2026-05-05T17:35:48.293Z</time>
      </trkpt>
      <trkpt lat="43.581462" lon="10.651454">
        <ele>48.692089</ele>
        <time>2026-05-05T17:35:52.895Z</time>
      </trkpt>
      <trkpt lat="43.581144" lon="10.650697">
        <ele>45.634078</ele>
        <time>2026-05-05T17:36:03.432Z</time>
      </trkpt>
      <trkpt lat="43.580894" lon="10.649850">
        <ele>44.595819</ele>
        <time>2026-05-05T17:36:16.134Z</time>
      </trkpt>
      <trkpt lat="43.579913" lon="10.646257">
        <ele>54.903929</ele>
        <time>2026-05-05T17:38:37.988Z</time>
      </trkpt>
      <trkpt lat="43.579595" lon="10.645808">
        <ele>57.076986</ele>
        <time>2026-05-05T17:39:06.757Z</time>
      </trkpt>
      <trkpt lat="43.579590" lon="10.645801">
        <ele>57.111006</ele>
        <time>2026-05-05T17:39:07.227Z</time>
      </trkpt>
      <trkpt lat="43.579453" lon="10.645491">
        <ele>57.293071</ele>
        <time>2026-05-05T17:39:22.438Z</time>
      </trkpt>
      <trkpt lat="43.579314" lon="10.645071">
        <ele>57.018024</ele>
        <time>2026-05-05T17:39:37.706Z</time>
      </trkpt>
      <trkpt lat="43.579111" lon="10.644742">
        <ele>56.760601</ele>
        <time>2026-05-05T17:39:47.642Z</time>
      </trkpt>
      <trkpt lat="43.578955" lon="10.644569">
        <ele>56.596063</ele>
        <time>2026-05-05T17:39:52.130Z</time>
      </trkpt>
      <trkpt lat="43.578950" lon="10.644322">
        <ele>56.448877</ele>
        <time>2026-05-05T17:39:55.320Z</time>
      </trkpt>
      <trkpt lat="43.578878" lon="10.643788">
        <ele>56.125332</ele>
        <time>2026-05-05T17:40:01.597Z</time>
      </trkpt>
      <trkpt lat="43.578831" lon="10.643561">
        <ele>55.984702</ele>
        <time>2026-05-05T17:40:04.197Z</time>
      </trkpt>
      <trkpt lat="43.578717" lon="10.643200">
        <ele>53.980870</ele>
        <time>2026-05-05T17:40:08.433Z</time>
      </trkpt>
      <trkpt lat="43.578518" lon="10.642844">
        <ele>51.576535</ele>
        <time>2026-05-05T17:40:13.163Z</time>
      </trkpt>
      <trkpt lat="43.578310" lon="10.642599">
        <ele>49.558340</ele>
        <time>2026-05-05T17:40:17.145Z</time>
      </trkpt>
      <trkpt lat="43.578086" lon="10.642454">
        <ele>47.732240</ele>
        <time>2026-05-05T17:40:20.781Z</time>
      </trkpt>
      <trkpt lat="43.577014" lon="10.641947">
        <ele>41.107858</ele>
        <time>2026-05-05T17:40:38.125Z</time>
      </trkpt>
      <trkpt lat="43.576958" lon="10.641904">
        <ele>40.882112</ele>
        <time>2026-05-05T17:40:39.166Z</time>
      </trkpt>
      <trkpt lat="43.576774" lon="10.641761">
        <ele>40.138239</ele>
        <time>2026-05-05T17:40:42.658Z</time>
      </trkpt>
      <trkpt lat="43.576582" lon="10.641538">
        <ele>39.254279</ele>
        <time>2026-05-05T17:40:46.924Z</time>
      </trkpt>
      <trkpt lat="43.576388" lon="10.641193">
        <ele>38.139689</ele>
        <time>2026-05-05T17:40:52.492Z</time>
      </trkpt>
      <trkpt lat="43.576266" lon="10.640823">
        <ele>37.102199</ele>
        <time>2026-05-05T17:40:58.024Z</time>
      </trkpt>
      <trkpt lat="43.576227" lon="10.640587">
        <ele>36.484427</ele>
        <time>2026-05-05T17:41:01.607Z</time>
      </trkpt>
      <trkpt lat="43.576181" lon="10.639788">
        <ele>36.424633</ele>
        <time>2026-05-05T17:41:15.978Z</time>
      </trkpt>
      <trkpt lat="43.576176" lon="10.639677">
        <ele>36.434192</ele>
        <time>2026-05-05T17:41:18.165Z</time>
      </trkpt>
      <trkpt lat="43.576127" lon="10.638816">
        <ele>36.508423</ele>
        <time>2026-05-05T17:41:34.511Z</time>
      </trkpt>
      <trkpt lat="43.576026" lon="10.638353">
        <ele>36.549982</ele>
        <time>2026-05-05T17:41:43.349Z</time>
      </trkpt>
      <trkpt lat="43.575930" lon="10.638154">
        <ele>36.570532</ele>
        <time>2026-05-05T17:41:47.635Z</time>
      </trkpt>
      <trkpt lat="43.575789" lon="10.637968">
        <ele>36.545297</ele>
        <time>2026-05-05T17:41:52.294Z</time>
      </trkpt>
      <trkpt lat="43.575636" lon="10.637813">
        <ele>36.514274</ele>
        <time>2026-05-05T17:41:56.641Z</time>
      </trkpt>
      <trkpt lat="43.575430" lon="10.637683">
        <ele>36.477250</ele>
        <time>2026-05-05T17:42:01.700Z</time>
      </trkpt>
      <trkpt lat="43.575216" lon="10.637611">
        <ele>36.441245</ele>
        <time>2026-05-05T17:42:06.370Z</time>
      </trkpt>
      <trkpt lat="43.574891" lon="10.637553">
        <ele>36.387679</ele>
        <time>2026-05-05T17:42:13.066Z</time>
      </trkpt>
      <trkpt lat="43.573529" lon="10.637346">
        <ele>36.435200</ele>
        <time>2026-05-05T17:42:45.399Z</time>
      </trkpt>
      <trkpt lat="43.573504" lon="10.637335">
        <ele>36.440983</ele>
        <time>2026-05-05T17:42:46.110Z</time>
      </trkpt>
      <trkpt lat="43.573278" lon="10.637227">
        <ele>36.493689</ele>
        <time>2026-05-05T17:42:52.863Z</time>
      </trkpt>
      <trkpt lat="43.573146" lon="10.637119">
        <ele>36.527505</ele>
        <time>2026-05-05T17:42:57.183Z</time>
      </trkpt>
      <trkpt lat="43.572972" lon="10.636913">
        <ele>36.578024</ele>
        <time>2026-05-05T17:43:03.165Z</time>
      </trkpt>
      <trkpt lat="43.572850" lon="10.636681">
        <ele>36.623794</ele>
        <time>2026-05-05T17:43:08.279Z</time>
      </trkpt>
      <trkpt lat="43.572827" lon="10.636639">
        <ele>36.632200</ele>
        <time>2026-05-05T17:43:09.146Z</time>
      </trkpt>
      <trkpt lat="43.572701" lon="10.636189">
        <ele>36.602101</ele>
        <time>2026-05-05T17:43:16.935Z</time>
      </trkpt>
      <trkpt lat="43.572675" lon="10.635913">
        <ele>36.504550</ele>
        <time>2026-05-05T17:43:21.218Z</time>
      </trkpt>
      <trkpt lat="43.572685" lon="10.635766">
        <ele>36.452801</ele>
        <time>2026-05-05T17:43:23.397Z</time>
      </trkpt>
      <trkpt lat="43.572910" lon="10.634324">
        <ele>35.935803</ele>
        <time>2026-05-05T17:43:45.280Z</time>
      </trkpt>
      <trkpt lat="43.570726" lon="10.633726">
        <ele>36.277045</ele>
        <time>2026-05-05T17:44:40.302Z</time>
      </trkpt>
      <trkpt lat="43.570324" lon="10.633684">
        <ele>36.486239</ele>
        <time>2026-05-05T17:44:50.704Z</time>
      </trkpt>
      <trkpt lat="43.568283" lon="10.633634">
        <ele>37.822298</ele>
        <time>2026-05-05T17:45:44.392Z</time>
      </trkpt>
      <trkpt lat="43.567573" lon="10.633813">
        <ele>38.445148</ele>
        <time>2026-05-05T17:46:05.711Z</time>
      </trkpt>
      <trkpt lat="43.566647" lon="10.634042">
        <ele>39.185779</ele>
        <time>2026-05-05T17:46:34.348Z</time>
      </trkpt>
      <trkpt lat="43.566608" lon="10.633974">
        <ele>39.233312</ele>
        <time>2026-05-05T17:46:36.227Z</time>
      </trkpt>
      <trkpt lat="43.566514" lon="10.633918">
        <ele>39.310758</ele>
        <time>2026-05-05T17:46:39.313Z</time>
      </trkpt>
      <trkpt lat="43.565988" lon="10.633972">
        <ele>39.709742</ele>
        <time>2026-05-05T17:46:54.282Z</time>
      </trkpt>
      <trkpt lat="43.565792" lon="10.633942">
        <ele>39.858912</ele>
        <time>2026-05-05T17:46:59.560Z</time>
      </trkpt>
      <trkpt lat="43.565425" lon="10.633740">
        <ele>40.047667</ele>
        <time>2026-05-05T17:47:09.523Z</time>
      </trkpt>
      <trkpt lat="43.565191" lon="10.633475">
        <ele>40.061216</ele>
        <time>2026-05-05T17:47:16.730Z</time>
      </trkpt>
      <trkpt lat="43.564833" lon="10.633270">
        <ele>40.078566</ele>
        <time>2026-05-05T17:47:25.806Z</time>
      </trkpt>
      <trkpt lat="43.564405" lon="10.633225">
        <ele>40.097779</ele>
        <time>2026-05-05T17:47:35.990Z</time>
      </trkpt>
      <trkpt lat="43.564392" lon="10.633252">
        <ele>40.098830</ele>
        <time>2026-05-05T17:47:36.561Z</time>
      </trkpt>
      <trkpt lat="43.564068" lon="10.633213">
        <ele>40.113388</ele>
        <time>2026-05-05T17:47:48.995Z</time>
      </trkpt>
      <trkpt lat="43.563659" lon="10.633054">
        <ele>40.237888</ele>
        <time>2026-05-05T17:48:05.903Z</time>
      </trkpt>
      <trkpt lat="43.562567" lon="10.632699">
        <ele>40.762859</ele>
        <time>2026-05-05T17:48:52.844Z</time>
      </trkpt>
      <trkpt lat="43.562051" lon="10.632422">
        <ele>40.976736</ele>
        <time>2026-05-05T17:49:15.601Z</time>
      </trkpt>
      <trkpt lat="43.561469" lon="10.632237">
        <ele>41.042233</ele>
        <time>2026-05-05T17:49:39.304Z</time>
      </trkpt>
      <trkpt lat="43.560880" lon="10.631992">
        <ele>41.109697</ele>
        <time>2026-05-05T17:50:02.931Z</time>
      </trkpt>
      <trkpt lat="43.560685" lon="10.631960">
        <ele>41.131233</ele>
        <time>2026-05-05T17:50:10.362Z</time>
      </trkpt>
      <trkpt lat="43.560207" lon="10.632081">
        <ele>41.089844</ele>
        <time>2026-05-05T17:50:28.752Z</time>
      </trkpt>
      <trkpt lat="43.560159" lon="10.632086">
        <ele>41.074619</ele>
        <time>2026-05-05T17:50:30.566Z</time>
      </trkpt>
      <trkpt lat="43.559835" lon="10.632122">
        <ele>40.971813</ele>
        <time>2026-05-05T17:50:42.614Z</time>
      </trkpt>
      <trkpt lat="43.559562" lon="10.632464">
        <ele>40.855196</ele>
        <time>2026-05-05T17:50:55.981Z</time>
      </trkpt>
      <trkpt lat="43.559322" lon="10.632626">
        <ele>40.770694</ele>
        <time>2026-05-05T17:51:05.615Z</time>
      </trkpt>
      <trkpt lat="43.559135" lon="10.632664">
        <ele>40.710912</ele>
        <time>2026-05-05T17:51:12.484Z</time>
      </trkpt>
      <trkpt lat="43.558957" lon="10.632696">
        <ele>40.654138</ele>
        <time>2026-05-05T17:51:19.087Z</time>
      </trkpt>
      <trkpt lat="43.558460" lon="10.632626">
        <ele>40.814594</ele>
        <time>2026-05-05T17:51:37.928Z</time>
      </trkpt>
      <trkpt lat="43.558303" lon="10.632521">
        <ele>40.944113</ele>
        <time>2026-05-05T17:51:44.716Z</time>
      </trkpt>
      <trkpt lat="43.558127" lon="10.632527">
        <ele>41.074809</ele>
        <time>2026-05-05T17:51:51.677Z</time>
      </trkpt>
      <trkpt lat="43.557667" lon="10.632664">
        <ele>41.424159</ele>
        <time>2026-05-05T17:52:11.447Z</time>
      </trkpt>
      <trkpt lat="43.556785" lon="10.633216">
        <ele>42.667049</ele>
        <time>2026-05-05T17:52:57.147Z</time>
      </trkpt>
      <trkpt lat="43.556465" lon="10.633585">
        <ele>43.725481</ele>
        <time>2026-05-05T17:53:18.255Z</time>
      </trkpt>
      <trkpt lat="43.556331" lon="10.633707">
        <ele>44.132940</ele>
        <time>2026-05-05T17:53:26.704Z</time>
      </trkpt>
      <trkpt lat="43.555718" lon="10.634066">
        <ele>45.823098</ele>
        <time>2026-05-05T17:54:02.186Z</time>
      </trkpt>
      <trkpt lat="43.555378" lon="10.634314">
        <ele>47.258652</ele>
        <time>2026-05-05T17:54:25.306Z</time>
      </trkpt>
      <trkpt lat="43.555485" lon="10.634571">
        <ele>48.618155</ele>
        <time>2026-05-05T17:54:35.930Z</time>
      </trkpt>
      <trkpt lat="43.555213" lon="10.634644">
        <ele>50.371966</ele>
        <time>2026-05-05T17:54:54.653Z</time>
      </trkpt>
      <trkpt lat="43.554726" lon="10.634609">
        <ele>53.458477</ele>
        <time>2026-05-05T17:55:31.137Z</time>
      </trkpt>
      <trkpt lat="43.554450" lon="10.634608">
        <ele>55.205350</ele>
        <time>2026-05-05T17:55:53.602Z</time>
      </trkpt>
      <trkpt lat="43.554220" lon="10.634655">
        <ele>56.676950</ele>
        <time>2026-05-05T17:56:13.989Z</time>
      </trkpt>
      <trkpt lat="43.554173" lon="10.634702">
        <ele>57.044329</ele>
        <time>2026-05-05T17:56:19.301Z</time>
      </trkpt>
      <trkpt lat="43.553622" lon="10.634638">
        <ele>62.192959</ele>
        <time>2026-05-05T17:57:11.955Z</time>
      </trkpt>
      <trkpt lat="43.553035" lon="10.634954">
        <ele>68.645223</ele>
        <time>2026-05-05T17:58:16.133Z</time>
      </trkpt>
      <trkpt lat="43.552584" lon="10.635133">
        <ele>73.450807</ele>
        <time>2026-05-05T17:59:06.178Z</time>
      </trkpt>
      <trkpt lat="43.552143" lon="10.635370">
        <ele>77.740375</ele>
        <time>2026-05-05T17:59:56.295Z</time>
      </trkpt>
      <trkpt lat="43.551601" lon="10.635965">
        <ele>82.861450</ele>
        <time>2026-05-05T18:01:00.445Z</time>
      </trkpt>
      <trkpt lat="43.551570" lon="10.636099">
        <ele>83.615207</ele>
        <time>2026-05-05T18:01:08.781Z</time>
      </trkpt>
      <trkpt lat="43.551382" lon="10.636537">
        <ele>86.343045</ele>
        <time>2026-05-05T18:01:36.940Z</time>
      </trkpt>
      <trkpt lat="43.551014" lon="10.637144">
        <ele>89.943611</ele>
        <time>2026-05-05T18:02:13.115Z</time>
      </trkpt>
      <trkpt lat="43.550128" lon="10.637190">
        <ele>92.264235</ele>
        <time>2026-05-05T18:03:02.113Z</time>
      </trkpt>
      <trkpt lat="43.549520" lon="10.637384">
        <ele>93.897592</ele>
        <time>2026-05-05T18:03:33.372Z</time>
      </trkpt>
      <trkpt lat="43.549210" lon="10.637445">
        <ele>94.902271</ele>
        <time>2026-05-05T18:03:46.412Z</time>
      </trkpt>
      <trkpt lat="43.549011" lon="10.637448">
        <ele>95.654543</ele>
        <time>2026-05-05T18:03:55.121Z</time>
      </trkpt>
      <trkpt lat="43.548466" lon="10.637794">
        <ele>97.922294</ele>
        <time>2026-05-05T18:04:26.093Z</time>
      </trkpt>
      <trkpt lat="43.548317" lon="10.638004">
        <ele>98.727431</ele>
        <time>2026-05-05T18:04:38.739Z</time>
      </trkpt>
      <trkpt lat="43.548282" lon="10.638249">
        <ele>99.411583</ele>
        <time>2026-05-05T18:04:50.361Z</time>
      </trkpt>
      <trkpt lat="43.548255" lon="10.638556">
        <ele>100.258855</ele>
        <time>2026-05-05T18:05:06.110Z</time>
      </trkpt>
      <trkpt lat="43.548257" lon="10.638912">
        <ele>101.392667</ele>
        <time>2026-05-05T18:05:26.833Z</time>
      </trkpt>
      <trkpt lat="43.548383" lon="10.639285">
        <ele>103.845513</ele>
        <time>2026-05-05T18:05:54.052Z</time>
      </trkpt>
      <trkpt lat="43.548392" lon="10.639572">
        <ele>105.557755</ele>
        <time>2026-05-05T18:06:15.191Z</time>
      </trkpt>
      <trkpt lat="43.548357" lon="10.639781">
        <ele>106.836302</ele>
        <time>2026-05-05T18:06:31.519Z</time>
      </trkpt>
      <trkpt lat="43.548201" lon="10.639950">
        <ele>108.467398</ele>
        <time>2026-05-05T18:06:52.192Z</time>
      </trkpt>
      <trkpt lat="43.547938" lon="10.639876">
        <ele>110.674728</ele>
        <time>2026-05-05T18:07:19.213Z</time>
      </trkpt>
      <trkpt lat="43.547797" lon="10.639905">
        <ele>111.847072</ele>
        <time>2026-05-05T18:07:32.794Z</time>
      </trkpt>
      <trkpt lat="43.547554" lon="10.640095">
        <ele>114.144005</ele>
        <time>2026-05-05T18:07:57.158Z</time>
      </trkpt>
      <trkpt lat="43.546817" lon="10.640487">
        <ele>115.799162</ele>
        <time>2026-05-05T18:08:48.770Z</time>
      </trkpt>
      <trkpt lat="43.546787" lon="10.640511">
        <ele>115.793657</ele>
        <time>2026-05-05T18:08:50.316Z</time>
      </trkpt>
      <trkpt lat="43.546347" lon="10.640864">
        <ele>115.712865</ele>
        <time>2026-05-05T18:09:08.781Z</time>
      </trkpt>
      <trkpt lat="43.545947" lon="10.641217">
        <ele>115.637494</ele>
        <time>2026-05-05T18:09:23.199Z</time>
      </trkpt>
      <trkpt lat="43.545738" lon="10.641402">
        <ele>115.302133</ele>
        <time>2026-05-05T18:09:30.240Z</time>
      </trkpt>
      <trkpt lat="43.545483" lon="10.641464">
        <ele>113.581468</ele>
        <time>2026-05-05T18:09:37.459Z</time>
      </trkpt>
      <trkpt lat="43.545179" lon="10.641481">
        <ele>111.559638</ele>
        <time>2026-05-05T18:09:45.800Z</time>
      </trkpt>
      <trkpt lat="43.544461" lon="10.641692">
        <ele>106.681268</ele>
        <time>2026-05-05T18:10:06.415Z</time>
      </trkpt>
      <trkpt lat="43.544171" lon="10.641667">
        <ele>104.750372</ele>
        <time>2026-05-05T18:10:14.191Z</time>
      </trkpt>
      <trkpt lat="43.544003" lon="10.641901">
        <ele>102.781131</ele>
        <time>2026-05-05T18:10:20.630Z</time>
      </trkpt>
      <trkpt lat="43.543768" lon="10.642376">
        <ele>97.841888</ele>
        <time>2026-05-05T18:10:31.378Z</time>
      </trkpt>
      <trkpt lat="43.543642" lon="10.642685">
        <ele>94.796902</ele>
        <time>2026-05-05T18:10:38.057Z</time>
      </trkpt>
      <trkpt lat="43.543642" lon="10.642685">
        <ele>94.796902</ele>
        <time>2026-05-05T18:10:38.222Z</time>
      </trkpt>
      <trkpt lat="43.543642" lon="10.642685">
        <ele>94.796902</ele>
        <time>2026-05-05T18:10:38.222Z</time>
      </trkpt>
      <trkpt lat="43.542969" lon="10.641889">
        <ele>84.293233</ele>
        <time>2026-05-05T18:11:16.399Z</time>
      </trkpt>
      <trkpt lat="43.542632" lon="10.641491">
        <ele>79.190197</ele>
        <time>2026-05-05T18:11:35.553Z</time>
      </trkpt>
      <trkpt lat="43.542296" lon="10.641093">
        <ele>74.186309</ele>
        <time>2026-05-05T18:11:54.641Z</time>
      </trkpt>
      <trkpt lat="43.542422" lon="10.640831">
        <ele>71.611138</ele>
        <time>2026-05-05T18:11:59.018Z</time>
      </trkpt>
      <trkpt lat="43.542428" lon="10.640819">
        <ele>71.491741</ele>
        <time>2026-05-05T18:11:59.266Z</time>
      </trkpt>
      <trkpt lat="43.542435" lon="10.640570">
        <ele>69.450837</ele>
        <time>2026-05-05T18:12:02.762Z</time>
      </trkpt>
      <trkpt lat="43.542436" lon="10.640551">
        <ele>69.294813</ele>
        <time>2026-05-05T18:12:03.027Z</time>
      </trkpt>
      <trkpt lat="43.542369" lon="10.640369">
        <ele>67.622969</ele>
        <time>2026-05-05T18:12:05.909Z</time>
      </trkpt>
      <trkpt lat="43.542143" lon="10.639902">
        <ele>63.024027</ele>
        <time>2026-05-05T18:12:13.972Z</time>
      </trkpt>
      <trkpt lat="43.542047" lon="10.639718">
        <ele>61.746087</ele>
        <time>2026-05-05T18:12:17.372Z</time>
      </trkpt>
      <trkpt lat="43.542047" lon="10.639718">
        <ele>61.746087</ele>
        <time>2026-05-05T18:12:17.414Z</time>
      </trkpt>
      <trkpt lat="43.542047" lon="10.639718">
        <ele>61.746087</ele>
        <time>2026-05-05T18:12:17.414Z</time>
      </trkpt>
      <trkpt lat="43.541394" lon="10.639261">
        <ele>59.100732</ele>
        <time>2026-05-05T18:12:48.774Z</time>
      </trkpt>
      <trkpt lat="43.541394" lon="10.639261">
        <ele>59.100732</ele>
        <time>2026-05-05T18:12:48.794Z</time>
      </trkpt>
      <trkpt lat="43.540907" lon="10.640157">
        <ele>56.167895</ele>
        <time>2026-05-05T18:13:23.518Z</time>
      </trkpt>
      <trkpt lat="43.540419" lon="10.641053">
        <ele>56.820881</ele>
        <time>2026-05-05T18:13:58.263Z</time>
      </trkpt>
      <trkpt lat="43.539932" lon="10.641949">
        <ele>58.488940</ele>
        <time>2026-05-05T18:14:32.991Z</time>
      </trkpt>
      <trkpt lat="43.539445" lon="10.642845">
        <ele>60.213264</ele>
        <time>2026-05-05T18:15:07.741Z</time>
      </trkpt>
      <trkpt lat="43.538958" lon="10.643741">
        <ele>61.981046</ele>
        <time>2026-05-05T18:15:42.469Z</time>
      </trkpt>
      <trkpt lat="43.538470" lon="10.644637">
        <ele>62.993772</ele>
        <time>2026-05-05T18:16:17.214Z</time>
      </trkpt>
      <trkpt lat="43.537983" lon="10.645533">
        <ele>62.596630</ele>
        <time>2026-05-05T18:16:51.937Z</time>
      </trkpt>
      <trkpt lat="43.537496" lon="10.646429">
        <ele>62.208005</ele>
        <time>2026-05-05T18:17:26.656Z</time>
      </trkpt>
      <trkpt lat="43.536749" lon="10.646502">
        <ele>61.900388</ele>
        <time>2026-05-05T18:17:58.683Z</time>
      </trkpt>
      <trkpt lat="43.536002" lon="10.646575">
        <ele>61.592771</ele>
        <time>2026-05-05T18:18:30.712Z</time>
      </trkpt>
      <trkpt lat="43.535256" lon="10.646648">
        <ele>60.893397</ele>
        <time>2026-05-05T18:19:02.698Z</time>
      </trkpt>
      <trkpt lat="43.534509" lon="10.646721">
        <ele>60.057196</ele>
        <time>2026-05-05T18:19:34.728Z</time>
      </trkpt>
      <trkpt lat="43.534288" lon="10.646804">
        <ele>59.801441</ele>
        <time>2026-05-05T18:19:39.718Z</time>
      </trkpt>
      <trkpt lat="43.533598" lon="10.647009">
        <ele>59.649777</ele>
        <time>2026-05-05T18:19:56.408Z</time>
      </trkpt>
      <trkpt lat="43.533169" lon="10.647102">
        <ele>59.792046</ele>
        <time>2026-05-05T18:20:07.314Z</time>
      </trkpt>
      <trkpt lat="43.532468" lon="10.647160">
        <ele>60.022111</ele>
        <time>2026-05-05T18:20:26.831Z</time>
      </trkpt>
      <trkpt lat="43.532233" lon="10.647212">
        <ele>60.120913</ele>
        <time>2026-05-05T18:20:33.915Z</time>
      </trkpt>
      <trkpt lat="43.531874" lon="10.647372">
        <ele>60.718253</ele>
        <time>2026-05-05T18:20:45.452Z</time>
      </trkpt>
      <trkpt lat="43.531637" lon="10.647580">
        <ele>61.163014</ele>
        <time>2026-05-05T18:20:54.421Z</time>
      </trkpt>
      <trkpt lat="43.531340" lon="10.648098">
        <ele>61.921091</ele>
        <time>2026-05-05T18:21:10.658Z</time>
      </trkpt>
      <trkpt lat="43.531146" lon="10.648326">
        <ele>62.324630</ele>
        <time>2026-05-05T18:21:19.927Z</time>
      </trkpt>
      <trkpt lat="43.530597" lon="10.648805">
        <ele>63.225703</ele>
        <time>2026-05-05T18:21:44.798Z</time>
      </trkpt>
      <trkpt lat="43.530352" lon="10.648911">
        <ele>63.506080</ele>
        <time>2026-05-05T18:21:54.540Z</time>
      </trkpt>
      <trkpt lat="43.530261" lon="10.648915">
        <ele>63.605497</ele>
        <time>2026-05-05T18:21:57.815Z</time>
      </trkpt>
      <trkpt lat="43.530146" lon="10.648889">
        <ele>63.732746</ele>
        <time>2026-05-05T18:22:01.884Z</time>
      </trkpt>
      <trkpt lat="43.529711" lon="10.648638">
        <ele>64.247628</ele>
        <time>2026-05-05T18:22:16.824Z</time>
      </trkpt>
      <trkpt lat="43.529489" lon="10.648452">
        <ele>64.531257</ele>
        <time>2026-05-05T18:22:24.011Z</time>
      </trkpt>
      <trkpt lat="43.528771" lon="10.647717">
        <ele>64.286254</ele>
        <time>2026-05-05T18:22:44.037Z</time>
      </trkpt>
      <trkpt lat="43.528275" lon="10.647409">
        <ele>63.673492</ele>
        <time>2026-05-05T18:22:55.252Z</time>
      </trkpt>
      <trkpt lat="43.528050" lon="10.647353">
        <ele>63.415935</ele>
        <time>2026-05-05T18:22:59.942Z</time>
      </trkpt>
      <trkpt lat="43.527613" lon="10.647329">
        <ele>62.923264</ele>
        <time>2026-05-05T18:23:08.855Z</time>
      </trkpt>
      <trkpt lat="43.527304" lon="10.647362">
        <ele>63.000822</ele>
        <time>2026-05-05T18:23:15.182Z</time>
      </trkpt>
      <trkpt lat="43.526915" lon="10.647463">
        <ele>63.176407</ele>
        <time>2026-05-05T18:23:23.527Z</time>
      </trkpt>
      <trkpt lat="43.526658" lon="10.647570">
        <ele>63.295489</ele>
        <time>2026-05-05T18:23:29.798Z</time>
      </trkpt>
      <trkpt lat="43.526458" lon="10.647720">
        <ele>63.396475</ele>
        <time>2026-05-05T18:23:36.297Z</time>
      </trkpt>
      <trkpt lat="43.525977" lon="10.648180">
        <ele>63.656114</ele>
        <time>2026-05-05T18:23:58.442Z</time>
      </trkpt>
      <trkpt lat="43.526128" lon="10.649105">
        <ele>65.139420</ele>
        <time>2026-05-05T18:24:37.506Z</time>
      </trkpt>
      <trkpt lat="43.526103" lon="10.649213">
        <ele>65.327738</ele>
        <time>2026-05-05T18:24:41.911Z</time>
      </trkpt>
      <trkpt lat="43.526060" lon="10.649266">
        <ele>65.459855</ele>
        <time>2026-05-05T18:24:45.073Z</time>
      </trkpt>
      <trkpt lat="43.525952" lon="10.649257">
        <ele>65.707729</ele>
        <time>2026-05-05T18:24:50.787Z</time>
      </trkpt>
      <trkpt lat="43.525609" lon="10.648952">
        <ele>66.642691</ele>
        <time>2026-05-05T18:25:12.022Z</time>
      </trkpt>
      <trkpt lat="43.525198" lon="10.648485">
        <ele>67.899948</ele>
        <time>2026-05-05T18:25:36.967Z</time>
      </trkpt>
      <trkpt lat="43.525092" lon="10.648476">
        <ele>68.285121</ele>
        <time>2026-05-05T18:25:41.675Z</time>
      </trkpt>
      <trkpt lat="43.525011" lon="10.648513">
        <ele>68.594588</ele>
        <time>2026-05-05T18:25:45.467Z</time>
      </trkpt>
      <trkpt lat="43.524925" lon="10.648639">
        <ele>69.049645</ele>
        <time>2026-05-05T18:25:51.206Z</time>
      </trkpt>
      <trkpt lat="43.524913" lon="10.648810">
        <ele>69.501430</ele>
        <time>2026-05-05T18:25:57.174Z</time>
      </trkpt>
      <trkpt lat="43.524942" lon="10.648946">
        <ele>69.874218</ele>
        <time>2026-05-05T18:26:02.312Z</time>
      </trkpt>
      <trkpt lat="43.525300" lon="10.649897">
        <ele>72.692052</ele>
        <time>2026-05-05T18:26:49.606Z</time>
      </trkpt>
      <trkpt lat="43.525372" lon="10.650060">
        <ele>73.193973</ele>
        <time>2026-05-05T18:26:59.654Z</time>
      </trkpt>
      <trkpt lat="43.525460" lon="10.650176">
        <ele>73.635468</ele>
        <time>2026-05-05T18:27:08.690Z</time>
      </trkpt>
      <trkpt lat="43.525837" lon="10.650332">
        <ele>75.377193</ele>
        <time>2026-05-05T18:27:38.248Z</time>
      </trkpt>
      <trkpt lat="43.525968" lon="10.650455">
        <ele>76.195706</ele>
        <time>2026-05-05T18:27:49.971Z</time>
      </trkpt>
      <trkpt lat="43.526067" lon="10.650598">
        <ele>76.936134</ele>
        <time>2026-05-05T18:28:00.434Z</time>
      </trkpt>
      <trkpt lat="43.526177" lon="10.650940">
        <ele>78.337239</ele>
        <time>2026-05-05T18:28:19.716Z</time>
      </trkpt>
      <trkpt lat="43.526466" lon="10.651330">
        <ele>80.425558</ele>
        <time>2026-05-05T18:28:46.782Z</time>
      </trkpt>
      <trkpt lat="43.526552" lon="10.651497">
        <ele>81.192637</ele>
        <time>2026-05-05T18:28:56.333Z</time>
      </trkpt>
      <trkpt lat="43.526644" lon="10.651804">
        <ele>82.436632</ele>
        <time>2026-05-05T18:29:11.911Z</time>
      </trkpt>
      <trkpt lat="43.526706" lon="10.652293">
        <ele>84.470408</ele>
        <time>2026-05-05T18:29:35.575Z</time>
      </trkpt>
      <trkpt lat="43.526849" lon="10.652694">
        <ele>86.571659</ele>
        <time>2026-05-05T18:29:58.229Z</time>
      </trkpt>
      <trkpt lat="43.526969" lon="10.652865">
        <ele>87.690642</ele>
        <time>2026-05-05T18:30:10.982Z</time>
      </trkpt>
      <trkpt lat="43.527286" lon="10.653129">
        <ele>90.092142</ele>
        <time>2026-05-05T18:30:39.671Z</time>
      </trkpt>
      <trkpt lat="43.527484" lon="10.653180">
        <ele>91.398401</ele>
        <time>2026-05-05T18:30:55.968Z</time>
      </trkpt>
      <trkpt lat="43.528038" lon="10.653130">
        <ele>94.998856</ele>
        <time>2026-05-05T18:31:42.685Z</time>
      </trkpt>
      <trkpt lat="43.528263" lon="10.653197">
        <ele>96.699860</ele>
        <time>2026-05-05T18:32:02.499Z</time>
      </trkpt>
      <trkpt lat="43.528694" lon="10.653595">
        <ele>100.639947</ele>
        <time>2026-05-05T18:32:46.784Z</time>
      </trkpt>
      <trkpt lat="43.529058" lon="10.654003">
        <ele>104.202961</ele>
        <time>2026-05-05T18:33:25.475Z</time>
      </trkpt>
      <trkpt lat="43.529514" lon="10.654833">
        <ele>109.545263</ele>
        <time>2026-05-05T18:34:28.645Z</time>
      </trkpt>
      <trkpt lat="43.529579" lon="10.655011">
        <ele>110.210887</ele>
        <time>2026-05-05T18:34:41.004Z</time>
      </trkpt>
      <trkpt lat="43.529595" lon="10.655408">
        <ele>111.538820</ele>
        <time>2026-05-05T18:35:05.281Z</time>
      </trkpt>
      <trkpt lat="43.529641" lon="10.655785">
        <ele>112.815616</ele>
        <time>2026-05-05T18:35:27.386Z</time>
      </trkpt>
      <trkpt lat="43.529682" lon="10.655889">
        <ele>113.210978</ele>
        <time>2026-05-05T18:35:33.623Z</time>
      </trkpt>
      <trkpt lat="43.529874" lon="10.656389">
        <ele>115.100612</ele>
        <time>2026-05-05T18:36:00.169Z</time>
      </trkpt>
      <trkpt lat="43.529916" lon="10.656937">
        <ele>116.940991</ele>
        <time>2026-05-05T18:36:20.359Z</time>
      </trkpt>
      <trkpt lat="43.529958" lon="10.657184">
        <ele>116.425052</ele>
        <time>2026-05-05T18:36:27.367Z</time>
      </trkpt>
      <trkpt lat="43.529602" lon="10.657035">
        <ele>113.991839</ele>
        <time>2026-05-05T18:36:39.323Z</time>
      </trkpt>
      <trkpt lat="43.529228" lon="10.656680">
        <ele>111.022465</ele>
        <time>2026-05-05T18:36:52.143Z</time>
      </trkpt>
      <trkpt lat="43.529028" lon="10.656619">
        <ele>109.682789</ele>
        <time>2026-05-05T18:36:57.601Z</time>
      </trkpt>
      <trkpt lat="43.528173" lon="10.657409">
        <ele>100.489531</ele>
        <time>2026-05-05T18:37:23.572Z</time>
      </trkpt>
      <trkpt lat="43.527990" lon="10.657611">
        <ele>97.452117</ele>
        <time>2026-05-05T18:37:29.279Z</time>
      </trkpt>
      <trkpt lat="43.527868" lon="10.657947">
        <ele>93.921438</ele>
        <time>2026-05-05T18:37:35.885Z</time>
      </trkpt>
      <trkpt lat="43.527679" lon="10.658253">
        <ele>90.144579</ele>
        <time>2026-05-05T18:37:42.975Z</time>
      </trkpt>
      <trkpt lat="43.527471" lon="10.658485">
        <ele>86.678045</ele>
        <time>2026-05-05T18:37:49.493Z</time>
      </trkpt>
      <trkpt lat="43.527178" lon="10.658653">
        <ele>82.566080</ele>
        <time>2026-05-05T18:37:57.347Z</time>
      </trkpt>
      <trkpt lat="43.527092" lon="10.658796">
        <ele>81.880611</ele>
        <time>2026-05-05T18:38:00.727Z</time>
      </trkpt>
      <trkpt lat="43.527110" lon="10.658984">
        <ele>81.516537</ele>
        <time>2026-05-05T18:38:04.218Z</time>
      </trkpt>
      <trkpt lat="43.527288" lon="10.659369">
        <ele>80.639888</ele>
        <time>2026-05-05T18:38:12.954Z</time>
      </trkpt>
      <trkpt lat="43.527263" lon="10.659467">
        <ele>80.440433</ele>
        <time>2026-05-05T18:38:15.045Z</time>
      </trkpt>
      <trkpt lat="43.526805" lon="10.659813">
        <ele>79.057657</ele>
        <time>2026-05-05T18:38:31.173Z</time>
      </trkpt>
      <trkpt lat="43.526691" lon="10.659838">
        <ele>78.751999</ele>
        <time>2026-05-05T18:38:36.261Z</time>
      </trkpt>
      <trkpt lat="43.526490" lon="10.659704">
        <ele>78.160843</ele>
        <time>2026-05-05T18:38:48.826Z</time>
      </trkpt>
      <trkpt lat="43.526258" lon="10.659645">
        <ele>77.536161</ele>
        <time>2026-05-05T18:39:05.748Z</time>
      </trkpt>
      <trkpt lat="43.525939" lon="10.659739">
        <ele>80.214270</ele>
        <time>2026-05-05T18:39:34.382Z</time>
      </trkpt>
      <trkpt lat="43.524805" lon="10.660163">
        <ele>92.455725</ele>
        <time>2026-05-05T18:41:47.809Z</time>
      </trkpt>
      <trkpt lat="43.523355" lon="10.660795">
        <ele>104.735517</ele>
        <time>2026-05-05T18:44:15.886Z</time>
      </trkpt>
      <trkpt lat="43.523287" lon="10.660909">
        <ele>105.524113</ele>
        <time>2026-05-05T18:44:22.638Z</time>
      </trkpt>
      <trkpt lat="43.523343" lon="10.661901">
        <ele>109.657604</ele>
        <time>2026-05-05T18:45:03.220Z</time>
      </trkpt>
      <trkpt lat="43.523425" lon="10.662294">
        <ele>110.071264</ele>
        <time>2026-05-05T18:45:16.796Z</time>
      </trkpt>
      <trkpt lat="43.523655" lon="10.663145">
        <ele>110.989923</ele>
        <time>2026-05-05T18:45:44.332Z</time>
      </trkpt>
      <trkpt lat="43.523695" lon="10.663403">
        <ele>111.256794</ele>
        <time>2026-05-05T18:45:52.524Z</time>
      </trkpt>
      <trkpt lat="43.523627" lon="10.663624">
        <ele>111.499634</ele>
        <time>2026-05-05T18:46:00.463Z</time>
      </trkpt>
      <trkpt lat="43.523555" lon="10.663754">
        <ele>111.665104</ele>
        <time>2026-05-05T18:46:05.856Z</time>
      </trkpt>
      <trkpt lat="43.523495" lon="10.663994">
        <ele>111.949848</ele>
        <time>2026-05-05T18:46:14.256Z</time>
      </trkpt>
      <trkpt lat="43.523373" lon="10.664316">
        <ele>112.646471</ele>
        <time>2026-05-05T18:46:25.708Z</time>
      </trkpt>
      <trkpt lat="43.523360" lon="10.664492">
        <ele>112.985687</ele>
        <time>2026-05-05T18:46:31.275Z</time>
      </trkpt>
      <trkpt lat="43.523397" lon="10.664667">
        <ele>113.335212</ele>
        <time>2026-05-05T18:46:37.180Z</time>
      </trkpt>
      <trkpt lat="43.523525" lon="10.664996">
        <ele>114.051122</ele>
        <time>2026-05-05T18:46:50.055Z</time>
      </trkpt>
      <trkpt lat="43.523499" lon="10.665050">
        <ele>114.175412</ele>
        <time>2026-05-05T18:46:52.166Z</time>
      </trkpt>
      <trkpt lat="43.523430" lon="10.665670">
        <ele>115.378143</ele>
        <time>2026-05-05T18:47:17.466Z</time>
      </trkpt>
      <trkpt lat="43.523461" lon="10.666094">
        <ele>116.195259</ele>
        <time>2026-05-05T18:47:37.937Z</time>
      </trkpt>
      <trkpt lat="43.523612" lon="10.666657">
        <ele>118.238814</ele>
        <time>2026-05-05T18:48:07.264Z</time>
      </trkpt>
      <trkpt lat="43.523636" lon="10.666840">
        <ele>119.050564</ele>
        <time>2026-05-05T18:48:16.297Z</time>
      </trkpt>
      <trkpt lat="43.523610" lon="10.666947">
        <ele>119.543143</ele>
        <time>2026-05-05T18:48:21.916Z</time>
      </trkpt>
      <trkpt lat="43.523539" lon="10.667086">
        <ele>120.285305</ele>
        <time>2026-05-05T18:48:30.477Z</time>
      </trkpt>
      <trkpt lat="43.523422" lon="10.667210">
        <ele>121.173582</ele>
        <time>2026-05-05T18:48:40.876Z</time>
      </trkpt>
      <trkpt lat="43.522866" lon="10.667596">
        <ele>124.920803</ele>
        <time>2026-05-05T18:49:26.923Z</time>
      </trkpt>
      <trkpt lat="43.522591" lon="10.667993">
        <ele>127.317380</ele>
        <time>2026-05-05T18:49:58.982Z</time>
      </trkpt>
      <trkpt lat="43.522566" lon="10.668148">
        <ele>128.324763</ele>
        <time>2026-05-05T18:50:08.577Z</time>
      </trkpt>
      <trkpt lat="43.522601" lon="10.668444">
        <ele>130.401664</ele>
        <time>2026-05-05T18:50:27.637Z</time>
      </trkpt>
      <trkpt lat="43.522593" lon="10.668631">
        <ele>131.698907</ele>
        <time>2026-05-05T18:50:40.474Z</time>
      </trkpt>
      <trkpt lat="43.522531" lon="10.668798">
        <ele>132.998171</ele>
        <time>2026-05-05T18:50:53.718Z</time>
      </trkpt>
      <trkpt lat="43.521945" lon="10.669694">
        <ele>141.354168</ele>
        <time>2026-05-05T18:52:24.398Z</time>
      </trkpt>
      <trkpt lat="43.521104" lon="10.669897">
        <ele>147.577750</ele>
        <time>2026-05-05T18:53:46.783Z</time>
      </trkpt>
      <trkpt lat="43.520961" lon="10.669959">
        <ele>148.440199</ele>
        <time>2026-05-05T18:53:59.209Z</time>
      </trkpt>
      <trkpt lat="43.520959" lon="10.670171">
        <ele>149.324732</ele>
        <time>2026-05-05T18:54:08.750Z</time>
      </trkpt>
      <trkpt lat="43.520863" lon="10.670667">
        <ele>151.466478</ele>
        <time>2026-05-05T18:54:28.811Z</time>
      </trkpt>
      <trkpt lat="43.520734" lon="10.671039">
        <ele>153.186796</ele>
        <time>2026-05-05T18:54:43.217Z</time>
      </trkpt>
      <trkpt lat="43.520544" lon="10.671333">
        <ele>154.829800</ele>
        <time>2026-05-05T18:54:53.578Z</time>
      </trkpt>
      <trkpt lat="43.520243" lon="10.671658">
        <ele>154.773866</ele>
        <time>2026-05-05T18:55:02.917Z</time>
      </trkpt>
      <trkpt lat="43.519960" lon="10.671989">
        <ele>154.534763</ele>
        <time>2026-05-05T18:55:10.657Z</time>
      </trkpt>
      <trkpt lat="43.519857" lon="10.672247">
        <ele>154.397153</ele>
        <time>2026-05-05T18:55:14.986Z</time>
      </trkpt>
      <trkpt lat="43.519807" lon="10.672553">
        <ele>154.250593</ele>
        <time>2026-05-05T18:55:20.044Z</time>
      </trkpt>
      <trkpt lat="43.519757" lon="10.673506">
        <ele>153.554733</ele>
        <time>2026-05-05T18:55:33.096Z</time>
      </trkpt>
      <trkpt lat="43.519817" lon="10.673789">
        <ele>152.510666</ele>
        <time>2026-05-05T18:55:36.707Z</time>
      </trkpt>
      <trkpt lat="43.519905" lon="10.673962">
        <ele>151.762372</ele>
        <time>2026-05-05T18:55:39.420Z</time>
      </trkpt>
      <trkpt lat="43.519996" lon="10.674076">
        <ele>151.162017</ele>
        <time>2026-05-05T18:55:41.767Z</time>
      </trkpt>
      <trkpt lat="43.519798" lon="10.674039">
        <ele>150.186294</ele>
        <time>2026-05-05T18:55:48.091Z</time>
      </trkpt>
      <trkpt lat="43.519587" lon="10.673931">
        <ele>149.087241</ele>
        <time>2026-05-05T18:55:54.949Z</time>
      </trkpt>
      <trkpt lat="43.519489" lon="10.673942">
        <ele>148.607099</ele>
        <time>2026-05-05T18:55:57.822Z</time>
      </trkpt>
      <trkpt lat="43.519444" lon="10.674050">
        <ele>148.166027</ele>
        <time>2026-05-05T18:56:00.477Z</time>
      </trkpt>
      <trkpt lat="43.519503" lon="10.674323">
        <ele>147.157298</ele>
        <time>2026-05-05T18:56:06.228Z</time>
      </trkpt>
      <trkpt lat="43.519631" lon="10.674619">
        <ele>145.936922</ele>
        <time>2026-05-05T18:56:12.912Z</time>
      </trkpt>
      <trkpt lat="43.519695" lon="10.674768">
        <ele>145.323691</ele>
        <time>2026-05-05T18:56:16.142Z</time>
      </trkpt>
      <trkpt lat="43.519697" lon="10.674892">
        <ele>144.741651</ele>
        <time>2026-05-05T18:56:18.463Z</time>
      </trkpt>
      <trkpt lat="43.519649" lon="10.675009">
        <ele>143.875564</ele>
        <time>2026-05-05T18:56:21.014Z</time>
      </trkpt>
      <trkpt lat="43.519330" lon="10.675079">
        <ele>141.005616</ele>
        <time>2026-05-05T18:56:29.469Z</time>
      </trkpt>
      <trkpt lat="43.519086" lon="10.675418">
        <ele>137.928234</ele>
        <time>2026-05-05T18:56:38.572Z</time>
      </trkpt>
      <trkpt lat="43.518908" lon="10.675537">
        <ele>136.170671</ele>
        <time>2026-05-05T18:56:43.698Z</time>
      </trkpt>
      <trkpt lat="43.518645" lon="10.675712">
        <ele>133.576139</ele>
        <time>2026-05-05T18:56:51.241Z</time>
      </trkpt>
      <trkpt lat="43.518470" lon="10.675739">
        <ele>132.011576</ele>
        <time>2026-05-05T18:56:55.841Z</time>
      </trkpt>
      <trkpt lat="43.517740" lon="10.675536">
        <ele>125.697468</ele>
        <time>2026-05-05T18:57:15.718Z</time>
      </trkpt>
      <trkpt lat="43.517670" lon="10.675471">
        <ele>125.009238</ele>
        <time>2026-05-05T18:57:17.960Z</time>
      </trkpt>
      <trkpt lat="43.517610" lon="10.675267">
        <ele>123.707345</ele>
        <time>2026-05-05T18:57:22.209Z</time>
      </trkpt>
      <trkpt lat="43.517560" lon="10.674806">
        <ele>120.950703</ele>
        <time>2026-05-05T18:57:31.161Z</time>
      </trkpt>
      <trkpt lat="43.517511" lon="10.674756">
        <ele>120.453588</ele>
        <time>2026-05-05T18:57:32.773Z</time>
      </trkpt>
      <trkpt lat="43.517447" lon="10.674752">
        <ele>119.931113</ele>
        <time>2026-05-05T18:57:34.460Z</time>
      </trkpt>
      <trkpt lat="43.517198" lon="10.675047">
        <ele>117.253933</ele>
        <time>2026-05-05T18:57:43.130Z</time>
      </trkpt>
      <trkpt lat="43.516774" lon="10.675412">
        <ele>114.070808</ele>
        <time>2026-05-05T18:57:56.451Z</time>
      </trkpt>
      <trkpt lat="43.516622" lon="10.675460">
        <ele>113.721145</ele>
        <time>2026-05-05T18:58:00.672Z</time>
      </trkpt>
      <trkpt lat="43.516110" lon="10.675418">
        <ele>112.571020</ele>
        <time>2026-05-05T18:58:15.256Z</time>
      </trkpt>
      <trkpt lat="43.515938" lon="10.675535">
        <ele>112.140959</ele>
        <time>2026-05-05T18:58:21.402Z</time>
      </trkpt>
      <trkpt lat="43.515825" lon="10.675648">
        <ele>111.827956</ele>
        <time>2026-05-05T18:58:26.145Z</time>
      </trkpt>
      <trkpt lat="43.514869" lon="10.676609">
        <ele>113.291434</ele>
        <time>2026-05-05T18:59:33.056Z</time>
      </trkpt>
      <trkpt lat="43.514736" lon="10.676699">
        <ele>114.097664</ele>
        <time>2026-05-05T18:59:44.436Z</time>
      </trkpt>
      <trkpt lat="43.513743" lon="10.676994">
        <ele>119.625487</ele>
        <time>2026-05-05T19:01:05.388Z</time>
      </trkpt>
      <trkpt lat="43.513589" lon="10.676855">
        <ele>120.593835</ele>
        <time>2026-05-05T19:01:19.488Z</time>
      </trkpt>
      <trkpt lat="43.513508" lon="10.676823">
        <ele>121.019383</ele>
        <time>2026-05-05T19:01:25.777Z</time>
      </trkpt>
      <trkpt lat="43.513417" lon="10.676882">
        <ele>121.527246</ele>
        <time>2026-05-05T19:01:33.214Z</time>
      </trkpt>
      <trkpt lat="43.513372" lon="10.677145">
        <ele>122.516979</ele>
        <time>2026-05-05T19:01:47.328Z</time>
      </trkpt>
      <trkpt lat="43.513331" lon="10.677247">
        <ele>122.944121</ele>
        <time>2026-05-05T19:01:53.317Z</time>
      </trkpt>
      <trkpt lat="43.512837" lon="10.677890">
        <ele>126.375053</ele>
        <time>2026-05-05T19:02:40.884Z</time>
      </trkpt>
      <trkpt lat="43.512666" lon="10.677998">
        <ele>127.324969</ele>
        <time>2026-05-05T19:02:53.035Z</time>
      </trkpt>
      <trkpt lat="43.512409" lon="10.677896">
        <ele>128.675641</ele>
        <time>2026-05-05T19:03:09.038Z</time>
      </trkpt>
      <trkpt lat="43.512273" lon="10.677708">
        <ele>129.424381</ele>
        <time>2026-05-05T19:03:20.226Z</time>
      </trkpt>
      <trkpt lat="43.512222" lon="10.677703">
        <ele>129.538029</ele>
        <time>2026-05-05T19:03:23.314Z</time>
      </trkpt>
      <trkpt lat="43.511933" lon="10.677815">
        <ele>130.205300</ele>
        <time>2026-05-05T19:03:40.891Z</time>
      </trkpt>
      <trkpt lat="43.511845" lon="10.677906">
        <ele>130.449800</ele>
        <time>2026-05-05T19:03:47.189Z</time>
      </trkpt>
      <trkpt lat="43.511619" lon="10.678346">
        <ele>131.318966</ele>
        <time>2026-05-05T19:04:09.584Z</time>
      </trkpt>
      <trkpt lat="43.511382" lon="10.678502">
        <ele>131.902710</ele>
        <time>2026-05-05T19:04:23.437Z</time>
      </trkpt>
      <trkpt lat="43.510783" lon="10.678807">
        <ele>133.256494</ele>
        <time>2026-05-05T19:04:49.770Z</time>
      </trkpt>
      <trkpt lat="43.510689" lon="10.678936">
        <ele>133.295866</ele>
        <time>2026-05-05T19:04:54.787Z</time>
      </trkpt>
      <trkpt lat="43.510592" lon="10.679178">
        <ele>133.355399</ele>
        <time>2026-05-05T19:05:02.317Z</time>
      </trkpt>
      <trkpt lat="43.510391" lon="10.679543">
        <ele>133.454074</ele>
        <time>2026-05-05T19:05:14.922Z</time>
      </trkpt>
      <trkpt lat="43.509732" lon="10.680095">
        <ele>133.682987</ele>
        <time>2026-05-05T19:05:46.269Z</time>
      </trkpt>
      <trkpt lat="43.509585" lon="10.680395">
        <ele>133.760941</ele>
        <time>2026-05-05T19:05:56.829Z</time>
      </trkpt>
      <trkpt lat="43.509297" lon="10.680674">
        <ele>134.084153</ele>
        <time>2026-05-05T19:06:10.557Z</time>
      </trkpt>
      <trkpt lat="43.509053" lon="10.680804">
        <ele>134.361470</ele>
        <time>2026-05-05T19:06:20.978Z</time>
      </trkpt>
      <trkpt lat="43.508923" lon="10.680765">
        <ele>134.502514</ele>
        <time>2026-05-05T19:06:26.550Z</time>
      </trkpt>
      <trkpt lat="43.508659" lon="10.680497">
        <ele>134.850069</ele>
        <time>2026-05-05T19:06:41.060Z</time>
      </trkpt>
      <trkpt lat="43.508550" lon="10.680422">
        <ele>134.979216</ele>
        <time>2026-05-05T19:06:46.500Z</time>
      </trkpt>
      <trkpt lat="43.508402" lon="10.680465">
        <ele>135.139563</ele>
        <time>2026-05-05T19:06:53.423Z</time>
      </trkpt>
      <trkpt lat="43.508232" lon="10.680739">
        <ele>135.416812</ele>
        <time>2026-05-05T19:07:05.366Z</time>
      </trkpt>
      <trkpt lat="43.507936" lon="10.681501">
        <ele>137.104847</ele>
        <time>2026-05-05T19:07:36.441Z</time>
      </trkpt>
      <trkpt lat="43.507769" lon="10.681582">
        <ele>137.779688</ele>
        <time>2026-05-05T19:07:46.584Z</time>
      </trkpt>
      <trkpt lat="43.507021" lon="10.681597">
        <ele>140.631347</ele>
        <time>2026-05-05T19:08:34.166Z</time>
      </trkpt>
      <trkpt lat="43.506192" lon="10.681431">
        <ele>143.949964</ele>
        <time>2026-05-05T19:09:32.211Z</time>
      </trkpt>
      <trkpt lat="43.505536" lon="10.681099">
        <ele>146.874394</ele>
        <time>2026-05-05T19:10:19.775Z</time>
      </trkpt>
      <trkpt lat="43.505291" lon="10.680723">
        <ele>148.408611</ele>
        <time>2026-05-05T19:10:43.095Z</time>
      </trkpt>
      <trkpt lat="43.505106" lon="10.679945">
        <ele>150.096590</ele>
        <time>2026-05-05T19:11:16.137Z</time>
      </trkpt>
      <trkpt lat="43.504978" lon="10.679580">
        <ele>150.135184</ele>
        <time>2026-05-05T19:11:29.728Z</time>
      </trkpt>
      <trkpt lat="43.504803" lon="10.679478">
        <ele>150.160120</ele>
        <time>2026-05-05T19:11:37.763Z</time>
      </trkpt>
      <trkpt lat="43.504009" lon="10.679215">
        <ele>150.267293</ele>
        <time>2026-05-05T19:12:07.492Z</time>
      </trkpt>
      <trkpt lat="43.503429" lon="10.679129">
        <ele>150.013149</ele>
        <time>2026-05-05T19:12:26.650Z</time>
      </trkpt>
      <trkpt lat="43.502924" lon="10.679376">
        <ele>149.455125</ele>
        <time>2026-05-05T19:12:44.022Z</time>
      </trkpt>
      <trkpt lat="43.502371" lon="10.680009">
        <ele>148.706604</ele>
        <time>2026-05-05T19:13:08.790Z</time>
      </trkpt>
      <trkpt lat="43.501527" lon="10.681071">
        <ele>150.059695</ele>
        <time>2026-05-05T19:14:01.563Z</time>
      </trkpt>
      <trkpt lat="43.501250" lon="10.681254">
        <ele>150.626810</ele>
        <time>2026-05-05T19:14:18.908Z</time>
      </trkpt>
      <trkpt lat="43.500943" lon="10.681329">
        <ele>151.202456</ele>
        <time>2026-05-05T19:14:36.081Z</time>
      </trkpt>
      <trkpt lat="43.500328" lon="10.681404">
        <ele>152.150438</ele>
        <time>2026-05-05T19:15:08.241Z</time>
      </trkpt>
      <trkpt lat="43.500259" lon="10.681440">
        <ele>152.242175</ele>
        <time>2026-05-05T19:15:11.987Z</time>
      </trkpt>
      <trkpt lat="43.499585" lon="10.681790">
        <ele>153.137744</ele>
        <time>2026-05-05T19:15:45.890Z</time>
      </trkpt>
      <trkpt lat="43.498635" lon="10.682134">
        <ele>153.698737</ele>
        <time>2026-05-05T19:16:25.755Z</time>
      </trkpt>
      <trkpt lat="43.498495" lon="10.682321">
        <ele>153.506173</ele>
        <time>2026-05-05T19:16:33.008Z</time>
      </trkpt>
      <trkpt lat="43.498406" lon="10.682552">
        <ele>153.318747</ele>
        <time>2026-05-05T19:16:39.878Z</time>
      </trkpt>
      <trkpt lat="43.498200" lon="10.683678">
        <ele>152.486629</ele>
        <time>2026-05-05T19:17:08.794Z</time>
      </trkpt>
      <trkpt lat="43.498211" lon="10.683963">
        <ele>152.282119</ele>
        <time>2026-05-05T19:17:15.519Z</time>
      </trkpt>
      <trkpt lat="43.498301" lon="10.684365">
        <ele>151.666918</ele>
        <time>2026-05-05T19:17:25.354Z</time>
      </trkpt>
      <trkpt lat="43.498441" lon="10.684810">
        <ele>150.852719</ele>
        <time>2026-05-05T19:17:36.629Z</time>
      </trkpt>
      <trkpt lat="43.498431" lon="10.685138">
        <ele>150.301657</ele>
        <time>2026-05-05T19:17:44.217Z</time>
      </trkpt>
      <trkpt lat="43.498367" lon="10.685524">
        <ele>149.637012</ele>
        <time>2026-05-05T19:17:53.350Z</time>
      </trkpt>
      <trkpt lat="43.498083" lon="10.686162">
        <ele>148.380505</ele>
        <time>2026-05-05T19:18:10.832Z</time>
      </trkpt>
      <trkpt lat="43.497820" lon="10.686662">
        <ele>147.805154</ele>
        <time>2026-05-05T19:18:25.554Z</time>
      </trkpt>
      <trkpt lat="43.497709" lon="10.686951">
        <ele>147.613725</ele>
        <time>2026-05-05T19:18:33.473Z</time>
      </trkpt>
      <trkpt lat="43.496881" lon="10.693098">
        <ele>144.400406</ele>
        <time>2026-05-05T19:21:18.000Z</time>
      </trkpt>
      <trkpt lat="43.496764" lon="10.693849">
        <ele>143.898682</ele>
        <time>2026-05-05T19:21:38.771Z</time>
      </trkpt>
      <trkpt lat="43.496709" lon="10.694064">
        <ele>143.663410</ele>
        <time>2026-05-05T19:21:44.858Z</time>
      </trkpt>
      <trkpt lat="43.496632" lon="10.694203">
        <ele>143.482919</ele>
        <time>2026-05-05T19:21:49.566Z</time>
      </trkpt>
      <trkpt lat="43.496598" lon="10.694263">
        <ele>143.404346</ele>
        <time>2026-05-05T19:21:51.531Z</time>
      </trkpt>
      <trkpt lat="43.496355" lon="10.694429">
        <ele>143.018527</ele>
        <time>2026-05-05T19:22:01.481Z</time>
      </trkpt>
      <trkpt lat="43.495438" lon="10.694735">
        <ele>141.671866</ele>
        <time>2026-05-05T19:22:31.972Z</time>
      </trkpt>
      <trkpt lat="43.495048" lon="10.695099">
        <ele>140.399118</ele>
        <time>2026-05-05T19:22:47.060Z</time>
      </trkpt>
      <trkpt lat="43.493293" lon="10.696864">
        <ele>133.979461</ele>
        <time>2026-05-05T19:23:55.541Z</time>
      </trkpt>
      <trkpt lat="43.492849" lon="10.697352">
        <ele>132.077345</ele>
        <time>2026-05-05T19:24:13.212Z</time>
      </trkpt>
      <trkpt lat="43.492722" lon="10.697669">
        <ele>131.197376</ele>
        <time>2026-05-05T19:24:21.124Z</time>
      </trkpt>
      <trkpt lat="43.492510" lon="10.698491">
        <ele>128.131828</ele>
        <time>2026-05-05T19:24:39.390Z</time>
      </trkpt>
      <trkpt lat="43.492409" lon="10.699203">
        <ele>125.398851</ele>
        <time>2026-05-05T19:24:54.266Z</time>
      </trkpt>
      <trkpt lat="43.492237" lon="10.699564">
        <ele>123.771856</ele>
        <time>2026-05-05T19:25:03.167Z</time>
      </trkpt>
      <trkpt lat="43.492142" lon="10.699847">
        <ele>122.597159</ele>
        <time>2026-05-05T19:25:09.625Z</time>
      </trkpt>
      <trkpt lat="43.492150" lon="10.700325">
        <ele>120.772122</ele>
        <time>2026-05-05T19:25:19.554Z</time>
      </trkpt>
      <trkpt lat="43.492117" lon="10.701075">
        <ele>117.839243</ele>
        <time>2026-05-05T19:25:35.329Z</time>
      </trkpt>
      <trkpt lat="43.492032" lon="10.701611">
        <ele>115.697653</ele>
        <time>2026-05-05T19:25:46.960Z</time>
      </trkpt>
      <trkpt lat="43.491624" lon="10.702745">
        <ele>110.610737</ele>
        <time>2026-05-05T19:26:12.811Z</time>
      </trkpt>
      <trkpt lat="43.491537" lon="10.702985">
        <ele>109.413803</ele>
        <time>2026-05-05T19:26:18.195Z</time>
      </trkpt>
      <trkpt lat="43.491331" lon="10.703655">
        <ele>106.167370</ele>
        <time>2026-05-05T19:26:32.855Z</time>
      </trkpt>
      <trkpt lat="43.490683" lon="10.706059">
        <ele>94.788690</ele>
        <time>2026-05-05T19:27:24.886Z</time>
      </trkpt>
      <trkpt lat="43.490533" lon="10.706536">
        <ele>92.493586</ele>
        <time>2026-05-05T19:27:35.385Z</time>
      </trkpt>
      <trkpt lat="43.490288" lon="10.706895">
        <ele>90.317710</ele>
        <time>2026-05-05T19:27:45.379Z</time>
      </trkpt>
      <trkpt lat="43.489899" lon="10.707684">
        <ele>86.919241</ele>
        <time>2026-05-05T19:28:04.857Z</time>
      </trkpt>
      <trkpt lat="43.489705" lon="10.708156">
        <ele>85.055282</ele>
        <time>2026-05-05T19:28:16.138Z</time>
      </trkpt>
      <trkpt lat="43.489682" lon="10.708484">
        <ele>83.923029</ele>
        <time>2026-05-05T19:28:23.208Z</time>
      </trkpt>
      <trkpt lat="43.489733" lon="10.708747">
        <ele>82.987644</ele>
        <time>2026-05-05T19:28:29.129Z</time>
      </trkpt>
      <trkpt lat="43.490135" lon="10.709162">
        <ele>80.984378</ele>
        <time>2026-05-05T19:28:44.559Z</time>
      </trkpt>
      <trkpt lat="43.490147" lon="10.709295">
        <ele>80.791611</ele>
        <time>2026-05-05T19:28:47.627Z</time>
      </trkpt>
      <trkpt lat="43.490616" lon="10.709649">
        <ele>79.731535</ele>
        <time>2026-05-05T19:28:57.292Z</time>
      </trkpt>
      <trkpt lat="43.491104" lon="10.710108">
        <ele>78.560291</ele>
        <time>2026-05-05T19:29:08.610Z</time>
      </trkpt>
      <trkpt lat="43.491205" lon="10.710233">
        <ele>78.291190</ele>
        <time>2026-05-05T19:29:11.285Z</time>
      </trkpt>
      <trkpt lat="43.491465" lon="10.710667">
        <ele>77.594703</ele>
        <time>2026-05-05T19:29:19.442Z</time>
      </trkpt>
      <trkpt lat="43.492257" lon="10.712272">
        <ele>76.326189</ele>
        <time>2026-05-05T19:29:48.705Z</time>
      </trkpt>
      <trkpt lat="43.492357" lon="10.712436">
        <ele>76.186186</ele>
        <time>2026-05-05T19:29:51.922Z</time>
      </trkpt>
      <trkpt lat="43.492382" lon="10.712478">
        <ele>76.150683</ele>
        <time>2026-05-05T19:29:52.743Z</time>
      </trkpt>
      <trkpt lat="43.492546" lon="10.712683">
        <ele>75.939723</ele>
        <time>2026-05-05T19:29:57.267Z</time>
      </trkpt>
      <trkpt lat="43.493654" lon="10.713792">
        <ele>74.585081</ele>
        <time>2026-05-05T19:30:24.595Z</time>
      </trkpt>
      <trkpt lat="43.493841" lon="10.713938">
        <ele>74.372467</ele>
        <time>2026-05-05T19:30:28.982Z</time>
      </trkpt>
      <trkpt lat="43.494057" lon="10.714047">
        <ele>74.221372</ele>
        <time>2026-05-05T19:30:33.812Z</time>
      </trkpt>
      <trkpt lat="43.495109" lon="10.714407">
        <ele>73.717275</ele>
        <time>2026-05-05T19:30:57.556Z</time>
      </trkpt>
      <trkpt lat="43.495658" lon="10.714631">
        <ele>73.449758</ele>
        <time>2026-05-05T19:31:10.278Z</time>
      </trkpt>
      <trkpt lat="43.497532" lon="10.716214">
        <ele>71.469753</ele>
        <time>2026-05-05T19:31:55.430Z</time>
      </trkpt>
      <trkpt lat="43.497750" lon="10.716448">
        <ele>71.100943</ele>
        <time>2026-05-05T19:32:00.814Z</time>
      </trkpt>
      <trkpt lat="43.498427" lon="10.717327">
        <ele>69.859528</ele>
        <time>2026-05-05T19:32:18.741Z</time>
      </trkpt>
      <trkpt lat="43.498574" lon="10.717599">
        <ele>69.546246</ele>
        <time>2026-05-05T19:32:23.473Z</time>
      </trkpt>
      <trkpt lat="43.498749" lon="10.718139">
        <ele>69.088467</ele>
        <time>2026-05-05T19:32:31.788Z</time>
      </trkpt>
      <trkpt lat="43.498793" lon="10.718419">
        <ele>68.866719</ele>
        <time>2026-05-05T19:32:35.857Z</time>
      </trkpt>
      <trkpt lat="43.498934" lon="10.720415">
        <ele>67.797141</ele>
        <time>2026-05-05T19:33:05.765Z</time>
      </trkpt>
      <trkpt lat="43.498973" lon="10.720650">
        <ele>67.852030</ele>
        <time>2026-05-05T19:33:09.732Z</time>
      </trkpt>
      <trkpt lat="43.498862" lon="10.720698">
        <ele>67.888545</ele>
        <time>2026-05-05T19:33:13.245Z</time>
      </trkpt>
      <trkpt lat="43.498829" lon="10.720740">
        <ele>67.902642</ele>
        <time>2026-05-05T19:33:14.611Z</time>
      </trkpt>
      <trkpt lat="43.498805" lon="10.720924">
        <ele>67.945209</ele>
        <time>2026-05-05T19:33:18.741Z</time>
      </trkpt>
      <trkpt lat="43.498816" lon="10.721380">
        <ele>68.049092</ele>
        <time>2026-05-05T19:33:28.981Z</time>
      </trkpt>
      <trkpt lat="43.498841" lon="10.721566">
        <ele>68.092163</ele>
        <time>2026-05-05T19:33:34.395Z</time>
      </trkpt>
      <trkpt lat="43.498918" lon="10.721787">
        <ele>68.147986</ele>
        <time>2026-05-05T19:33:41.464Z</time>
      </trkpt>
      <trkpt lat="43.498982" lon="10.721835">
        <ele>68.170855</ele>
        <time>2026-05-05T19:33:44.359Z</time>
      </trkpt>
      <trkpt lat="43.498680" lon="10.723358">
        <ele>71.420862</ele>
        <time>2026-05-05T19:34:26.729Z</time>
      </trkpt>
      <trkpt lat="43.498621" lon="10.723645">
        <ele>72.194106</ele>
        <time>2026-05-05T19:34:36.968Z</time>
      </trkpt>
      <trkpt lat="43.498499" lon="10.724306">
        <ele>73.962110</ele>
        <time>2026-05-05T19:35:02.663Z</time>
      </trkpt>
      <trkpt lat="43.498060" lon="10.724166">
        <ele>76.158630</ele>
        <time>2026-05-05T19:35:29.250Z</time>
      </trkpt>
      <trkpt lat="43.497768" lon="10.724196">
        <ele>77.892062</ele>
        <time>2026-05-05T19:35:51.538Z</time>
      </trkpt>
      <trkpt lat="43.497577" lon="10.724115">
        <ele>79.075075</ele>
        <time>2026-05-05T19:36:06.214Z</time>
      </trkpt>
      <trkpt lat="43.497180" lon="10.723799">
        <ele>81.788955</ele>
        <time>2026-05-05T19:36:38.935Z</time>
      </trkpt>
      <trkpt lat="43.496604" lon="10.723649">
        <ele>85.259181</ele>
        <time>2026-05-05T19:37:22.270Z</time>
      </trkpt>
      <trkpt lat="43.495206" lon="10.723199">
        <ele>95.429302</ele>
        <time>2026-05-05T19:39:18.156Z</time>
      </trkpt>
      <trkpt lat="43.494993" lon="10.723032">
        <ele>97.167535</ele>
        <time>2026-05-05T19:39:39.012Z</time>
      </trkpt>
      <trkpt lat="43.494417" lon="10.722790">
        <ele>101.011105</ele>
        <time>2026-05-05T19:40:30.272Z</time>
      </trkpt>
      <trkpt lat="43.494184" lon="10.722763">
        <ele>102.458058</ele>
        <time>2026-05-05T19:40:49.894Z</time>
      </trkpt>
      <trkpt lat="43.493861" lon="10.722801">
        <ele>104.464137</ele>
        <time>2026-05-05T19:41:15.843Z</time>
      </trkpt>
      <trkpt lat="43.493515" lon="10.722923">
        <ele>106.674219</ele>
        <time>2026-05-05T19:41:42.296Z</time>
      </trkpt>
      <trkpt lat="43.493192" lon="10.723037">
        <ele>108.737510</ele>
        <time>2026-05-05T19:42:04.552Z</time>
      </trkpt>
      <trkpt lat="43.493005" lon="10.723053">
        <ele>109.388800</ele>
        <time>2026-05-05T19:42:15.780Z</time>
      </trkpt>
      <trkpt lat="43.492448" lon="10.722898">
        <ele>110.278543</ele>
        <time>2026-05-05T19:42:44.923Z</time>
      </trkpt>
      <trkpt lat="43.492328" lon="10.722549">
        <ele>110.717257</ele>
        <time>2026-05-05T19:42:57.255Z</time>
      </trkpt>
      <trkpt lat="43.492156" lon="10.722425">
        <ele>111.021184</ele>
        <time>2026-05-05T19:43:05.210Z</time>
      </trkpt>
      <trkpt lat="43.491988" lon="10.722188">
        <ele>111.397582</ele>
        <time>2026-05-05T19:43:14.881Z</time>
      </trkpt>
      <trkpt lat="43.491900" lon="10.721669">
        <ele>112.003023</ele>
        <time>2026-05-05T19:43:30.240Z</time>
      </trkpt>
      <trkpt lat="43.491787" lon="10.721495">
        <ele>112.323970</ele>
        <time>2026-05-05T19:43:36.924Z</time>
      </trkpt>
      <trkpt lat="43.491491" lon="10.721299">
        <ele>112.959786</ele>
        <time>2026-05-05T19:43:50.331Z</time>
      </trkpt>
      <trkpt lat="43.491249" lon="10.720853">
        <ele>113.742111</ele>
        <time>2026-05-05T19:44:07.741Z</time>
      </trkpt>
      <trkpt lat="43.491121" lon="10.720618">
        <ele>114.154892</ele>
        <time>2026-05-05T19:44:17.983Z</time>
      </trkpt>
      <trkpt lat="43.490946" lon="10.720446">
        <ele>114.571044</ele>
        <time>2026-05-05T19:44:29.100Z</time>
      </trkpt>
      <trkpt lat="43.490355" lon="10.720242">
        <ele>116.039086</ele>
        <time>2026-05-05T19:45:05.741Z</time>
      </trkpt>
      <trkpt lat="43.489911" lon="10.719711">
        <ele>118.573181</ele>
        <time>2026-05-05T19:45:47.664Z</time>
      </trkpt>
      <trkpt lat="43.489607" lon="10.719539">
        <ele>119.989818</ele>
        <time>2026-05-05T19:46:11.291Z</time>
      </trkpt>
      <trkpt lat="43.489183" lon="10.719550">
        <ele>121.817979</ele>
        <time>2026-05-05T19:46:40.539Z</time>
      </trkpt>
      <trkpt lat="43.488949" lon="10.719679">
        <ele>122.904430</ele>
        <time>2026-05-05T19:46:56.332Z</time>
      </trkpt>
      <trkpt lat="43.487903" lon="10.719802">
        <ele>123.933760</ele>
        <time>2026-05-05T19:47:41.759Z</time>
      </trkpt>
      <trkpt lat="43.487291" lon="10.719684">
        <ele>124.359155</ele>
        <time>2026-05-05T19:48:04.322Z</time>
      </trkpt>
      <trkpt lat="43.487000" lon="10.719529">
        <ele>124.444134</ele>
        <time>2026-05-05T19:48:16.073Z</time>
      </trkpt>
      <trkpt lat="43.486681" lon="10.719344">
        <ele>124.216627</ele>
        <time>2026-05-05T19:48:29.198Z</time>
      </trkpt>
      <trkpt lat="43.486440" lon="10.718936">
        <ele>123.965698</ele>
        <time>2026-05-05T19:48:43.951Z</time>
      </trkpt>
      <trkpt lat="43.485829" lon="10.718383">
        <ele>123.485188</ele>
        <time>2026-05-05T19:49:10.584Z</time>
      </trkpt>
      <trkpt lat="43.485783" lon="10.718355">
        <ele>123.452132</ele>
        <time>2026-05-05T19:49:12.243Z</time>
      </trkpt>
      <trkpt lat="43.484477" lon="10.717528">
        <ele>121.743739</ele>
        <time>2026-05-05T19:49:58.713Z</time>
      </trkpt>
      <trkpt lat="43.484007" lon="10.717093">
        <ele>121.044025</ele>
        <time>2026-05-05T19:50:20.568Z</time>
      </trkpt>
      <trkpt lat="43.483711" lon="10.716905">
        <ele>121.190382</ele>
        <time>2026-05-05T19:50:35.233Z</time>
      </trkpt>
      <trkpt lat="43.483590" lon="10.716777">
        <ele>121.258878</ele>
        <time>2026-05-05T19:50:42.226Z</time>
      </trkpt>
      <trkpt lat="43.483318" lon="10.716393">
        <ele>121.433732</ele>
        <time>2026-05-05T19:50:59.763Z</time>
      </trkpt>
      <trkpt lat="43.483201" lon="10.716171">
        <ele>121.523133</ele>
        <time>2026-05-05T19:51:08.149Z</time>
      </trkpt>
      <trkpt lat="43.482968" lon="10.716050">
        <ele>121.634946</ele>
        <time>2026-05-05T19:51:18.179Z</time>
      </trkpt>
      <trkpt lat="43.482629" lon="10.715980">
        <ele>121.788876</ele>
        <time>2026-05-05T19:51:31.149Z</time>
      </trkpt>
      <trkpt lat="43.482069" lon="10.716039">
        <ele>121.985024</ele>
        <time>2026-05-05T19:51:52.208Z</time>
      </trkpt>
      <trkpt lat="43.481811" lon="10.716026">
        <ele>122.067554</ele>
        <time>2026-05-05T19:52:02.300Z</time>
      </trkpt>
      <trkpt lat="43.481395" lon="10.715618">
        <ele>122.230773</ele>
        <time>2026-05-05T19:52:23.613Z</time>
      </trkpt>
      <trkpt lat="43.481278" lon="10.715393">
        <ele>122.294980</ele>
        <time>2026-05-05T19:52:32.247Z</time>
      </trkpt>
      <trkpt lat="43.481107" lon="10.715296">
        <ele>122.354093</ele>
        <time>2026-05-05T19:52:40.286Z</time>
      </trkpt>
      <trkpt lat="43.480745" lon="10.715194">
        <ele>122.394238</ele>
        <time>2026-05-05T19:52:55.928Z</time>
      </trkpt>
      <trkpt lat="43.479947" lon="10.715548">
        <ele>122.250207</ele>
        <time>2026-05-05T19:53:26.486Z</time>
      </trkpt>
      <trkpt lat="43.479367" lon="10.715634">
        <ele>122.149983</ele>
        <time>2026-05-05T19:53:47.107Z</time>
      </trkpt>
      <trkpt lat="43.478935" lon="10.715500">
        <ele>122.599966</ele>
        <time>2026-05-05T19:54:04.371Z</time>
      </trkpt>
      <trkpt lat="43.478783" lon="10.715350">
        <ele>123.005968</ele>
        <time>2026-05-05T19:54:12.474Z</time>
      </trkpt>
      <trkpt lat="43.478596" lon="10.715039">
        <ele>123.642450</ele>
        <time>2026-05-05T19:54:26.359Z</time>
      </trkpt>
      <trkpt lat="43.478398" lon="10.715103">
        <ele>124.084114</ele>
        <time>2026-05-05T19:54:37.072Z</time>
      </trkpt>
      <trkpt lat="43.478071" lon="10.715264">
        <ele>124.838219</ele>
        <time>2026-05-05T19:54:56.528Z</time>
      </trkpt>
      <trkpt lat="43.477767" lon="10.715462">
        <ele>125.568434</ele>
        <time>2026-05-05T19:55:16.289Z</time>
      </trkpt>
      <trkpt lat="43.477066" lon="10.715559">
        <ele>127.620201</ele>
        <time>2026-05-05T19:55:59.453Z</time>
      </trkpt>
      <trkpt lat="43.476210" lon="10.715741">
        <ele>130.409977</ele>
        <time>2026-05-05T19:56:51.938Z</time>
      </trkpt>
      <trkpt lat="43.475840" lon="10.715881">
        <ele>131.645846</ele>
        <time>2026-05-05T19:57:12.169Z</time>
      </trkpt>
      <trkpt lat="43.475279" lon="10.716230">
        <ele>132.835000</ele>
        <time>2026-05-05T19:57:40.559Z</time>
      </trkpt>
      <trkpt lat="43.474668" lon="10.716734">
        <ele>134.126812</ele>
        <time>2026-05-05T19:58:13.122Z</time>
      </trkpt>
      <trkpt lat="43.474509" lon="10.716814">
        <ele>134.433877</ele>
        <time>2026-05-05T19:58:21.456Z</time>
      </trkpt>
      <trkpt lat="43.473975" lon="10.716686">
        <ele>135.654410</ele>
        <time>2026-05-05T19:58:49.448Z</time>
      </trkpt>
      <trkpt lat="43.473921" lon="10.716707">
        <ele>135.826751</ele>
        <time>2026-05-05T19:58:52.561Z</time>
      </trkpt>
      <trkpt lat="43.473695" lon="10.717023">
        <ele>136.815679</ele>
        <time>2026-05-05T19:59:11.166Z</time>
      </trkpt>
      <trkpt lat="43.473135" lon="10.717705">
        <ele>139.111216</ele>
        <time>2026-05-05T19:59:55.518Z</time>
      </trkpt>
      <trkpt lat="43.472963" lon="10.717812">
        <ele>139.690860</ele>
        <time>2026-05-05T20:00:06.238Z</time>
      </trkpt>
      <trkpt lat="43.471068" lon="10.720398">
        <ele>149.614955</ele>
        <time>2026-05-05T20:02:37.372Z</time>
      </trkpt>
      <trkpt lat="43.470309" lon="10.721531">
        <ele>156.029784</ele>
        <time>2026-05-05T20:04:07.158Z</time>
      </trkpt>
      <trkpt lat="43.470173" lon="10.721852">
        <ele>157.549950</ele>
        <time>2026-05-05T20:04:30.118Z</time>
      </trkpt>
      <trkpt lat="43.470379" lon="10.722460">
        <ele>160.263035</ele>
        <time>2026-05-05T20:05:09.317Z</time>
      </trkpt>
      <trkpt lat="43.470415" lon="10.722661">
        <ele>161.100135</ele>
        <time>2026-05-05T20:05:20.825Z</time>
      </trkpt>
      <trkpt lat="43.469778" lon="10.724206">
        <ele>166.835470</ele>
        <time>2026-05-05T20:06:46.545Z</time>
      </trkpt>
      <trkpt lat="43.469746" lon="10.724081">
        <ele>166.891992</ele>
        <time>2026-05-05T20:06:50.105Z</time>
      </trkpt>
      <trkpt lat="43.469720" lon="10.723799">
        <ele>167.013211</ele>
        <time>2026-05-05T20:06:57.058Z</time>
      </trkpt>
      <trkpt lat="43.469687" lon="10.722748">
        <ele>167.461804</ele>
        <time>2026-05-05T20:07:14.022Z</time>
      </trkpt>
      <trkpt lat="43.469653" lon="10.722604">
        <ele>167.526378</ele>
        <time>2026-05-05T20:07:16.097Z</time>
      </trkpt>
      <trkpt lat="43.469593" lon="10.722469">
        <ele>167.593883</ele>
        <time>2026-05-05T20:07:18.221Z</time>
      </trkpt>
      <trkpt lat="43.469505" lon="10.722359">
        <ele>167.663696</ele>
        <time>2026-05-05T20:07:20.386Z</time>
      </trkpt>
      <trkpt lat="43.469284" lon="10.722215">
        <ele>167.647281</ele>
        <time>2026-05-05T20:07:24.782Z</time>
      </trkpt>
      <trkpt lat="43.468902" lon="10.722207">
        <ele>167.453531</ele>
        <time>2026-05-05T20:07:31.780Z</time>
      </trkpt>
      <trkpt lat="43.468709" lon="10.722144">
        <ele>167.352944</ele>
        <time>2026-05-05T20:07:35.498Z</time>
      </trkpt>
      <trkpt lat="43.467549" lon="10.721386">
        <ele>166.911700</ele>
        <time>2026-05-05T20:08:08.646Z</time>
      </trkpt>
      <trkpt lat="43.467431" lon="10.721380">
        <ele>166.968812</ele>
        <time>2026-05-05T20:08:12.412Z</time>
      </trkpt>
      <trkpt lat="43.467320" lon="10.721440">
        <ele>167.026483</ele>
        <time>2026-05-05T20:08:16.067Z</time>
      </trkpt>
      <trkpt lat="43.467222" lon="10.721563">
        <ele>167.090600</ele>
        <time>2026-05-05T20:08:19.984Z</time>
      </trkpt>
      <trkpt lat="43.466901" lon="10.722534">
        <ele>167.465147</ele>
        <time>2026-05-05T20:08:41.140Z</time>
      </trkpt>
      <trkpt lat="43.466772" lon="10.723046">
        <ele>167.655398</ele>
        <time>2026-05-05T20:08:49.937Z</time>
      </trkpt>
      <trkpt lat="43.466735" lon="10.723430">
        <ele>167.513182</ele>
        <time>2026-05-05T20:08:56.045Z</time>
      </trkpt>
      <trkpt lat="43.466686" lon="10.723666">
        <ele>167.385633</ele>
        <time>2026-05-05T20:08:59.939Z</time>
      </trkpt>
      <trkpt lat="43.466592" lon="10.723939">
        <ele>167.228622</ele>
        <time>2026-05-05T20:09:04.667Z</time>
      </trkpt>
      <trkpt lat="43.466026" lon="10.724846">
        <ele>166.607065</ele>
        <time>2026-05-05T20:09:22.764Z</time>
      </trkpt>
      <trkpt lat="43.465825" lon="10.725312">
        <ele>166.243529</ele>
        <time>2026-05-05T20:09:30.582Z</time>
      </trkpt>
      <trkpt lat="43.464041" lon="10.730992">
        <ele>159.758758</ele>
        <time>2026-05-05T20:10:56.279Z</time>
      </trkpt>
      <trkpt lat="43.464084" lon="10.731117">
        <ele>159.670544</ele>
        <time>2026-05-05T20:11:00.244Z</time>
      </trkpt>
      <trkpt lat="43.464051" lon="10.731322">
        <ele>159.536636</ele>
        <time>2026-05-05T20:11:06.246Z</time>
      </trkpt>
      <trkpt lat="43.463961" lon="10.731884">
        <ele>159.169622</ele>
        <time>2026-05-05T20:11:23.363Z</time>
      </trkpt>
      <trkpt lat="43.463913" lon="10.732274">
        <ele>158.858124</ele>
        <time>2026-05-05T20:11:35.625Z</time>
      </trkpt>
      <trkpt lat="43.463578" lon="10.735000">
        <ele>153.396637</ele>
        <time>2026-05-05T20:12:44.709Z</time>
      </trkpt>
      <trkpt lat="43.464014" lon="10.735509">
        <ele>148.007581</ele>
        <time>2026-05-05T20:12:59.806Z</time>
      </trkpt>
      <trkpt lat="43.464091" lon="10.735563">
        <ele>147.192807</ele>
        <time>2026-05-05T20:13:02.009Z</time>
      </trkpt>
      <trkpt lat="43.464901" lon="10.735703">
        <ele>139.446826</ele>
        <time>2026-05-05T20:13:21.988Z</time>
      </trkpt>
      <trkpt lat="43.465158" lon="10.735853">
        <ele>136.365415</ele>
        <time>2026-05-05T20:13:28.728Z</time>
      </trkpt>
      <trkpt lat="43.465423" lon="10.735917">
        <ele>133.395158</ele>
        <time>2026-05-05T20:13:35.255Z</time>
      </trkpt>
      <trkpt lat="43.465875" lon="10.736132">
        <ele>128.115984</ele>
        <time>2026-05-05T20:13:47.099Z</time>
      </trkpt>
      <trkpt lat="43.466365" lon="10.736303">
        <ele>122.535463</ele>
        <time>2026-05-05T20:14:00.343Z</time>
      </trkpt>
      <trkpt lat="43.466435" lon="10.736422">
        <ele>121.308095</ele>
        <time>2026-05-05T20:14:03.341Z</time>
      </trkpt>
      <trkpt lat="43.466435" lon="10.736582">
        <ele>120.026059</ele>
        <time>2026-05-05T20:14:06.597Z</time>
      </trkpt>
      <trkpt lat="43.466334" lon="10.737054">
        <ele>119.970397</ele>
        <time>2026-05-05T20:14:17.010Z</time>
      </trkpt>
      <trkpt lat="43.466194" lon="10.737344">
        <ele>120.009615</ele>
        <time>2026-05-05T20:14:25.136Z</time>
      </trkpt>
      <trkpt lat="43.466209" lon="10.737484">
        <ele>120.025550</ele>
        <time>2026-05-05T20:14:28.687Z</time>
      </trkpt>
      <trkpt lat="43.466389" lon="10.737687">
        <ele>120.061638</ele>
        <time>2026-05-05T20:14:37.527Z</time>
      </trkpt>
      <trkpt lat="43.466934" lon="10.738020">
        <ele>120.154131</ele>
        <time>2026-05-05T20:15:09.769Z</time>
      </trkpt>
      <trkpt lat="43.467572" lon="10.738256">
        <ele>123.245995</ele>
        <time>2026-05-05T20:15:58.242Z</time>
      </trkpt>
      <trkpt lat="43.467899" lon="10.738417">
        <ele>125.938142</ele>
        <time>2026-05-05T20:16:28.303Z</time>
      </trkpt>
      <trkpt lat="43.468186" lon="10.738481">
        <ele>128.192138</ele>
        <time>2026-05-05T20:16:55.026Z</time>
      </trkpt>
      <trkpt lat="43.468244" lon="10.738333">
        <ele>129.138526</ele>
        <time>2026-05-05T20:17:04.427Z</time>
      </trkpt>
      <trkpt lat="43.468435" lon="10.738142">
        <ele>130.968184</ele>
        <time>2026-05-05T20:17:22.606Z</time>
      </trkpt>
      <trkpt lat="43.468635" lon="10.738076">
        <ele>132.562587</ele>
        <time>2026-05-05T20:17:38.303Z</time>
      </trkpt>
      <trkpt lat="43.468981" lon="10.738048">
        <ele>135.672774</ele>
        <time>2026-05-05T20:18:04.087Z</time>
      </trkpt>
      <trkpt lat="43.469216" lon="10.737941">
        <ele>138.323215</ele>
        <time>2026-05-05T20:18:22.466Z</time>
      </trkpt>
      <trkpt lat="43.469319" lon="10.737820">
        <ele>139.772703</ele>
        <time>2026-05-05T20:18:32.695Z</time>
      </trkpt>
      <trkpt lat="43.469721" lon="10.737082">
        <ele>146.944236</ele>
        <time>2026-05-05T20:19:28.045Z</time>
      </trkpt>
      <trkpt lat="43.469971" lon="10.736488">
        <ele>152.280860</ele>
        <time>2026-05-05T20:20:17.816Z</time>
      </trkpt>
      <trkpt lat="43.470009" lon="10.736399">
        <ele>153.083382</ele>
        <time>2026-05-05T20:20:25.880Z</time>
      </trkpt>
      <trkpt lat="43.470199" lon="10.736040">
        <ele>156.782979</ele>
        <time>2026-05-05T20:21:01.699Z</time>
      </trkpt>
      <trkpt lat="43.470249" lon="10.735857">
        <ele>158.422117</ele>
        <time>2026-05-05T20:21:17.222Z</time>
      </trkpt>
      <trkpt lat="43.470346" lon="10.735265">
        <ele>163.509548</ele>
        <time>2026-05-05T20:22:03.155Z</time>
      </trkpt>
      <trkpt lat="43.470409" lon="10.734801">
        <ele>167.466574</ele>
        <time>2026-05-05T20:22:34.517Z</time>
      </trkpt>
      <trkpt lat="43.470321" lon="10.734293">
        <ele>171.844581</ele>
        <time>2026-05-05T20:23:05.879Z</time>
      </trkpt>
      <trkpt lat="43.470307" lon="10.734031">
        <ele>174.046777</ele>
        <time>2026-05-05T20:23:20.748Z</time>
      </trkpt>
      <trkpt lat="43.470370" lon="10.733643">
        <ele>176.485626</ele>
        <time>2026-05-05T20:23:40.956Z</time>
      </trkpt>
      <trkpt lat="43.470391" lon="10.733291">
        <ele>178.619789</ele>
        <time>2026-05-05T20:23:57.478Z</time>
      </trkpt>
      <trkpt lat="43.470511" lon="10.733278">
        <ele>179.622017</ele>
        <time>2026-05-05T20:24:06.028Z</time>
      </trkpt>
      <trkpt lat="43.470573" lon="10.733128">
        <ele>180.665100</ele>
        <time>2026-05-05T20:24:15.150Z</time>
      </trkpt>
      <trkpt lat="43.470659" lon="10.732623">
        <ele>183.799479</ele>
        <time>2026-05-05T20:24:43.972Z</time>
      </trkpt>
      <trkpt lat="43.470842" lon="10.731922">
        <ele>188.301018</ele>
        <time>2026-05-05T20:25:30.888Z</time>
      </trkpt>
      <trkpt lat="43.470777" lon="10.730707">
        <ele>194.520578</ele>
        <time>2026-05-05T20:26:45.323Z</time>
      </trkpt>
      <trkpt lat="43.470705" lon="10.730667">
        <ele>195.053558</ele>
        <time>2026-05-05T20:26:51.256Z</time>
      </trkpt>
      <trkpt lat="43.470659" lon="10.730259">
        <ele>197.110788</ele>
        <time>2026-05-05T20:27:10.755Z</time>
      </trkpt>
      <trkpt lat="43.470455" lon="10.729273">
        <ele>201.616576</ele>
        <time>2026-05-05T20:27:50.710Z</time>
      </trkpt>
      <trkpt lat="43.470915" lon="10.728846">
        <ele>202.227228</ele>
        <time>2026-05-05T20:28:09.972Z</time>
      </trkpt>
      <trkpt lat="43.471240" lon="10.728633">
        <ele>202.623458</ele>
        <time>2026-05-05T20:28:19.647Z</time>
      </trkpt>
      <trkpt lat="43.471493" lon="10.728522">
        <ele>202.915785</ele>
        <time>2026-05-05T20:28:26.067Z</time>
      </trkpt>
      <trkpt lat="43.471896" lon="10.728311">
        <ele>203.390430</ele>
        <time>2026-05-05T20:28:35.818Z</time>
      </trkpt>
      <trkpt lat="43.471992" lon="10.728375">
        <ele>203.503550</ele>
        <time>2026-05-05T20:28:38.013Z</time>
      </trkpt>
      <trkpt lat="43.472101" lon="10.728383">
        <ele>203.603955</ele>
        <time>2026-05-05T20:28:40.281Z</time>
      </trkpt>
      <trkpt lat="43.472345" lon="10.728318">
        <ele>203.832553</ele>
        <time>2026-05-05T20:28:45.380Z</time>
      </trkpt>
      <trkpt lat="43.472752" lon="10.728058">
        <ele>204.245204</ele>
        <time>2026-05-05T20:28:55.556Z</time>
      </trkpt>
      <trkpt lat="43.472862" lon="10.727983">
        <ele>204.358096</ele>
        <time>2026-05-05T20:28:59.146Z</time>
      </trkpt>
      <trkpt lat="43.472996" lon="10.727909">
        <ele>204.490885</ele>
        <time>2026-05-05T20:29:03.781Z</time>
      </trkpt>
      <trkpt lat="43.473122" lon="10.727891">
        <ele>204.607406</ele>
        <time>2026-05-05T20:29:08.060Z</time>
      </trkpt>
      <trkpt lat="43.473431" lon="10.727985">
        <ele>204.898482</ele>
        <time>2026-05-05T20:29:19.042Z</time>
      </trkpt>
      <trkpt lat="43.474176" lon="10.728260">
        <ele>205.827995</ele>
        <time>2026-05-05T20:29:49.561Z</time>
      </trkpt>
      <trkpt lat="43.474678" lon="10.728408">
        <ele>206.520508</ele>
        <time>2026-05-05T20:30:09.123Z</time>
      </trkpt>
      <trkpt lat="43.475250" lon="10.728399">
        <ele>207.292176</ele>
        <time>2026-05-05T20:30:25.319Z</time>
      </trkpt>
      <trkpt lat="43.475409" lon="10.728480">
        <ele>207.520851</ele>
        <time>2026-05-05T20:30:28.907Z</time>
      </trkpt>
      <trkpt lat="43.476174" lon="10.728883">
        <ele>203.887464</ele>
        <time>2026-05-05T20:30:44.160Z</time>
      </trkpt>
      <trkpt lat="43.476350" lon="10.729038">
        <ele>202.913427</ele>
        <time>2026-05-05T20:30:47.612Z</time>
      </trkpt>
      <trkpt lat="43.476401" lon="10.729079">
        <ele>202.638085</ele>
        <time>2026-05-05T20:30:48.558Z</time>
      </trkpt>
      <trkpt lat="43.476612" lon="10.729229">
        <ele>201.530907</ele>
        <time>2026-05-05T20:30:52.289Z</time>
      </trkpt>
      <trkpt lat="43.476855" lon="10.729282">
        <ele>200.383610</ele>
        <time>2026-05-05T20:30:55.985Z</time>
      </trkpt>
      <trkpt lat="43.477054" lon="10.729352">
        <ele>199.425850</ele>
        <time>2026-05-05T20:30:59.002Z</time>
      </trkpt>
      <trkpt lat="43.477106" lon="10.729952">
        <ele>194.365938</ele>
        <time>2026-05-05T20:31:05.239Z</time>
      </trkpt>
      <trkpt lat="43.477273" lon="10.730348">
        <ele>190.210889</ele>
        <time>2026-05-05T20:31:09.862Z</time>
      </trkpt>
      <trkpt lat="43.477351" lon="10.730728">
        <ele>186.628342</ele>
        <time>2026-05-05T20:31:13.822Z</time>
      </trkpt>
      <trkpt lat="43.477387" lon="10.731189">
        <ele>182.422101</ele>
        <time>2026-05-05T20:31:18.416Z</time>
      </trkpt>
      <trkpt lat="43.477453" lon="10.731578">
        <ele>178.798001</ele>
        <time>2026-05-05T20:31:22.364Z</time>
      </trkpt>
      <trkpt lat="43.477530" lon="10.731782">
        <ele>176.711970</ele>
        <time>2026-05-05T20:31:24.649Z</time>
      </trkpt>
      <trkpt lat="43.477632" lon="10.731911">
        <ele>175.222058</ele>
        <time>2026-05-05T20:31:26.570Z</time>
      </trkpt>
      <trkpt lat="43.477760" lon="10.731927">
        <ele>173.841910</ele>
        <time>2026-05-05T20:31:28.361Z</time>
      </trkpt>
      <trkpt lat="43.477868" lon="10.732704">
        <ele>167.677320</ele>
        <time>2026-05-05T20:31:36.545Z</time>
      </trkpt>
      <trkpt lat="43.478013" lon="10.733001">
        <ele>164.888006</ele>
        <time>2026-05-05T20:31:40.336Z</time>
      </trkpt>
      <trkpt lat="43.478338" lon="10.733482">
        <ele>159.766737</ele>
        <time>2026-05-05T20:31:47.239Z</time>
      </trkpt>
      <trkpt lat="43.478491" lon="10.733721">
        <ele>157.272156</ele>
        <time>2026-05-05T20:31:50.562Z</time>
      </trkpt>
      <trkpt lat="43.478577" lon="10.733979">
        <ele>154.789605</ele>
        <time>2026-05-05T20:31:53.536Z</time>
      </trkpt>
      <trkpt lat="43.478605" lon="10.734117">
        <ele>153.536671</ele>
        <time>2026-05-05T20:31:55.027Z</time>
      </trkpt>
      <trkpt lat="43.478635" lon="10.734662">
        <ele>148.757587</ele>
        <time>2026-05-05T20:32:00.615Z</time>
      </trkpt>
      <trkpt lat="43.478857" lon="10.735729">
        <ele>139.051988</ele>
        <time>2026-05-05T20:32:11.737Z</time>
      </trkpt>
      <trkpt lat="43.478966" lon="10.736005">
        <ele>136.304425</ele>
        <time>2026-05-05T20:32:17.365Z</time>
      </trkpt>
      <trkpt lat="43.479067" lon="10.736153">
        <ele>134.791043</ele>
        <time>2026-05-05T20:32:21.002Z</time>
      </trkpt>
      <trkpt lat="43.479258" lon="10.736231">
        <ele>132.929043</ele>
        <time>2026-05-05T20:32:25.975Z</time>
      </trkpt>
      <trkpt lat="43.479503" lon="10.736427">
        <ele>130.281166</ele>
        <time>2026-05-05T20:32:33.106Z</time>
      </trkpt>
      <trkpt lat="43.479787" lon="10.736781">
        <ele>126.701912</ele>
        <time>2026-05-05T20:32:42.934Z</time>
      </trkpt>
      <trkpt lat="43.480558" lon="10.737494">
        <ele>118.383601</ele>
        <time>2026-05-05T20:33:08.265Z</time>
      </trkpt>
      <trkpt lat="43.480711" lon="10.737589">
        <ele>117.467895</ele>
        <time>2026-05-05T20:33:13.083Z</time>
      </trkpt>
      <trkpt lat="43.481628" lon="10.737671">
        <ele>112.453532</ele>
        <time>2026-05-05T20:33:39.617Z</time>
      </trkpt>
      <trkpt lat="43.481959" lon="10.737795">
        <ele>110.581808</ele>
        <time>2026-05-05T20:33:49.460Z</time>
      </trkpt>
      <trkpt lat="43.482651" lon="10.738231">
        <ele>106.686241</ele>
        <time>2026-05-05T20:34:11.128Z</time>
      </trkpt>
      <trkpt lat="43.482898" lon="10.738387">
        <ele>105.347387</ele>
        <time>2026-05-05T20:34:18.826Z</time>
      </trkpt>
      <trkpt lat="43.483882" lon="10.739474">
        <ele>99.511771</ele>
        <time>2026-05-05T20:34:55.699Z</time>
      </trkpt>
      <trkpt lat="43.483972" lon="10.739672">
        <ele>98.969788</ele>
        <time>2026-05-05T20:35:00.846Z</time>
      </trkpt>
      <trkpt lat="43.484058" lon="10.740447">
        <ele>97.151134</ele>
        <time>2026-05-05T20:35:18.211Z</time>
      </trkpt>
      <trkpt lat="43.484832" lon="10.741533">
        <ele>93.888907</ele>
        <time>2026-05-05T20:35:53.586Z</time>
      </trkpt>
      <trkpt lat="43.485750" lon="10.742762">
        <ele>91.106296</ele>
        <time>2026-05-05T20:36:37.332Z</time>
      </trkpt>
      <trkpt lat="43.486140" lon="10.742440">
        <ele>89.282411</ele>
        <time>2026-05-05T20:36:51.350Z</time>
      </trkpt>
      <trkpt lat="43.486233" lon="10.742446">
        <ele>88.688646</ele>
        <time>2026-05-05T20:36:54.108Z</time>
      </trkpt>
      <trkpt lat="43.486540" lon="10.742655">
        <ele>86.504911</ele>
        <time>2026-05-05T20:37:03.945Z</time>
      </trkpt>
      <trkpt lat="43.487638" lon="10.742537">
        <ele>79.481063</ele>
        <time>2026-05-05T20:37:33.352Z</time>
      </trkpt>
      <trkpt lat="43.488281" lon="10.742711">
        <ele>76.444410</ele>
        <time>2026-05-05T20:37:51.074Z</time>
      </trkpt>
      <trkpt lat="43.488431" lon="10.742916">
        <ele>75.504714</ele>
        <time>2026-05-05T20:37:57.079Z</time>
      </trkpt>
      <trkpt lat="43.488663" lon="10.742640">
        <ele>74.141390</ele>
        <time>2026-05-05T20:38:02.073Z</time>
      </trkpt>
      <trkpt lat="43.488954" lon="10.742356">
        <ele>72.555212</ele>
        <time>2026-05-05T20:38:08.332Z</time>
      </trkpt>
      <trkpt lat="43.490140" lon="10.741542">
        <ele>70.106781</ele>
        <time>2026-05-05T20:38:36.960Z</time>
      </trkpt>
      <trkpt lat="43.490746" lon="10.740959">
        <ele>69.384098</ele>
        <time>2026-05-05T20:38:52.164Z</time>
      </trkpt>
      <trkpt lat="43.491122" lon="10.740421">
        <ele>68.189409</ele>
        <time>2026-05-05T20:39:02.153Z</time>
      </trkpt>
      <trkpt lat="43.492287" lon="10.741250">
        <ele>65.072841</ele>
        <time>2026-05-05T20:39:26.872Z</time>
      </trkpt>
      <trkpt lat="43.493038" lon="10.741739">
        <ele>63.211514</ele>
        <time>2026-05-05T20:39:42.833Z</time>
      </trkpt>
      <trkpt lat="43.493094" lon="10.741802">
        <ele>63.049677</ele>
        <time>2026-05-05T20:39:44.212Z</time>
      </trkpt>
      <trkpt lat="43.493140" lon="10.741952">
        <ele>62.785165</ele>
        <time>2026-05-05T20:39:46.496Z</time>
      </trkpt>
      <trkpt lat="43.493034" lon="10.742283">
        <ele>62.197484</ele>
        <time>2026-05-05T20:39:51.666Z</time>
      </trkpt>
      <trkpt lat="43.493031" lon="10.742378">
        <ele>62.043034</ele>
        <time>2026-05-05T20:39:53.010Z</time>
      </trkpt>
      <trkpt lat="43.493074" lon="10.742494">
        <ele>61.831448</ele>
        <time>2026-05-05T20:39:54.861Z</time>
      </trkpt>
      <trkpt lat="43.493256" lon="10.742864">
        <ele>61.105352</ele>
        <time>2026-05-05T20:40:01.251Z</time>
      </trkpt>
      <trkpt lat="43.493383" lon="10.743099">
        <ele>60.869566</ele>
        <time>2026-05-05T20:40:05.459Z</time>
      </trkpt>
      <trkpt lat="43.492971" lon="10.743622">
        <ele>60.394463</ele>
        <time>2026-05-05T20:40:24.288Z</time>
      </trkpt>
      <trkpt lat="43.492923" lon="10.743683">
        <ele>60.339082</ele>
        <time>2026-05-05T20:40:26.525Z</time>
      </trkpt>
      <trkpt lat="43.492481" lon="10.743904">
        <ele>59.940245</ele>
        <time>2026-05-05T20:40:43.560Z</time>
      </trkpt>
      <trkpt lat="43.491897" lon="10.744449">
        <ele>59.549338</ele>
        <time>2026-05-05T20:41:11.430Z</time>
      </trkpt>
      <trkpt lat="43.491444" lon="10.745061">
        <ele>59.763328</ele>
        <time>2026-05-05T20:41:37.073Z</time>
      </trkpt>
      <trkpt lat="43.491358" lon="10.745306">
        <ele>59.829942</ele>
        <time>2026-05-05T20:41:44.956Z</time>
      </trkpt>
      <trkpt lat="43.491191" lon="10.745622">
        <ele>59.925628</ele>
        <time>2026-05-05T20:41:56.332Z</time>
      </trkpt>
      <trkpt lat="43.490938" lon="10.746390">
        <ele>60.157773</ele>
        <time>2026-05-05T20:42:21.037Z</time>
      </trkpt>
      <trkpt lat="43.490649" lon="10.747114">
        <ele>60.508868</ele>
        <time>2026-05-05T20:42:45.678Z</time>
      </trkpt>
      <trkpt lat="43.490297" lon="10.747752">
        <ele>60.849419</ele>
        <time>2026-05-05T20:43:10.182Z</time>
      </trkpt>
      <trkpt lat="43.489962" lon="10.748597">
        <ele>61.259401</ele>
        <time>2026-05-05T20:43:39.668Z</time>
      </trkpt>
      <trkpt lat="43.489202" lon="10.750165">
        <ele>62.066939</ele>
        <time>2026-05-05T20:44:36.483Z</time>
      </trkpt>
      <trkpt lat="43.488895" lon="10.750632">
        <ele>62.284764</ele>
        <time>2026-05-05T20:44:55.508Z</time>
      </trkpt>
      <trkpt lat="43.488810" lon="10.750788">
        <ele>62.333424</ele>
        <time>2026-05-05T20:45:01.348Z</time>
      </trkpt>
      <trkpt lat="43.488480" lon="10.751395">
        <ele>62.522608</ele>
        <time>2026-05-05T20:45:24.031Z</time>
      </trkpt>
      <trkpt lat="43.487597" lon="10.752600">
        <ele>62.869935</ele>
        <time>2026-05-05T20:46:12.804Z</time>
      </trkpt>
      <trkpt lat="43.487109" lon="10.753153">
        <ele>62.941735</ele>
        <time>2026-05-05T20:46:36.812Z</time>
      </trkpt>
      <trkpt lat="43.486586" lon="10.753627">
        <ele>63.012873</ele>
        <time>2026-05-05T20:47:00.962Z</time>
      </trkpt>
      <trkpt lat="43.485928" lon="10.754155">
        <ele>63.315902</ele>
        <time>2026-05-05T20:47:31.585Z</time>
      </trkpt>
      <trkpt lat="43.485192" lon="10.754431">
        <ele>63.693624</ele>
        <time>2026-05-05T20:48:03.272Z</time>
      </trkpt>
      <trkpt lat="43.484019" lon="10.754549">
        <ele>64.315172</ele>
        <time>2026-05-05T20:48:52.889Z</time>
      </trkpt>
      <trkpt lat="43.483351" lon="10.754821">
        <ele>64.698616</ele>
        <time>2026-05-05T20:49:21.344Z</time>
      </trkpt>
      <trkpt lat="43.483100" lon="10.755139">
        <ele>64.886301</ele>
        <time>2026-05-05T20:49:35.073Z</time>
      </trkpt>
      <trkpt lat="43.482752" lon="10.755189">
        <ele>65.092475</ele>
        <time>2026-05-05T20:49:49.208Z</time>
      </trkpt>
      <trkpt lat="43.482523" lon="10.755336">
        <ele>65.243104</ele>
        <time>2026-05-05T20:49:59.345Z</time>
      </trkpt>
      <trkpt lat="43.484158" lon="10.759628">
        <ele>68.665135</ele>
        <time>2026-05-05T20:52:28.443Z</time>
      </trkpt>
      <trkpt lat="43.484281" lon="10.759636">
        <ele>69.015347</ele>
        <time>2026-05-05T20:52:34.294Z</time>
      </trkpt>
      <trkpt lat="43.484697" lon="10.759107">
        <ele>70.625145</ele>
        <time>2026-05-05T20:53:03.494Z</time>
      </trkpt>
      <trkpt lat="43.485318" lon="10.758319">
        <ele>73.804353</ele>
        <time>2026-05-05T20:53:59.577Z</time>
      </trkpt>
      <trkpt lat="43.485816" lon="10.757858">
        <ele>77.804349</ele>
        <time>2026-05-05T20:54:48.226Z</time>
      </trkpt>
      <trkpt lat="43.486027" lon="10.757772">
        <ele>79.271477</ele>
        <time>2026-05-05T20:55:06.784Z</time>
      </trkpt>
      <trkpt lat="43.486338" lon="10.757815">
        <ele>81.355564</ele>
        <time>2026-05-05T20:55:33.490Z</time>
      </trkpt>
      <trkpt lat="43.487739" lon="10.758437">
        <ele>89.872563</ele>
        <time>2026-05-05T20:57:27.889Z</time>
      </trkpt>
      <trkpt lat="43.488315" lon="10.758780">
        <ele>93.249887</ele>
        <time>2026-05-05T20:58:08.696Z</time>
      </trkpt>
      <trkpt lat="43.489857" lon="10.758449">
        <ele>98.249713</ele>
        <time>2026-05-05T20:59:35.068Z</time>
      </trkpt>
      <trkpt lat="43.490012" lon="10.758415">
        <ele>98.712984</ele>
        <time>2026-05-05T20:59:43.279Z</time>
      </trkpt>
      <trkpt lat="43.492813" lon="10.759521">
        <ele>107.594440</ele>
        <time>2026-05-05T21:02:20.711Z</time>
      </trkpt>
      <trkpt lat="43.493328" lon="10.759567">
        <ele>109.605808</ele>
        <time>2026-05-05T21:02:53.067Z</time>
      </trkpt>
      <trkpt lat="43.495523" lon="10.759864">
        <ele>122.002634</ele>
        <time>2026-05-05T21:05:37.079Z</time>
      </trkpt>
      <trkpt lat="43.495981" lon="10.760175">
        <ele>123.878307</ele>
        <time>2026-05-05T21:06:17.707Z</time>
      </trkpt>
      <trkpt lat="43.496465" lon="10.760293">
        <ele>125.675861</ele>
        <time>2026-05-05T21:06:50.965Z</time>
      </trkpt>
      <trkpt lat="43.496748" lon="10.760540">
        <ele>126.900851</ele>
        <time>2026-05-05T21:07:10.078Z</time>
      </trkpt>
      <trkpt lat="43.496784" lon="10.760572">
        <ele>127.057508</ele>
        <time>2026-05-05T21:07:12.252Z</time>
      </trkpt>
      <trkpt lat="43.497281" lon="10.761661">
        <ele>127.937252</ele>
        <time>2026-05-05T21:07:47.340Z</time>
      </trkpt>
      <trkpt lat="43.498059" lon="10.762610">
        <ele>126.585067</ele>
        <time>2026-05-05T21:08:20.718Z</time>
      </trkpt>
      <trkpt lat="43.498624" lon="10.762679">
        <ele>126.762667</ele>
        <time>2026-05-05T21:08:40.252Z</time>
      </trkpt>
      <trkpt lat="43.498610" lon="10.762820">
        <ele>126.925324</ele>
        <time>2026-05-05T21:08:44.066Z</time>
      </trkpt>
      <trkpt lat="43.498481" lon="10.763000">
        <ele>127.214524</ele>
        <time>2026-05-05T21:08:51.134Z</time>
      </trkpt>
      <trkpt lat="43.498610" lon="10.762820">
        <ele>127.503724</ele>
        <time>2026-05-05T21:08:58.906Z</time>
      </trkpt>
      <trkpt lat="43.498624" lon="10.762679">
        <ele>127.666380</ele>
        <time>2026-05-05T21:09:03.526Z</time>
      </trkpt>
      <trkpt lat="43.498993" lon="10.762739">
        <ele>128.251812</ele>
        <time>2026-05-05T21:09:22.381Z</time>
      </trkpt>
      <trkpt lat="43.499297" lon="10.762879">
        <ele>128.756818</ele>
        <time>2026-05-05T21:09:41.277Z</time>
      </trkpt>
      <trkpt lat="43.499787" lon="10.762964">
        <ele>130.993857</ele>
        <time>2026-05-05T21:10:13.945Z</time>
      </trkpt>
      <trkpt lat="43.500385" lon="10.763205">
        <ele>135.231229</ele>
        <time>2026-05-05T21:11:01.748Z</time>
      </trkpt>
      <trkpt lat="43.501149" lon="10.763512">
        <ele>140.643614</ele>
        <time>2026-05-05T21:12:12.254Z</time>
      </trkpt>
      <trkpt lat="43.501701" lon="10.764209">
        <ele>145.035938</ele>
        <time>2026-05-05T21:13:15.946Z</time>
      </trkpt>
      <trkpt lat="43.501865" lon="10.764565">
        <ele>146.786584</ele>
        <time>2026-05-05T21:13:38.655Z</time>
      </trkpt>
      <trkpt lat="43.501943" lon="10.764735">
        <ele>147.621602</ele>
        <time>2026-05-05T21:13:48.885Z</time>
      </trkpt>
      <trkpt lat="43.502301" lon="10.765239">
        <ele>150.549849</ele>
        <time>2026-05-05T21:14:21.537Z</time>
      </trkpt>
      <trkpt lat="43.502744" lon="10.765636">
        <ele>152.445144</ele>
        <time>2026-05-05T21:14:51.019Z</time>
      </trkpt>
      <trkpt lat="43.503382" lon="10.765765">
        <ele>154.002112</ele>
        <time>2026-05-05T21:15:26.962Z</time>
      </trkpt>
      <trkpt lat="43.503943" lon="10.765733">
        <ele>155.357839</ele>
        <time>2026-05-05T21:15:57.321Z</time>
      </trkpt>
      <trkpt lat="43.504308" lon="10.765893">
        <ele>155.772158</ele>
        <time>2026-05-05T21:16:14.472Z</time>
      </trkpt>
      <trkpt lat="43.504464" lon="10.766344">
        <ele>155.243271</ele>
        <time>2026-05-05T21:16:27.939Z</time>
      </trkpt>
      <trkpt lat="43.504781" lon="10.766848">
        <ele>154.537146</ele>
        <time>2026-05-05T21:16:43.543Z</time>
      </trkpt>
      <trkpt lat="43.505047" lon="10.767005">
        <ele>154.114883</ele>
        <time>2026-05-05T21:16:52.206Z</time>
      </trkpt>
      <trkpt lat="43.505019" lon="10.767113">
        <ele>153.993483</ele>
        <time>2026-05-05T21:16:53.637Z</time>
      </trkpt>
      <trkpt lat="43.504636" lon="10.768570">
        <ele>155.045767</ele>
        <time>2026-05-05T21:17:16.461Z</time>
      </trkpt>
      <trkpt lat="43.504617" lon="10.768928">
        <ele>155.702895</ele>
        <time>2026-05-05T21:17:27.943Z</time>
      </trkpt>
      <trkpt lat="43.504653" lon="10.769099">
        <ele>156.028857</ele>
        <time>2026-05-05T21:17:34.499Z</time>
      </trkpt>
      <trkpt lat="43.504739" lon="10.769301">
        <ele>156.457646</ele>
        <time>2026-05-05T21:17:43.876Z</time>
      </trkpt>
      <trkpt lat="43.504985" lon="10.769626">
        <ele>157.317577</ele>
        <time>2026-05-05T21:18:05.295Z</time>
      </trkpt>
      <trkpt lat="43.505044" lon="10.769760">
        <ele>157.604544</ele>
        <time>2026-05-05T21:18:13.001Z</time>
      </trkpt>
      <trkpt lat="43.505075" lon="10.770104">
        <ele>158.322998</ele>
        <time>2026-05-05T21:18:30.044Z</time>
      </trkpt>
      <trkpt lat="43.504990" lon="10.771041">
        <ele>160.454573</ele>
        <time>2026-05-05T21:19:06.157Z</time>
      </trkpt>
      <trkpt lat="43.505027" lon="10.771335">
        <ele>161.128137</ele>
        <time>2026-05-05T21:19:13.609Z</time>
      </trkpt>
      <trkpt lat="43.505185" lon="10.771901">
        <ele>162.497130</ele>
        <time>2026-05-05T21:19:26.544Z</time>
      </trkpt>
      <trkpt lat="43.505372" lon="10.772293">
        <ele>163.552888</ele>
        <time>2026-05-05T21:19:36.113Z</time>
      </trkpt>
      <trkpt lat="43.505424" lon="10.772403">
        <ele>163.836805</ele>
        <time>2026-05-05T21:19:38.829Z</time>
      </trkpt>
      <trkpt lat="43.505588" lon="10.772577">
        <ele>164.453741</ele>
        <time>2026-05-05T21:19:44.731Z</time>
      </trkpt>
      <trkpt lat="43.506170" lon="10.772938">
        <ele>166.356340</ele>
        <time>2026-05-05T21:20:08.754Z</time>
      </trkpt>
      <trkpt lat="43.506485" lon="10.773059">
        <ele>167.331204</ele>
        <time>2026-05-05T21:20:25.770Z</time>
      </trkpt>
      <trkpt lat="43.506792" lon="10.773062">
        <ele>168.246474</ele>
        <time>2026-05-05T21:20:42.831Z</time>
      </trkpt>
      <trkpt lat="43.506907" lon="10.773116">
        <ele>168.608657</ele>
        <time>2026-05-05T21:20:49.286Z</time>
      </trkpt>
      <trkpt lat="43.507233" lon="10.773414">
        <ele>169.801361</ele>
        <time>2026-05-05T21:21:08.972Z</time>
      </trkpt>
      <trkpt lat="43.507505" lon="10.773477">
        <ele>170.647016</ele>
        <time>2026-05-05T21:21:21.862Z</time>
      </trkpt>
      <trkpt lat="43.507933" lon="10.773452">
        <ele>171.960468</ele>
        <time>2026-05-05T21:21:40.305Z</time>
      </trkpt>
      <trkpt lat="43.508026" lon="10.773409">
        <ele>172.261218</ele>
        <time>2026-05-05T21:21:44.284Z</time>
      </trkpt>
      <trkpt lat="43.508248" lon="10.773301">
        <ele>172.983011</ele>
        <time>2026-05-05T21:21:53.784Z</time>
      </trkpt>
      <trkpt lat="43.508281" lon="10.773286">
        <ele>173.089548</ele>
        <time>2026-05-05T21:21:55.153Z</time>
      </trkpt>
      <trkpt lat="43.509582" lon="10.772795">
        <ele>175.290187</ele>
        <time>2026-05-05T21:22:41.476Z</time>
      </trkpt>
      <trkpt lat="43.509743" lon="10.772717">
        <ele>175.460795</ele>
        <time>2026-05-05T21:22:47.256Z</time>
      </trkpt>
      <trkpt lat="43.510296" lon="10.772304">
        <ele>176.089550</ele>
        <time>2026-05-05T21:23:06.034Z</time>
      </trkpt>
      <trkpt lat="43.510382" lon="10.772199">
        <ele>175.922317</ele>
        <time>2026-05-05T21:23:08.555Z</time>
      </trkpt>
      <trkpt lat="43.510500" lon="10.772045">
        <ele>175.207725</ele>
        <time>2026-05-05T21:23:11.900Z</time>
      </trkpt>
      <trkpt lat="43.510795" lon="10.771794">
        <ele>173.683131</ele>
        <time>2026-05-05T21:23:18.459Z</time>
      </trkpt>
      <trkpt lat="43.511010" lon="10.771558">
        <ele>172.474482</ele>
        <time>2026-05-05T21:23:23.371Z</time>
      </trkpt>
      <trkpt lat="43.512140" lon="10.770890">
        <ele>166.751654</ele>
        <time>2026-05-05T21:23:57.366Z</time>
      </trkpt>
      <trkpt lat="43.512655" lon="10.770745">
        <ele>163.818931</ele>
        <time>2026-05-05T21:24:11.619Z</time>
      </trkpt>
      <trkpt lat="43.513379" lon="10.770542">
        <ele>159.696718</ele>
        <time>2026-05-05T21:24:32.559Z</time>
      </trkpt>
      <trkpt lat="43.513758" lon="10.770576">
        <ele>158.200243</ele>
        <time>2026-05-05T21:24:44.091Z</time>
      </trkpt>
      <trkpt lat="43.514288" lon="10.770750">
        <ele>158.172639</ele>
        <time>2026-05-05T21:25:02.756Z</time>
      </trkpt>
      <trkpt lat="43.514641" lon="10.770667">
        <ele>158.154496</ele>
        <time>2026-05-05T21:25:17.296Z</time>
      </trkpt>
      <trkpt lat="43.514925" lon="10.770556">
        <ele>158.139540</ele>
        <time>2026-05-05T21:25:31.051Z</time>
      </trkpt>
      <trkpt lat="43.515375" lon="10.770842">
        <ele>158.120122</ele>
        <time>2026-05-05T21:25:56.544Z</time>
      </trkpt>
      <trkpt lat="43.515985" lon="10.771388">
        <ele>158.630038</ele>
        <time>2026-05-05T21:26:34.166Z</time>
      </trkpt>
      <trkpt lat="43.516213" lon="10.771543">
        <ele>158.808276</ele>
        <time>2026-05-05T21:26:45.455Z</time>
      </trkpt>
      <trkpt lat="43.516400" lon="10.771752">
        <ele>158.977052</ele>
        <time>2026-05-05T21:26:55.074Z</time>
      </trkpt>
      <trkpt lat="43.516540" lon="10.772111">
        <ele>159.184313</ele>
        <time>2026-05-05T21:27:06.084Z</time>
      </trkpt>
      <trkpt lat="43.516754" lon="10.772492">
        <ele>159.103468</ele>
        <time>2026-05-05T21:27:18.385Z</time>
      </trkpt>
      <trkpt lat="43.517419" lon="10.773291">
        <ele>155.946804</ele>
        <time>2026-05-05T21:27:46.665Z</time>
      </trkpt>
      <trkpt lat="43.518411" lon="10.773801">
        <ele>151.388340</ele>
        <time>2026-05-05T21:28:17.134Z</time>
      </trkpt>
      <trkpt lat="43.518723" lon="10.773839">
        <ele>149.162877</ele>
        <time>2026-05-05T21:28:25.657Z</time>
      </trkpt>
      <trkpt lat="43.519178" lon="10.773565">
        <ele>145.635195</ele>
        <time>2026-05-05T21:28:39.048Z</time>
      </trkpt>
      <trkpt lat="43.519532" lon="10.773404">
        <ele>142.986684</ele>
        <time>2026-05-05T21:28:48.987Z</time>
      </trkpt>
      <trkpt lat="43.521403" lon="10.772970">
        <ele>129.525833</ele>
        <time>2026-05-05T21:29:40.273Z</time>
      </trkpt>
      <trkpt lat="43.521745" lon="10.772970">
        <ele>127.143140</ele>
        <time>2026-05-05T21:29:49.843Z</time>
      </trkpt>
      <trkpt lat="43.522025" lon="10.773168">
        <ele>125.227129</ele>
        <time>2026-05-05T21:29:58.886Z</time>
      </trkpt>
      <trkpt lat="43.522659" lon="10.773393">
        <ele>121.240876</ele>
        <time>2026-05-05T21:30:17.703Z</time>
      </trkpt>
      <trkpt lat="43.522826" lon="10.773264">
        <ele>120.075355</ele>
        <time>2026-05-05T21:30:23.027Z</time>
      </trkpt>
      <trkpt lat="43.522892" lon="10.772943">
        <ele>118.602201</ele>
        <time>2026-05-05T21:30:29.697Z</time>
      </trkpt>
      <trkpt lat="43.522873" lon="10.772814">
        <ele>118.021010</ele>
        <time>2026-05-05T21:30:32.310Z</time>
      </trkpt>
      <trkpt lat="43.523021" lon="10.772873">
        <ele>117.082931</ele>
        <time>2026-05-05T21:30:36.504Z</time>
      </trkpt>
      <trkpt lat="43.523196" lon="10.773109">
        <ele>115.651639</ele>
        <time>2026-05-05T21:30:43.167Z</time>
      </trkpt>
      <trkpt lat="43.523281" lon="10.773302">
        <ele>114.723274</ele>
        <time>2026-05-05T21:30:47.657Z</time>
      </trkpt>
      <trkpt lat="43.523538" lon="10.773576">
        <ele>112.881457</ele>
        <time>2026-05-05T21:30:56.582Z</time>
      </trkpt>
      <trkpt lat="43.523690" lon="10.773603">
        <ele>112.012510</ele>
        <time>2026-05-05T21:31:00.779Z</time>
      </trkpt>
      <trkpt lat="43.523947" lon="10.773527">
        <ele>110.522218</ele>
        <time>2026-05-05T21:31:08.001Z</time>
      </trkpt>
      <trkpt lat="43.524343" lon="10.773307">
        <ele>108.101604</ele>
        <time>2026-05-05T21:31:20.318Z</time>
      </trkpt>
      <trkpt lat="43.524627" lon="10.773184">
        <ele>106.413814</ele>
        <time>2026-05-05T21:31:29.365Z</time>
      </trkpt>
      <trkpt lat="43.524946" lon="10.773216">
        <ele>104.865771</ele>
        <time>2026-05-05T21:31:39.391Z</time>
      </trkpt>
      <trkpt lat="43.525359" lon="10.773361">
        <ele>102.837597</ele>
        <time>2026-05-05T21:31:52.685Z</time>
      </trkpt>
      <trkpt lat="43.525782" lon="10.773635">
        <ele>100.613544</ele>
        <time>2026-05-05T21:32:06.581Z</time>
      </trkpt>
      <trkpt lat="43.526043" lon="10.773865">
        <ele>99.139532</ele>
        <time>2026-05-05T21:32:15.339Z</time>
      </trkpt>
      <trkpt lat="43.526300" lon="10.773924">
        <ele>97.899628</ele>
        <time>2026-05-05T21:32:22.516Z</time>
      </trkpt>
      <trkpt lat="43.526910" lon="10.773801">
        <ele>93.567532</ele>
        <time>2026-05-05T21:32:39.109Z</time>
      </trkpt>
      <trkpt lat="43.527089" lon="10.773619">
        <ele>91.966571</ele>
        <time>2026-05-05T21:32:45.011Z</time>
      </trkpt>
      <trkpt lat="43.527820" lon="10.772621">
        <ele>84.594851</ele>
        <time>2026-05-05T21:33:12.859Z</time>
      </trkpt>
      <trkpt lat="43.528330" lon="10.772036">
        <ele>80.685091</ele>
        <time>2026-05-05T21:33:31.579Z</time>
      </trkpt>
      <trkpt lat="43.528684" lon="10.771703">
        <ele>78.159468</ele>
        <time>2026-05-05T21:33:43.860Z</time>
      </trkpt>
      <trkpt lat="43.529256" lon="10.771462">
        <ele>74.634199</ele>
        <time>2026-05-05T21:34:00.901Z</time>
      </trkpt>
      <trkpt lat="43.529808" lon="10.771033">
        <ele>70.840159</ele>
        <time>2026-05-05T21:34:18.504Z</time>
      </trkpt>
      <trkpt lat="43.529956" lon="10.771033">
        <ele>69.951814</ele>
        <time>2026-05-05T21:34:22.562Z</time>
      </trkpt>
      <trkpt lat="43.530115" lon="10.771532">
        <ele>67.579816</ele>
        <time>2026-05-05T21:34:33.400Z</time>
      </trkpt>
      <trkpt lat="43.530158" lon="10.771752">
        <ele>66.588249</ele>
        <time>2026-05-05T21:34:37.945Z</time>
      </trkpt>
      <trkpt lat="43.530290" lon="10.771945">
        <ele>65.433622</ele>
        <time>2026-05-05T21:34:43.297Z</time>
      </trkpt>
      <trkpt lat="43.530675" lon="10.772095">
        <ele>63.278498</ele>
        <time>2026-05-05T21:34:54.640Z</time>
      </trkpt>
      <trkpt lat="43.530959" lon="10.772159">
        <ele>62.904373</ele>
        <time>2026-05-05T21:35:03.213Z</time>
      </trkpt>
      <trkpt lat="43.531060" lon="10.772326">
        <ele>62.699385</ele>
        <time>2026-05-05T21:35:08.109Z</time>
      </trkpt>
      <trkpt lat="43.531029" lon="10.772760">
        <ele>62.288327</ele>
        <time>2026-05-05T21:35:18.530Z</time>
      </trkpt>
      <trkpt lat="43.531111" lon="10.773050">
        <ele>61.994927</ele>
        <time>2026-05-05T21:35:26.562Z</time>
      </trkpt>
      <trkpt lat="43.532027" lon="10.774717">
        <ele>60.854995</ele>
        <time>2026-05-05T21:36:35.448Z</time>
      </trkpt>
      <trkpt lat="43.532091" lon="10.774639">
        <ele>60.837727</ele>
        <time>2026-05-05T21:36:37.917Z</time>
      </trkpt>
      <trkpt lat="43.535278" lon="10.768820">
        <ele>58.493686</ele>
        <time>2026-05-05T21:38:29.742Z</time>
      </trkpt>
      <trkpt lat="43.536020" lon="10.767856">
        <ele>57.575803</ele>
        <time>2026-05-05T21:38:50.160Z</time>
      </trkpt>
      <trkpt lat="43.536545" lon="10.767243">
        <ele>57.283286</ele>
        <time>2026-05-05T21:39:03.846Z</time>
      </trkpt>
      <trkpt lat="43.536959" lon="10.767032">
        <ele>57.110375</ele>
        <time>2026-05-05T21:39:12.995Z</time>
      </trkpt>
      <trkpt lat="43.538781" lon="10.766345">
        <ele>57.387717</ele>
        <time>2026-05-05T21:40:02.885Z</time>
      </trkpt>
      <trkpt lat="43.540699" lon="10.765714">
        <ele>57.627937</ele>
        <time>2026-05-05T21:40:52.025Z</time>
      </trkpt>
      <trkpt lat="43.543100" lon="10.764967">
        <ele>55.696098</ele>
        <time>2026-05-05T21:41:42.238Z</time>
      </trkpt>
      <trkpt lat="43.543497" lon="10.764739">
        <ele>55.161632</ele>
        <time>2026-05-05T21:41:50.691Z</time>
      </trkpt>
      <trkpt lat="43.543763" lon="10.764530">
        <ele>54.781170</ele>
        <time>2026-05-05T21:41:56.667Z</time>
      </trkpt>
      <trkpt lat="43.545961" lon="10.762804">
        <ele>52.091504</ele>
        <time>2026-05-05T21:42:46.480Z</time>
      </trkpt>
      <trkpt lat="43.546096" lon="10.762701">
        <ele>52.001751</ele>
        <time>2026-05-05T21:42:49.934Z</time>
      </trkpt>
      <trkpt lat="43.547770" lon="10.761593">
        <ele>53.609829</ele>
        <time>2026-05-05T21:43:43.700Z</time>
      </trkpt>
      <trkpt lat="43.548085" lon="10.761576">
        <ele>54.111335</ele>
        <time>2026-05-05T21:43:54.584Z</time>
      </trkpt>
      <trkpt lat="43.548716" lon="10.761716">
        <ele>55.128068</ele>
        <time>2026-05-05T21:44:16.588Z</time>
      </trkpt>
      <trkpt lat="43.548775" lon="10.761696">
        <ele>55.224720</ele>
        <time>2026-05-05T21:44:18.712Z</time>
      </trkpt>
      <trkpt lat="43.548883" lon="10.761576">
        <ele>55.445321</ele>
        <time>2026-05-05T21:44:23.614Z</time>
      </trkpt>
      <trkpt lat="43.549257" lon="10.761280">
        <ele>56.131244</ele>
        <time>2026-05-05T21:44:38.492Z</time>
      </trkpt>
      <trkpt lat="43.549700" lon="10.760979">
        <ele>56.487018</ele>
        <time>2026-05-05T21:44:54.170Z</time>
      </trkpt>
      <trkpt lat="43.549945" lon="10.760813">
        <ele>56.605530</ele>
        <time>2026-05-05T21:45:01.917Z</time>
      </trkpt>
      <trkpt lat="43.550289" lon="10.760587">
        <ele>56.770960</ele>
        <time>2026-05-05T21:45:11.938Z</time>
      </trkpt>
      <trkpt lat="43.550897" lon="10.760270">
        <ele>57.053170</ele>
        <time>2026-05-05T21:45:27.554Z</time>
      </trkpt>
      <trkpt lat="43.551029" lon="10.760140">
        <ele>57.088733</ele>
        <time>2026-05-05T21:45:31.302Z</time>
      </trkpt>
      <trkpt lat="43.551561" lon="10.759476">
        <ele>56.759661</ele>
        <time>2026-05-05T21:45:47.554Z</time>
      </trkpt>
      <trkpt lat="43.551885" lon="10.759222">
        <ele>56.588721</ele>
        <time>2026-05-05T21:45:55.847Z</time>
      </trkpt>
      <trkpt lat="43.552006" lon="10.759086">
        <ele>56.517130</ele>
        <time>2026-05-05T21:45:59.273Z</time>
      </trkpt>
      <trkpt lat="43.552376" lon="10.758288">
        <ele>56.359135</ele>
        <time>2026-05-05T21:46:14.986Z</time>
      </trkpt>
      <trkpt lat="43.552592" lon="10.757964">
        <ele>56.502165</ele>
        <time>2026-05-05T21:46:22.869Z</time>
      </trkpt>
      <trkpt lat="43.553180" lon="10.757338">
        <ele>56.835106</ele>
        <time>2026-05-05T21:46:43.532Z</time>
      </trkpt>
      <trkpt lat="43.553345" lon="10.757192">
        <ele>56.922978</ele>
        <time>2026-05-05T21:46:49.343Z</time>
      </trkpt>
      <trkpt lat="43.553728" lon="10.756939">
        <ele>57.075152</ele>
        <time>2026-05-05T21:47:02.638Z</time>
      </trkpt>
      <trkpt lat="43.554610" lon="10.756548">
        <ele>56.867395</ele>
        <time>2026-05-05T21:47:27.280Z</time>
      </trkpt>
      <trkpt lat="43.554980" lon="10.756301">
        <ele>56.775217</ele>
        <time>2026-05-05T21:47:36.324Z</time>
      </trkpt>
      <trkpt lat="43.555130" lon="10.756163">
        <ele>56.734786</ele>
        <time>2026-05-05T21:47:40.182Z</time>
      </trkpt>
      <trkpt lat="43.555258" lon="10.755985">
        <ele>56.694032</ele>
        <time>2026-05-05T21:47:43.992Z</time>
      </trkpt>
      <trkpt lat="43.555618" lon="10.755330">
        <ele>55.895810</ele>
        <time>2026-05-05T21:47:56.127Z</time>
      </trkpt>
      <trkpt lat="43.556002" lon="10.754391">
        <ele>54.782056</ele>
        <time>2026-05-05T21:48:11.955Z</time>
      </trkpt>
      <trkpt lat="43.556102" lon="10.754165">
        <ele>54.508526</ele>
        <time>2026-05-05T21:48:15.906Z</time>
      </trkpt>
      <trkpt lat="43.556404" lon="10.753631">
        <ele>53.913654</ele>
        <time>2026-05-05T21:48:26.218Z</time>
      </trkpt>
      <trkpt lat="43.556728" lon="10.752839">
        <ele>53.289923</ele>
        <time>2026-05-05T21:48:40.611Z</time>
      </trkpt>
      <trkpt lat="43.556891" lon="10.752622">
        <ele>53.075581</ele>
        <time>2026-05-05T21:48:45.655Z</time>
      </trkpt>
      <trkpt lat="43.557535" lon="10.752170">
        <ele>52.384094</ele>
        <time>2026-05-05T21:49:01.470Z</time>
      </trkpt>
      <trkpt lat="43.557728" lon="10.751991">
        <ele>52.100440</ele>
        <time>2026-05-05T21:49:06.414Z</time>
      </trkpt>
      <trkpt lat="43.558086" lon="10.751588">
        <ele>51.536881</ele>
        <time>2026-05-05T21:49:16.030Z</time>
      </trkpt>
      <trkpt lat="43.558580" lon="10.750791">
        <ele>50.609823</ele>
        <time>2026-05-05T21:49:31.626Z</time>
      </trkpt>
      <trkpt lat="43.558606" lon="10.750749">
        <ele>50.560995</ele>
        <time>2026-05-05T21:49:32.443Z</time>
      </trkpt>
      <trkpt lat="43.558615" lon="10.750737">
        <ele>50.545729</ele>
        <time>2026-05-05T21:49:32.705Z</time>
      </trkpt>
      <trkpt lat="43.558839" lon="10.750442">
        <ele>50.196394</ele>
        <time>2026-05-05T21:49:39.168Z</time>
      </trkpt>
      <trkpt lat="43.557419" lon="10.747756">
        <ele>48.735472</ele>
        <time>2026-05-05T21:51:07.271Z</time>
      </trkpt>
      <trkpt lat="43.557053" lon="10.747040">
        <ele>48.353989</ele>
        <time>2026-05-05T21:51:30.670Z</time>
      </trkpt>
      <trkpt lat="43.557053" lon="10.747040">
        <ele>48.353989</ele>
        <time>2026-05-05T21:51:30.679Z</time>
      </trkpt>
      <trkpt lat="43.556565" lon="10.746238">
        <ele>48.081787</ele>
        <time>2026-05-05T21:52:03.137Z</time>
      </trkpt>
      <trkpt lat="43.556077" lon="10.745436">
        <ele>48.178360</ele>
        <time>2026-05-05T21:52:35.595Z</time>
      </trkpt>
      <trkpt lat="43.555589" lon="10.744635">
        <ele>48.274864</ele>
        <time>2026-05-05T21:53:08.028Z</time>
      </trkpt>
      <trkpt lat="43.554953" lon="10.744860">
        <ele>52.549686</ele>
        <time>2026-05-05T21:53:36.125Z</time>
      </trkpt>
      <trkpt lat="43.554317" lon="10.745085">
        <ele>57.018163</ele>
        <time>2026-05-05T21:54:04.275Z</time>
      </trkpt>
      <trkpt lat="43.553681" lon="10.745310">
        <ele>61.727561</ele>
        <time>2026-05-05T21:54:32.477Z</time>
      </trkpt>
      <trkpt lat="43.553681" lon="10.745310">
        <ele>61.727561</ele>
        <time>2026-05-05T21:54:32.488Z</time>
      </trkpt>
      <trkpt lat="43.553044" lon="10.745351">
        <ele>67.148922</ele>
        <time>2026-05-05T21:54:59.878Z</time>
      </trkpt>
      <trkpt lat="43.552408" lon="10.745393">
        <ele>72.562082</ele>
        <time>2026-05-05T21:55:27.185Z</time>
      </trkpt>
      <trkpt lat="43.551772" lon="10.745435">
        <ele>77.253621</ele>
        <time>2026-05-05T21:55:54.455Z</time>
      </trkpt>
      <trkpt lat="43.551112" lon="10.745460">
        <ele>80.995217</ele>
        <time>2026-05-05T21:56:22.722Z</time>
      </trkpt>
      <trkpt lat="43.550453" lon="10.745485">
        <ele>84.731147</ele>
        <time>2026-05-05T21:56:50.951Z</time>
      </trkpt>
      <trkpt lat="43.550453" lon="10.745485">
        <ele>84.731147</ele>
        <time>2026-05-05T21:56:50.958Z</time>
      </trkpt>
      <trkpt lat="43.549806" lon="10.745902">
        <ele>89.703142</ele>
        <time>2026-05-05T21:57:21.541Z</time>
      </trkpt>
      <trkpt lat="43.549160" lon="10.746319">
        <ele>95.092708</ele>
        <time>2026-05-05T21:57:52.110Z</time>
      </trkpt>
      <trkpt lat="43.548519" lon="10.746847">
        <ele>101.228991</ele>
        <time>2026-05-05T21:58:24.134Z</time>
      </trkpt>
      <trkpt lat="43.547878" lon="10.747376">
        <ele>109.326376</ele>
        <time>2026-05-05T21:58:56.237Z</time>
      </trkpt>
      <trkpt lat="43.547238" lon="10.747904">
        <ele>117.410447</ele>
        <time>2026-05-05T21:59:28.319Z</time>
      </trkpt>
      <trkpt lat="43.546597" lon="10.748432">
        <ele>123.912770</ele>
        <time>2026-05-05T22:00:00.381Z</time>
      </trkpt>
      <trkpt lat="43.546409" lon="10.748572">
        <ele>125.653838</ele>
        <time>2026-05-05T22:00:20.063Z</time>
      </trkpt>
      <trkpt lat="43.546356" lon="10.748595">
        <ele>126.106632</ele>
        <time>2026-05-05T22:00:25.199Z</time>
      </trkpt>
      <trkpt lat="43.546295" lon="10.748580">
        <ele>126.611594</ele>
        <time>2026-05-05T22:00:30.831Z</time>
      </trkpt>
      <trkpt lat="43.545966" lon="10.748171">
        <ele>130.220734</ele>
        <time>2026-05-05T22:01:08.744Z</time>
      </trkpt>
      <trkpt lat="43.545839" lon="10.748190">
        <ele>131.261805</ele>
        <time>2026-05-05T22:01:18.834Z</time>
      </trkpt>
      <trkpt lat="43.545605" lon="10.747947">
        <ele>133.648668</ele>
        <time>2026-05-05T22:01:39.204Z</time>
      </trkpt>
      <trkpt lat="43.545135" lon="10.747603">
        <ele>134.225336</ele>
        <time>2026-05-05T22:02:11.728Z</time>
      </trkpt>
      <trkpt lat="43.544952" lon="10.747415">
        <ele>134.432796</ele>
        <time>2026-05-05T22:02:24.615Z</time>
      </trkpt>
      <trkpt lat="43.543779" lon="10.745672">
        <ele>133.541490</ele>
        <time>2026-05-05T22:03:22.999Z</time>
      </trkpt>
      <trkpt lat="43.543695" lon="10.745273">
        <ele>132.714525</ele>
        <time>2026-05-05T22:03:32.222Z</time>
      </trkpt>
      <trkpt lat="43.543835" lon="10.744579">
        <ele>131.280730</ele>
        <time>2026-05-05T22:03:48.217Z</time>
      </trkpt>
      <trkpt lat="43.543851" lon="10.744257">
        <ele>130.638337</ele>
        <time>2026-05-05T22:03:55.213Z</time>
      </trkpt>
      <trkpt lat="43.543946" lon="10.743692">
        <ele>129.252940</ele>
        <time>2026-05-05T22:04:07.955Z</time>
      </trkpt>
      <trkpt lat="43.543946" lon="10.743182">
        <ele>127.995108</ele>
        <time>2026-05-05T22:04:19.370Z</time>
      </trkpt>
      <trkpt lat="43.543960" lon="10.742806">
        <ele>127.066543</ele>
        <time>2026-05-05T22:04:27.737Z</time>
      </trkpt>
      <trkpt lat="43.544136" lon="10.742236">
        <ele>125.538498</ele>
        <time>2026-05-05T22:04:41.354Z</time>
      </trkpt>
      <trkpt lat="43.544251" lon="10.741698">
        <ele>124.243095</ele>
        <time>2026-05-05T22:04:53.675Z</time>
      </trkpt>
      <trkpt lat="43.544620" lon="10.740678">
        <ele>122.847356</ele>
        <time>2026-05-05T22:05:20.891Z</time>
      </trkpt>
      <trkpt lat="43.544731" lon="10.740421">
        <ele>122.481074</ele>
        <time>2026-05-05T22:05:28.722Z</time>
      </trkpt>
      <trkpt lat="43.545043" lon="10.739840">
        <ele>121.595779</ele>
        <time>2026-05-05T22:05:48.336Z</time>
      </trkpt>
      <trkpt lat="43.545209" lon="10.739378">
        <ele>120.167969</ele>
        <time>2026-05-05T22:06:01.400Z</time>
      </trkpt>
      <trkpt lat="43.545286" lon="10.739254">
        <ele>119.481458</ele>
        <time>2026-05-05T22:06:05.227Z</time>
      </trkpt>
      <trkpt lat="43.545711" lon="10.738845">
        <ele>116.475715</ele>
        <time>2026-05-05T22:06:20.868Z</time>
      </trkpt>
      <trkpt lat="43.545773" lon="10.738665">
        <ele>115.637818</ele>
        <time>2026-05-05T22:06:24.952Z</time>
      </trkpt>
      <trkpt lat="43.545905" lon="10.737961">
        <ele>112.580492</ele>
        <time>2026-05-05T22:06:39.129Z</time>
      </trkpt>
      <trkpt lat="43.546457" lon="10.736518">
        <ele>101.557829</ele>
        <time>2026-05-05T22:07:09.245Z</time>
      </trkpt>
      <trkpt lat="43.546437" lon="10.736251">
        <ele>99.514979</ele>
        <time>2026-05-05T22:07:14.170Z</time>
      </trkpt>
      <trkpt lat="43.546287" lon="10.735543">
        <ele>93.901205</ele>
        <time>2026-05-05T22:07:27.774Z</time>
      </trkpt>
      <trkpt lat="43.546047" lon="10.734863">
        <ele>88.608686</ele>
        <time>2026-05-05T22:07:41.856Z</time>
      </trkpt>
      <trkpt lat="43.545956" lon="10.734358">
        <ele>85.128032</ele>
        <time>2026-05-05T22:07:51.646Z</time>
      </trkpt>
      <trkpt lat="43.545947" lon="10.734136">
        <ele>83.640802</ele>
        <time>2026-05-05T22:07:55.859Z</time>
      </trkpt>
      <trkpt lat="43.545959" lon="10.733909">
        <ele>82.118416</ele>
        <time>2026-05-05T22:08:00.195Z</time>
      </trkpt>
      <trkpt lat="43.546014" lon="10.733578">
        <ele>79.846999</ele>
        <time>2026-05-05T22:08:06.664Z</time>
      </trkpt>
      <trkpt lat="43.546341" lon="10.732411">
        <ele>72.214269</ele>
        <time>2026-05-05T22:08:30.685Z</time>
      </trkpt>
      <trkpt lat="43.546394" lon="10.731954">
        <ele>69.703420</ele>
        <time>2026-05-05T22:08:39.740Z</time>
      </trkpt>
      <trkpt lat="43.546630" lon="10.731015">
        <ele>64.311609</ele>
        <time>2026-05-05T22:08:59.309Z</time>
      </trkpt>
      <trkpt lat="43.546853" lon="10.730584">
        <ele>61.616258</ele>
        <time>2026-05-05T22:09:09.813Z</time>
      </trkpt>
      <trkpt lat="43.547250" lon="10.729940">
        <ele>58.750742</ele>
        <time>2026-05-05T22:09:26.796Z</time>
      </trkpt>
      <trkpt lat="43.547659" lon="10.729140">
        <ele>55.432538</ele>
        <time>2026-05-05T22:09:47.308Z</time>
      </trkpt>
      <trkpt lat="43.547941" lon="10.728602">
        <ele>53.662268</ele>
        <time>2026-05-05T22:10:02.709Z</time>
      </trkpt>
      <trkpt lat="43.548069" lon="10.728343">
        <ele>54.200654</ele>
        <time>2026-05-05T22:10:10.787Z</time>
      </trkpt>
      <trkpt lat="43.548123" lon="10.728153">
        <ele>54.551160</ele>
        <time>2026-05-05T22:10:16.488Z</time>
      </trkpt>
      <trkpt lat="43.548146" lon="10.727947">
        <ele>54.909128</ele>
        <time>2026-05-05T22:10:22.928Z</time>
      </trkpt>
      <trkpt lat="43.548123" lon="10.727748">
        <ele>55.255219</ele>
        <time>2026-05-05T22:10:29.781Z</time>
      </trkpt>
      <trkpt lat="43.547834" lon="10.726633">
        <ele>57.288945</ele>
        <time>2026-05-05T22:11:20.448Z</time>
      </trkpt>
      <trkpt lat="43.547674" lon="10.726266">
        <ele>58.785010</ele>
        <time>2026-05-05T22:11:43.844Z</time>
      </trkpt>
      <trkpt lat="43.547626" lon="10.726215">
        <ele>59.345788</ele>
        <time>2026-05-05T22:11:48.664Z</time>
      </trkpt>
      <trkpt lat="43.547503" lon="10.726191">
        <ele>60.495632</ele>
        <time>2026-05-05T22:11:59.053Z</time>
      </trkpt>
      <trkpt lat="43.547190" lon="10.726269">
        <ele>63.439709</ele>
        <time>2026-05-05T22:12:27.608Z</time>
      </trkpt>
      <trkpt lat="43.547120" lon="10.726253">
        <ele>64.096476</ele>
        <time>2026-05-05T22:12:34.384Z</time>
      </trkpt>
      <trkpt lat="43.546235" lon="10.725552">
        <ele>73.542287</ele>
        <time>2026-05-05T22:14:18.611Z</time>
      </trkpt>
      <trkpt lat="43.546176" lon="10.725552">
        <ele>74.088404</ele>
        <time>2026-05-05T22:14:24.970Z</time>
      </trkpt>
      <trkpt lat="43.546104" lon="10.725608">
        <ele>74.851802</ele>
        <time>2026-05-05T22:14:34.013Z</time>
      </trkpt>
      <trkpt lat="43.545874" lon="10.725995">
        <ele>78.196854</ele>
        <time>2026-05-05T22:15:12.314Z</time>
      </trkpt>
      <trkpt lat="43.545683" lon="10.726137">
        <ele>80.197614</ele>
        <time>2026-05-05T22:15:34.193Z</time>
      </trkpt>
      <trkpt lat="43.545591" lon="10.726205">
        <ele>81.160073</ele>
        <time>2026-05-05T22:15:44.485Z</time>
      </trkpt>
      <trkpt lat="43.545483" lon="10.726194">
        <ele>82.158706</ele>
        <time>2026-05-05T22:15:54.991Z</time>
      </trkpt>
      <trkpt lat="43.544122" lon="10.724977">
        <ele>97.022391</ele>
        <time>2026-05-05T22:18:14.764Z</time>
      </trkpt>
      <trkpt lat="43.543721" lon="10.724587">
        <ele>101.478361</ele>
        <time>2026-05-05T22:19:00.320Z</time>
      </trkpt>
      <trkpt lat="43.543684" lon="10.724489">
        <ele>102.205788</ele>
        <time>2026-05-05T22:19:07.914Z</time>
      </trkpt>
      <trkpt lat="43.543689" lon="10.724345">
        <ele>103.154859</ele>
        <time>2026-05-05T22:19:18.029Z</time>
      </trkpt>
      <trkpt lat="43.543782" lon="10.724029">
        <ele>105.400090</ele>
        <time>2026-05-05T22:19:42.545Z</time>
      </trkpt>
      <trkpt lat="43.544010" lon="10.723564">
        <ele>108.763916</ele>
        <time>2026-05-05T22:20:23.655Z</time>
      </trkpt>
      <trkpt lat="43.544057" lon="10.723394">
        <ele>109.736114</ele>
        <time>2026-05-05T22:20:37.404Z</time>
      </trkpt>
      <trkpt lat="43.544047" lon="10.723117">
        <ele>111.218050</ele>
        <time>2026-05-05T22:20:58.495Z</time>
      </trkpt>
      <trkpt lat="43.544088" lon="10.722878">
        <ele>112.530383</ele>
        <time>2026-05-05T22:21:14.947Z</time>
      </trkpt>
      <trkpt lat="43.544272" lon="10.722417">
        <ele>115.342408</ele>
        <time>2026-05-05T22:21:43.669Z</time>
      </trkpt>
      <trkpt lat="43.544364" lon="10.722250">
        <ele>116.463213</ele>
        <time>2026-05-05T22:21:52.642Z</time>
      </trkpt>
      <trkpt lat="43.544497" lon="10.721996">
        <ele>118.137499</ele>
        <time>2026-05-05T22:22:04.078Z</time>
      </trkpt>
      <trkpt lat="43.544719" lon="10.721754">
        <ele>120.223216</ele>
        <time>2026-05-05T22:22:16.375Z</time>
      </trkpt>
      <trkpt lat="43.544801" lon="10.721668">
        <ele>120.758465</ele>
        <time>2026-05-05T22:22:20.360Z</time>
      </trkpt>
      <trkpt lat="43.545250" lon="10.721437">
        <ele>122.262607</ele>
        <time>2026-05-05T22:22:35.326Z</time>
      </trkpt>
      <trkpt lat="43.545273" lon="10.721426">
        <ele>122.339015</ele>
        <time>2026-05-05T22:22:36.003Z</time>
      </trkpt>
      <trkpt lat="43.545312" lon="10.721408">
        <ele>122.468098</ele>
        <time>2026-05-05T22:22:37.104Z</time>
      </trkpt>
      <trkpt lat="43.545685" lon="10.721232">
        <ele>123.705465</ele>
        <time>2026-05-05T22:22:48.708Z</time>
      </trkpt>
      <trkpt lat="43.545824" lon="10.721104">
        <ele>124.230024</ele>
        <time>2026-05-05T22:22:54.564Z</time>
      </trkpt>
      <trkpt lat="43.546247" lon="10.721123">
        <ele>125.558456</ele>
        <time>2026-05-05T22:23:13.070Z</time>
      </trkpt>
      <trkpt lat="43.546331" lon="10.721123">
        <ele>125.822118</ele>
        <time>2026-05-05T22:23:17.753Z</time>
      </trkpt>
      <trkpt lat="43.546484" lon="10.721109">
        <ele>126.391167</ele>
        <time>2026-05-05T22:23:26.921Z</time>
      </trkpt>
      <trkpt lat="43.546561" lon="10.721098">
        <ele>126.959911</ele>
        <time>2026-05-05T22:23:31.859Z</time>
      </trkpt>
      <trkpt lat="43.546802" lon="10.721026">
        <ele>128.771574</ele>
        <time>2026-05-05T22:23:48.730Z</time>
      </trkpt>
      <trkpt lat="43.547028" lon="10.721004">
        <ele>130.436124</ele>
        <time>2026-05-05T22:24:04.911Z</time>
      </trkpt>
      <trkpt lat="43.547058" lon="10.721006">
        <ele>130.656791</ele>
        <time>2026-05-05T22:24:07.077Z</time>
      </trkpt>
      <trkpt lat="43.547071" lon="10.721006">
        <ele>130.752302</ele>
        <time>2026-05-05T22:24:08.078Z</time>
      </trkpt>
      <trkpt lat="43.547114" lon="10.721010">
        <ele>131.068940</ele>
        <time>2026-05-05T22:24:11.389Z</time>
      </trkpt>
      <trkpt lat="43.547369" lon="10.721014">
        <ele>132.942546</ele>
        <time>2026-05-05T22:24:30.585Z</time>
      </trkpt>
      <trkpt lat="43.547490" lon="10.720975">
        <ele>133.855469</ele>
        <time>2026-05-05T22:24:40.254Z</time>
      </trkpt>
      <trkpt lat="43.547625" lon="10.720931">
        <ele>134.874613</ele>
        <time>2026-05-05T22:24:51.105Z</time>
      </trkpt>
      <trkpt lat="43.547672" lon="10.720905">
        <ele>135.246645</ele>
        <time>2026-05-05T22:24:54.978Z</time>
      </trkpt>
      <trkpt lat="43.547728" lon="10.720876">
        <ele>135.686104</ele>
        <time>2026-05-05T22:24:59.757Z</time>
      </trkpt>
      <trkpt lat="43.547864" lon="10.720831">
        <ele>136.713629</ele>
        <time>2026-05-05T22:25:10.436Z</time>
      </trkpt>
      <trkpt lat="43.547912" lon="10.720885">
        <ele>137.168661</ele>
        <time>2026-05-05T22:25:14.978Z</time>
      </trkpt>
      <trkpt lat="43.548178" lon="10.720943">
        <ele>139.147217</ele>
        <time>2026-05-05T22:25:34.600Z</time>
      </trkpt>
      <trkpt lat="43.548379" lon="10.720963">
        <ele>139.595509</ele>
        <time>2026-05-05T22:25:47.717Z</time>
      </trkpt>
      <trkpt lat="43.548519" lon="10.720979">
        <ele>139.721024</ele>
        <time>2026-05-05T22:25:55.463Z</time>
      </trkpt>
      <trkpt lat="43.548763" lon="10.721008">
        <ele>139.939838</ele>
        <time>2026-05-05T22:26:07.113Z</time>
      </trkpt>
      <trkpt lat="43.549058" lon="10.721006">
        <ele>140.203415</ele>
        <time>2026-05-05T22:26:16.813Z</time>
      </trkpt>
      <trkpt lat="43.549022" lon="10.720555">
        <ele>140.497237</ele>
        <time>2026-05-05T22:26:25.081Z</time>
      </trkpt>
      <trkpt lat="43.549014" lon="10.720328">
        <ele>140.644410</ele>
        <time>2026-05-05T22:26:28.663Z</time>
      </trkpt>
      <trkpt lat="43.549037" lon="10.720340">
        <ele>140.666380</ele>
        <time>2026-05-05T22:26:29.206Z</time>
      </trkpt>
      <trkpt lat="43.549337" lon="10.720447">
        <ele>140.943232</ele>
        <time>2026-05-05T22:26:34.767Z</time>
      </trkpt>
      <trkpt lat="43.549387" lon="10.720502">
        <ele>141.000366</ele>
        <time>2026-05-05T22:26:35.853Z</time>
      </trkpt>
      <trkpt lat="43.549423" lon="10.720306">
        <ele>140.323735</ele>
        <time>2026-05-05T22:26:53.953Z</time>
      </trkpt>
      <trkpt lat="43.549623" lon="10.720573">
        <ele>137.770827</ele>
        <time>2026-05-05T22:26:59.916Z</time>
      </trkpt>
      <trkpt lat="43.549611" lon="10.720821">
        <ele>136.118291</ele>
        <time>2026-05-05T22:27:03.653Z</time>
      </trkpt>
      <trkpt lat="43.549679" lon="10.720826">
        <ele>135.493617</ele>
        <time>2026-05-05T22:27:05.034Z</time>
      </trkpt>
      <trkpt lat="43.549692" lon="10.720558">
        <ele>133.707793</ele>
        <time>2026-05-05T22:27:07.959Z</time>
      </trkpt>
      <trkpt lat="43.549691" lon="10.720280">
        <ele>131.859447</ele>
        <time>2026-05-05T22:27:10.941Z</time>
      </trkpt>
      <trkpt lat="43.549602" lon="10.720057">
        <ele>130.166873</ele>
        <time>2026-05-05T22:27:13.610Z</time>
      </trkpt>
      <trkpt lat="43.549538" lon="10.719940">
        <ele>129.192297</ele>
        <time>2026-05-05T22:27:15.147Z</time>
      </trkpt>
      <trkpt lat="43.549438" lon="10.719753">
        <ele>127.647207</ele>
        <time>2026-05-05T22:27:17.502Z</time>
      </trkpt>
      <trkpt lat="43.549535" lon="10.719666">
        <ele>126.585906</ele>
        <time>2026-05-05T22:27:19.099Z</time>
      </trkpt>
      <trkpt lat="43.549646" lon="10.719647">
        <ele>125.559856</ele>
        <time>2026-05-05T22:27:20.621Z</time>
      </trkpt>
      <trkpt lat="43.550045" lon="10.719835">
        <ele>120.896370</ele>
        <time>2026-05-05T22:27:26.328Z</time>
      </trkpt>
      <trkpt lat="43.550120" lon="10.719803">
        <ele>119.976397</ele>
        <time>2026-05-05T22:27:27.401Z</time>
      </trkpt>
      <trkpt lat="43.550164" lon="10.719739">
        <ele>119.227165</ele>
        <time>2026-05-05T22:27:28.270Z</time>
      </trkpt>
      <trkpt lat="43.550181" lon="10.719698">
        <ele>118.825976</ele>
        <time>2026-05-05T22:27:28.739Z</time>
      </trkpt>
      <trkpt lat="43.550419" lon="10.719221">
        <ele>113.907400</ele>
        <time>2026-05-05T22:27:34.490Z</time>
      </trkpt>
      <trkpt lat="43.550583" lon="10.718919">
        <ele>110.702271</ele>
        <time>2026-05-05T22:27:38.280Z</time>
      </trkpt>
      <trkpt lat="43.550877" lon="10.718513">
        <ele>105.827745</ele>
        <time>2026-05-05T22:27:44.211Z</time>
      </trkpt>
      <trkpt lat="43.551231" lon="10.718148">
        <ele>103.113411</ele>
        <time>2026-05-05T22:27:51.136Z</time>
      </trkpt>
      <trkpt lat="43.551390" lon="10.718047">
        <ele>102.846456</ele>
        <time>2026-05-05T22:27:54.442Z</time>
      </trkpt>
      <trkpt lat="43.551737" lon="10.717973">
        <ele>102.310962</ele>
        <time>2026-05-05T22:28:02.611Z</time>
      </trkpt>
      <trkpt lat="43.552181" lon="10.717893">
        <ele>101.628067</ele>
        <time>2026-05-05T22:28:14.655Z</time>
      </trkpt>
      <trkpt lat="43.552302" lon="10.717868">
        <ele>101.441472</ele>
        <time>2026-05-05T22:28:18.230Z</time>
      </trkpt>
      <trkpt lat="43.552452" lon="10.717868">
        <ele>101.212707</ele>
        <time>2026-05-05T22:28:22.902Z</time>
      </trkpt>
      <trkpt lat="43.552786" lon="10.717976">
        <ele>100.598589</ele>
        <time>2026-05-05T22:28:32.943Z</time>
      </trkpt>
      <trkpt lat="43.553456" lon="10.717951">
        <ele>97.698176</ele>
        <time>2026-05-05T22:28:45.151Z</time>
      </trkpt>
      <trkpt lat="43.553702" lon="10.717894">
        <ele>96.618732</ele>
        <time>2026-05-05T22:28:49.194Z</time>
      </trkpt>
      <trkpt lat="43.554709" lon="10.717626">
        <ele>92.207643</ele>
        <time>2026-05-05T22:29:04.742Z</time>
      </trkpt>
      <trkpt lat="43.554771" lon="10.717682">
        <ele>91.898112</ele>
        <time>2026-05-05T22:29:06.723Z</time>
      </trkpt>
      <trkpt lat="43.555014" lon="10.717733">
        <ele>90.871402</ele>
        <time>2026-05-05T22:29:13.455Z</time>
      </trkpt>
      <trkpt lat="43.555255" lon="10.717847">
        <ele>89.807211</ele>
        <time>2026-05-05T22:29:20.576Z</time>
      </trkpt>
      <trkpt lat="43.556314" lon="10.718435">
        <ele>85.331734</ele>
        <time>2026-05-05T22:29:56.868Z</time>
      </trkpt>
      <trkpt lat="43.556435" lon="10.718518">
        <ele>85.176844</ele>
        <time>2026-05-05T22:30:01.792Z</time>
      </trkpt>
      <trkpt lat="43.556718" lon="10.718545">
        <ele>84.851675</ele>
        <time>2026-05-05T22:30:12.051Z</time>
      </trkpt>
      <trkpt lat="43.557754" lon="10.718470">
        <ele>83.662508</ele>
        <time>2026-05-05T22:30:49.568Z</time>
      </trkpt>
      <trkpt lat="43.558015" lon="10.718488">
        <ele>83.318472</ele>
        <time>2026-05-05T22:30:58.469Z</time>
      </trkpt>
      <trkpt lat="43.558594" lon="10.718618">
        <ele>80.962809</ele>
        <time>2026-05-05T22:31:17.711Z</time>
      </trkpt>
      <trkpt lat="43.558700" lon="10.718674">
        <ele>80.507017</ele>
        <time>2026-05-05T22:31:21.300Z</time>
      </trkpt>
      <trkpt lat="43.558808" lon="10.719009">
        <ele>79.440033</ele>
        <time>2026-05-05T22:31:29.627Z</time>
      </trkpt>
      <trkpt lat="43.558822" lon="10.719144">
        <ele>79.043175</ele>
        <time>2026-05-05T22:31:32.644Z</time>
      </trkpt>
      <trkpt lat="43.558835" lon="10.719265">
        <ele>78.687211</ele>
        <time>2026-05-05T22:31:35.333Z</time>
      </trkpt>
      <trkpt lat="43.558895" lon="10.719378">
        <ele>78.279553</ele>
        <time>2026-05-05T22:31:38.399Z</time>
      </trkpt>
      <trkpt lat="43.559867" lon="10.719589">
        <ele>71.710677</ele>
        <time>2026-05-05T22:32:05.203Z</time>
      </trkpt>
      <trkpt lat="43.560173" lon="10.719732">
        <ele>68.557228</ele>
        <time>2026-05-05T22:32:13.538Z</time>
      </trkpt>
      <trkpt lat="43.561163" lon="10.720311">
        <ele>58.267096</ele>
        <time>2026-05-05T22:32:40.555Z</time>
      </trkpt>
      <trkpt lat="43.561621" lon="10.720797">
        <ele>54.771668</ele>
        <time>2026-05-05T22:32:55.652Z</time>
      </trkpt>
      <trkpt lat="43.561885" lon="10.720598">
        <ele>52.951698</ele>
        <time>2026-05-05T22:33:00.855Z</time>
      </trkpt>
      <trkpt lat="43.562182" lon="10.720249">
        <ele>50.591648</ele>
        <time>2026-05-05T22:33:07.982Z</time>
      </trkpt>
      <trkpt lat="43.563526" lon="10.720991">
        <ele>46.520230</ele>
        <time>2026-05-05T22:33:40.051Z</time>
      </trkpt>
      <trkpt lat="43.566599" lon="10.722687">
        <ele>43.531431</ele>
        <time>2026-05-05T22:34:56.843Z</time>
      </trkpt>
      <trkpt lat="43.568741" lon="10.723464">
        <ele>42.331099</ele>
        <time>2026-05-05T22:35:49.815Z</time>
      </trkpt>
      <trkpt lat="43.568977" lon="10.723461">
        <ele>42.231318</ele>
        <time>2026-05-05T22:35:55.609Z</time>
      </trkpt>
      <trkpt lat="43.570123" lon="10.722989">
        <ele>41.826606</ele>
        <time>2026-05-05T22:36:25.416Z</time>
      </trkpt>
      <trkpt lat="43.571157" lon="10.722691">
        <ele>41.525122</ele>
        <time>2026-05-05T22:36:51.393Z</time>
      </trkpt>
      <trkpt lat="43.571443" lon="10.722357">
        <ele>41.477440</ele>
        <time>2026-05-05T22:37:00.621Z</time>
      </trkpt>
      <trkpt lat="43.571642" lon="10.722014">
        <ele>41.437984</ele>
        <time>2026-05-05T22:37:08.533Z</time>
      </trkpt>
      <trkpt lat="43.571118" lon="10.719130">
        <ele>41.079019</ele>
        <time>2026-05-05T22:38:03.672Z</time>
      </trkpt>
      <trkpt lat="43.571120" lon="10.719033">
        <ele>41.064091</ele>
        <time>2026-05-05T22:38:05.430Z</time>
      </trkpt>
      <trkpt lat="43.571132" lon="10.718481">
        <ele>40.979140</ele>
        <time>2026-05-05T22:38:15.224Z</time>
      </trkpt>
      <trkpt lat="43.573172" lon="10.718053">
        <ele>39.960736</ele>
        <time>2026-05-05T22:38:58.866Z</time>
      </trkpt>
      <trkpt lat="43.573649" lon="10.717957">
        <ele>39.870112</ele>
        <time>2026-05-05T22:39:09.502Z</time>
      </trkpt>
      <trkpt lat="43.574325" lon="10.717746">
        <ele>39.751797</ele>
        <time>2026-05-05T22:39:25.586Z</time>
      </trkpt>
      <trkpt lat="43.574887" lon="10.717517">
        <ele>39.651764</ele>
        <time>2026-05-05T22:39:39.007Z</time>
      </trkpt>
      <trkpt lat="43.576166" lon="10.717112">
        <ele>39.326301</ele>
        <time>2026-05-05T22:40:07.960Z</time>
      </trkpt>
      <trkpt lat="43.577482" lon="10.716958">
        <ele>38.982002</ele>
        <time>2026-05-05T22:40:36.872Z</time>
      </trkpt>
      <trkpt lat="43.579048" lon="10.716774">
        <ele>38.645429</ele>
        <time>2026-05-05T22:41:12.005Z</time>
      </trkpt>
      <trkpt lat="43.580380" lon="10.716590">
        <ele>38.490994</ele>
        <time>2026-05-05T22:41:42.448Z</time>
      </trkpt>
      <trkpt lat="43.580428" lon="10.713915">
        <ele>38.215176</ele>
        <time>2026-05-05T22:42:26.432Z</time>
      </trkpt>
      <trkpt lat="43.582522" lon="10.713509">
        <ele>37.450000</ele>
        <time>2026-05-05T22:43:44.261Z</time>
      </trkpt>
      <trkpt lat="43.582573" lon="10.713499">
        <ele>37.425802</ele>
        <time>2026-05-05T22:43:46.148Z</time>
      </trkpt>
      <trkpt lat="43.584995" lon="10.713022">
        <ele>36.242473</ele>
        <time>2026-05-05T22:45:15.382Z</time>
      </trkpt>
      <trkpt lat="43.585182" lon="10.712934">
        <ele>36.144248</ele>
        <time>2026-05-05T22:45:22.834Z</time>
      </trkpt>
      <trkpt lat="43.585756" lon="10.712345">
        <ele>35.691383</ele>
        <time>2026-05-05T22:45:48.966Z</time>
      </trkpt>
      <trkpt lat="43.586152" lon="10.711956">
        <ele>35.317042</ele>
        <time>2026-05-05T22:46:05.749Z</time>
      </trkpt>
      <trkpt lat="43.586343" lon="10.711816">
        <ele>35.150480</ele>
        <time>2026-05-05T22:46:13.236Z</time>
      </trkpt>
      <trkpt lat="43.586557" lon="10.711834">
        <ele>34.985346</ele>
        <time>2026-05-05T22:46:20.797Z</time>
      </trkpt>
      <trkpt lat="43.586669" lon="10.711904">
        <ele>34.890653</ele>
        <time>2026-05-05T22:46:25.192Z</time>
      </trkpt>
      <trkpt lat="43.586801" lon="10.712059">
        <ele>34.757182</ele>
        <time>2026-05-05T22:46:31.452Z</time>
      </trkpt>
      <trkpt lat="43.586943" lon="10.712347">
        <ele>34.597514</ele>
        <time>2026-05-05T22:46:40.581Z</time>
      </trkpt>
      <trkpt lat="43.587114" lon="10.712704">
        <ele>34.828311</ele>
        <time>2026-05-05T22:46:51.839Z</time>
      </trkpt>
      <trkpt lat="43.587241" lon="10.713014">
        <ele>35.020363</ele>
        <time>2026-05-05T22:47:01.795Z</time>
      </trkpt>
      <trkpt lat="43.587275" lon="10.713247">
        <ele>35.148532</ele>
        <time>2026-05-05T22:47:09.200Z</time>
      </trkpt>
      <trkpt lat="43.587179" lon="10.713478">
        <ele>35.292144</ele>
        <time>2026-05-05T22:47:15.537Z</time>
      </trkpt>
      <trkpt lat="43.586894" lon="10.713912">
        <ele>35.608040</ele>
        <time>2026-05-05T22:47:30.763Z</time>
      </trkpt>
      <trkpt lat="43.587166" lon="10.714722">
        <ele>36.050345</ele>
        <time>2026-05-05T22:48:00.211Z</time>
      </trkpt>
      <trkpt lat="43.587124" lon="10.714924">
        <ele>36.137575</ele>
        <time>2026-05-05T22:48:06.618Z</time>
      </trkpt>
      <trkpt lat="43.587070" lon="10.714999">
        <ele>36.181469</ele>
        <time>2026-05-05T22:48:09.844Z</time>
      </trkpt>
      <trkpt lat="43.586927" lon="10.715092">
        <ele>36.272051</ele>
        <time>2026-05-05T22:48:16.554Z</time>
      </trkpt>
      <trkpt lat="43.586874" lon="10.715161">
        <ele>36.313796</ele>
        <time>2026-05-05T22:48:19.625Z</time>
      </trkpt>
      <trkpt lat="43.586774" lon="10.715522">
        <ele>36.474221</ele>
        <time>2026-05-05T22:48:31.396Z</time>
      </trkpt>
      <trkpt lat="43.586868" lon="10.715704">
        <ele>36.567002</ele>
        <time>2026-05-05T22:48:35.708Z</time>
      </trkpt>
      <trkpt lat="43.587068" lon="10.716466">
        <ele>36.903410</ele>
        <time>2026-05-05T22:48:50.196Z</time>
      </trkpt>
      <trkpt lat="43.587162" lon="10.716710">
        <ele>36.992354</ele>
        <time>2026-05-05T22:48:55.027Z</time>
      </trkpt>
      <trkpt lat="43.587478" lon="10.717075">
        <ele>37.138873</ele>
        <time>2026-05-05T22:49:05.646Z</time>
      </trkpt>
      <trkpt lat="43.587541" lon="10.717188">
        <ele>37.175603</ele>
        <time>2026-05-05T22:49:08.389Z</time>
      </trkpt>
      <trkpt lat="43.587628" lon="10.717447">
        <ele>37.249142</ele>
        <time>2026-05-05T22:49:13.914Z</time>
      </trkpt>
      <trkpt lat="43.587917" lon="10.718376">
        <ele>37.509573</ele>
        <time>2026-05-05T22:49:33.559Z</time>
      </trkpt>
      <trkpt lat="43.587966" lon="10.718793">
        <ele>37.637149</ele>
        <time>2026-05-05T22:49:41.728Z</time>
      </trkpt>
      <trkpt lat="43.588037" lon="10.719392">
        <ele>37.896241</ele>
        <time>2026-05-05T22:49:53.532Z</time>
      </trkpt>
      <trkpt lat="43.588175" lon="10.719600">
        <ele>38.016646</ele>
        <time>2026-05-05T22:49:59.076Z</time>
      </trkpt>
      <trkpt lat="43.589031" lon="10.720146">
        <ele>38.572350</ele>
        <time>2026-05-05T22:50:25.396Z</time>
      </trkpt>
      <trkpt lat="43.589054" lon="10.720141">
        <ele>38.586072</ele>
        <time>2026-05-05T22:50:26.038Z</time>
      </trkpt>
      <trkpt lat="43.590473" lon="10.719775">
        <ele>39.677929</ele>
        <time>2026-05-05T22:51:07.020Z</time>
      </trkpt>
      <trkpt lat="43.591253" lon="10.719367">
        <ele>40.126225</ele>
        <time>2026-05-05T22:51:29.278Z</time>
      </trkpt>
      <trkpt lat="43.591324" lon="10.719325">
        <ele>40.145306</ele>
        <time>2026-05-05T22:51:31.242Z</time>
      </trkpt>
      <trkpt lat="43.592133" lon="10.718857">
        <ele>40.361988</ele>
        <time>2026-05-05T22:51:52.834Z</time>
      </trkpt>
      <trkpt lat="43.592235" lon="10.718791">
        <ele>40.389815</ele>
        <time>2026-05-05T22:51:55.421Z</time>
      </trkpt>
      <trkpt lat="43.592422" lon="10.718689">
        <ele>40.439484</ele>
        <time>2026-05-05T22:51:59.966Z</time>
      </trkpt>
      <trkpt lat="43.592537" lon="10.718625">
        <ele>40.470114</ele>
        <time>2026-05-05T22:52:02.737Z</time>
      </trkpt>
      <trkpt lat="43.592959" lon="10.718390">
        <ele>40.356071</ele>
        <time>2026-05-05T22:52:12.958Z</time>
      </trkpt>
      <trkpt lat="43.592987" lon="10.718373">
        <ele>40.347107</ele>
        <time>2026-05-05T22:52:13.652Z</time>
      </trkpt>
      <trkpt lat="43.593488" lon="10.718104">
        <ele>40.189568</ele>
        <time>2026-05-05T22:52:25.767Z</time>
      </trkpt>
      <trkpt lat="43.593721" lon="10.718042">
        <ele>40.120026</ele>
        <time>2026-05-05T22:52:31.027Z</time>
      </trkpt>
      <trkpt lat="43.594403" lon="10.718080">
        <ele>39.917374</ele>
        <time>2026-05-05T22:52:45.512Z</time>
      </trkpt>
      <trkpt lat="43.594685" lon="10.718035">
        <ele>39.827342</ele>
        <time>2026-05-05T22:52:51.403Z</time>
      </trkpt>
      <trkpt lat="43.594848" lon="10.717932">
        <ele>39.770490</ele>
        <time>2026-05-05T22:52:55.187Z</time>
      </trkpt>
      <trkpt lat="43.595233" lon="10.717551">
        <ele>39.620265</ele>
        <time>2026-05-05T22:53:05.500Z</time>
      </trkpt>
      <trkpt lat="43.595565" lon="10.717210">
        <ele>39.489034</ele>
        <time>2026-05-05T22:53:14.746Z</time>
      </trkpt>
      <trkpt lat="43.596009" lon="10.716759">
        <ele>39.449185</ele>
        <time>2026-05-05T22:53:27.397Z</time>
      </trkpt>
      <trkpt lat="43.596131" lon="10.716635">
        <ele>39.497696</ele>
        <time>2026-05-05T22:53:31.126Z</time>
      </trkpt>
      <trkpt lat="43.596724" lon="10.715875">
        <ele>39.756787</ele>
        <time>2026-05-05T22:53:52.964Z</time>
      </trkpt>
      <trkpt lat="43.596859" lon="10.715745">
        <ele>39.809493</ele>
        <time>2026-05-05T22:53:57.061Z</time>
      </trkpt>
      <trkpt lat="43.596884" lon="10.715721">
        <ele>39.819244</ele>
        <time>2026-05-05T22:53:57.817Z</time>
      </trkpt>
      <trkpt lat="43.597208" lon="10.715503">
        <ele>39.934662</ele>
        <time>2026-05-05T22:54:06.636Z</time>
      </trkpt>
      <trkpt lat="43.597281" lon="10.715456">
        <ele>39.953547</ele>
        <time>2026-05-05T22:54:08.549Z</time>
      </trkpt>
      <trkpt lat="43.597298" lon="10.715443">
        <ele>39.945870</ele>
        <time>2026-05-05T22:54:09.029Z</time>
      </trkpt>
      <trkpt lat="43.597473" lon="10.715303">
        <ele>39.865973</ele>
        <time>2026-05-05T22:54:13.806Z</time>
      </trkpt>
      <trkpt lat="43.597735" lon="10.714979">
        <ele>39.727032</ele>
        <time>2026-05-05T22:54:21.839Z</time>
      </trkpt>
      <trkpt lat="43.598035" lon="10.714575">
        <ele>39.561490</ele>
        <time>2026-05-05T22:54:31.077Z</time>
      </trkpt>
      <trkpt lat="43.598217" lon="10.714247">
        <ele>39.443276</ele>
        <time>2026-05-05T22:54:37.331Z</time>
      </trkpt>
      <trkpt lat="43.599284" lon="10.712245">
        <ele>38.352944</ele>
        <time>2026-05-05T22:55:14.242Z</time>
      </trkpt>
      <trkpt lat="43.599992" lon="10.710941">
        <ele>38.150840</ele>
        <time>2026-05-05T22:55:40.288Z</time>
      </trkpt>
      <trkpt lat="43.601108" lon="10.709538">
        <ele>38.394030</ele>
        <time>2026-05-05T22:56:20.108Z</time>
      </trkpt>
      <trkpt lat="43.601579" lon="10.708962">
        <ele>38.423369</ele>
        <time>2026-05-05T22:56:35.536Z</time>
      </trkpt>
      <trkpt lat="43.601817" lon="10.708671">
        <ele>38.438193</ele>
        <time>2026-05-05T22:56:42.757Z</time>
      </trkpt>
      <trkpt lat="43.601905" lon="10.708552">
        <ele>38.443937</ele>
        <time>2026-05-05T22:56:45.465Z</time>
      </trkpt>
      <trkpt lat="43.602326" lon="10.708012">
        <ele>38.388964</ele>
        <time>2026-05-05T22:56:57.627Z</time>
      </trkpt>
      <trkpt lat="43.602665" lon="10.707566">
        <ele>38.252044</ele>
        <time>2026-05-05T22:57:07.391Z</time>
      </trkpt>
      <trkpt lat="43.602920" lon="10.707247">
        <ele>38.151428</ele>
        <time>2026-05-05T22:57:14.787Z</time>
      </trkpt>
      <trkpt lat="43.603041" lon="10.707136">
        <ele>38.108949</ele>
        <time>2026-05-05T22:57:17.964Z</time>
      </trkpt>
      <trkpt lat="43.603256" lon="10.706982">
        <ele>38.038123</ele>
        <time>2026-05-05T22:57:23.507Z</time>
      </trkpt>
      <trkpt lat="43.603382" lon="10.706898">
        <ele>37.997208</ele>
        <time>2026-05-05T22:57:27.136Z</time>
      </trkpt>
      <trkpt lat="43.603470" lon="10.706832">
        <ele>37.967924</ele>
        <time>2026-05-05T22:57:29.689Z</time>
      </trkpt>
      <trkpt lat="43.603552" lon="10.706771">
        <ele>37.940687</ele>
        <time>2026-05-05T22:57:32.068Z</time>
      </trkpt>
      <trkpt lat="43.603656" lon="10.706685">
        <ele>37.995704</ele>
        <time>2026-05-05T22:57:34.862Z</time>
      </trkpt>
      <trkpt lat="43.603982" lon="10.706301">
        <ele>38.271310</ele>
        <time>2026-05-05T22:57:45.098Z</time>
      </trkpt>
      <trkpt lat="43.604097" lon="10.706082">
        <ele>38.397311</ele>
        <time>2026-05-05T22:57:50.162Z</time>
      </trkpt>
      <trkpt lat="43.604102" lon="10.705834">
        <ele>38.512866</ele>
        <time>2026-05-05T22:57:54.967Z</time>
      </trkpt>
      <trkpt lat="43.603994" lon="10.705405">
        <ele>38.724411</ele>
        <time>2026-05-05T22:58:04.210Z</time>
      </trkpt>
      <trkpt lat="43.603882" lon="10.704927">
        <ele>38.958414</ele>
        <time>2026-05-05T22:58:14.930Z</time>
      </trkpt>
      <trkpt lat="43.603896" lon="10.704531">
        <ele>39.137637</ele>
        <time>2026-05-05T22:58:23.647Z</time>
      </trkpt>
      <trkpt lat="43.603997" lon="10.704033">
        <ele>39.353619</ele>
        <time>2026-05-05T22:58:33.923Z</time>
      </trkpt>
      <trkpt lat="43.604041" lon="10.703886">
        <ele>39.420049</ele>
        <time>2026-05-05T22:58:37.327Z</time>
      </trkpt>
      <trkpt lat="43.604114" lon="10.703717">
        <ele>39.502231</ele>
        <time>2026-05-05T22:58:41.710Z</time>
      </trkpt>
      <trkpt lat="43.604191" lon="10.703619">
        <ele>39.562623</ele>
        <time>2026-05-05T22:58:44.913Z</time>
      </trkpt>
      <trkpt lat="43.604274" lon="10.703548">
        <ele>39.618932</ele>
        <time>2026-05-05T22:58:47.834Z</time>
      </trkpt>
      <trkpt lat="43.604500" lon="10.703366">
        <ele>39.769817</ele>
        <time>2026-05-05T22:58:55.241Z</time>
      </trkpt>
      <trkpt lat="43.604605" lon="10.703131">
        <ele>39.885139</ele>
        <time>2026-05-05T22:59:00.364Z</time>
      </trkpt>
      <trkpt lat="43.604677" lon="10.702869">
        <ele>40.002171</ele>
        <time>2026-05-05T22:59:05.155Z</time>
      </trkpt>
      <trkpt lat="43.604690" lon="10.702813">
        <ele>40.026730</ele>
        <time>2026-05-05T22:59:06.108Z</time>
      </trkpt>
      <trkpt lat="43.604778" lon="10.702458">
        <ele>40.120487</ele>
        <time>2026-05-05T22:59:11.965Z</time>
      </trkpt>
      <trkpt lat="43.604927" lon="10.701724">
        <ele>40.078810</ele>
        <time>2026-05-05T22:59:23.144Z</time>
      </trkpt>
      <trkpt lat="43.604946" lon="10.701636">
        <ele>40.073789</ele>
        <time>2026-05-05T22:59:24.521Z</time>
      </trkpt>
      <trkpt lat="43.605045" lon="10.701273">
        <ele>40.052582</ele>
        <time>2026-05-05T22:59:30.433Z</time>
      </trkpt>
      <trkpt lat="43.605352" lon="10.700560">
        <ele>40.007229</ele>
        <time>2026-05-05T22:59:44.389Z</time>
      </trkpt>
      <trkpt lat="43.605515" lon="10.700679">
        <ele>39.993308</ele>
        <time>2026-05-05T22:59:49.976Z</time>
      </trkpt>
      <trkpt lat="43.605400" lon="10.701104">
        <ele>41.441179</ele>
        <time>2026-05-05T23:00:00.696Z</time>
      </trkpt>
      <trkpt lat="43.605175" lon="10.701932">
        <ele>44.427201</ele>
        <time>2026-05-05T23:00:24.425Z</time>
      </trkpt>
      <trkpt lat="43.605086" lon="10.702378">
        <ele>45.989210</ele>
        <time>2026-05-05T23:00:41.751Z</time>
      </trkpt>
      <trkpt lat="43.605011" lon="10.702739">
        <ele>47.257266</ele>
        <time>2026-05-05T23:00:59.236Z</time>
      </trkpt>
      <trkpt lat="43.604951" lon="10.702903">
        <ele>47.877660</ele>
        <time>2026-05-05T23:01:09.329Z</time>
      </trkpt>
      <trkpt lat="43.605078" lon="10.702938">
        <ele>48.719146</ele>
        <time>2026-05-05T23:01:20.266Z</time>
      </trkpt>
      <trkpt lat="43.605245" lon="10.703031">
        <ele>51.499743</ele>
        <time>2026-05-05T23:01:37.185Z</time>
      </trkpt>
      <trkpt lat="43.605600" lon="10.703144">
        <ele>57.125401</ele>
        <time>2026-05-05T23:02:17.063Z</time>
      </trkpt>
      <trkpt lat="43.605866" lon="10.703260">
        <ele>61.432910</ele>
        <time>2026-05-05T23:02:52.005Z</time>
      </trkpt>
      <trkpt lat="43.606034" lon="10.703285">
        <ele>64.042191</ele>
        <time>2026-05-05T23:03:15.680Z</time>
      </trkpt>
      <trkpt lat="43.606101" lon="10.703262">
        <ele>65.108292</ele>
        <time>2026-05-05T23:03:25.771Z</time>
      </trkpt>
      <trkpt lat="43.606172" lon="10.703096">
        <ele>67.264054</ele>
        <time>2026-05-05T23:03:45.942Z</time>
      </trkpt>
      <trkpt lat="43.606199" lon="10.703080">
        <ele>67.717752</ele>
        <time>2026-05-05T23:03:50.252Z</time>
      </trkpt>
      <trkpt lat="43.606283" lon="10.703146">
        <ele>69.210122</ele>
        <time>2026-05-05T23:04:03.813Z</time>
      </trkpt>
      <trkpt lat="43.606472" lon="10.703080">
        <ele>72.220525</ele>
        <time>2026-05-05T23:04:30.647Z</time>
      </trkpt>
      <trkpt lat="43.606524" lon="10.703089">
        <ele>73.029793</ele>
        <time>2026-05-05T23:04:37.580Z</time>
      </trkpt>
      <trkpt lat="43.606827" lon="10.703368">
        <ele>78.102812</ele>
        <time>2026-05-05T23:05:24.053Z</time>
      </trkpt>
      <trkpt lat="43.606870" lon="10.703407">
        <ele>78.722262</ele>
        <time>2026-05-05T23:05:30.595Z</time>
      </trkpt>
      <trkpt lat="43.606929" lon="10.703600">
        <ele>80.548841</ele>
        <time>2026-05-05T23:05:48.225Z</time>
      </trkpt>
      <trkpt lat="43.606939" lon="10.703829">
        <ele>82.549107</ele>
        <time>2026-05-05T23:06:08.384Z</time>
      </trkpt>
      <trkpt lat="43.606911" lon="10.704274">
        <ele>86.443660</ele>
        <time>2026-05-05T23:06:43.036Z</time>
      </trkpt>
      <trkpt lat="43.606892" lon="10.704322">
        <ele>86.920622</ele>
        <time>2026-05-05T23:06:46.879Z</time>
      </trkpt>
      <trkpt lat="43.606889" lon="10.704345">
        <ele>87.124385</ele>
        <time>2026-05-05T23:06:48.381Z</time>
      </trkpt>
      <trkpt lat="43.606922" lon="10.704327">
        <ele>87.551617</ele>
        <time>2026-05-05T23:06:51.634Z</time>
      </trkpt>
      <trkpt lat="43.607330" lon="10.704295">
        <ele>92.472373</ele>
        <time>2026-05-05T23:07:26.228Z</time>
      </trkpt>
      <trkpt lat="43.607591" lon="10.704487">
        <ele>96.033183</ele>
        <time>2026-05-05T23:07:49.495Z</time>
      </trkpt>
      <trkpt lat="43.607685" lon="10.704583">
        <ele>97.440925</ele>
        <time>2026-05-05T23:07:58.830Z</time>
      </trkpt>
      <trkpt lat="43.607782" lon="10.704675">
        <ele>98.607616</ele>
        <time>2026-05-05T23:08:08.189Z</time>
      </trkpt>
      <trkpt lat="43.608150" lon="10.704876">
        <ele>102.233319</ele>
        <time>2026-05-05T23:08:40.662Z</time>
      </trkpt>
      <trkpt lat="43.608632" lon="10.705032">
        <ele>106.769026</ele>
        <time>2026-05-05T23:09:19.350Z</time>
      </trkpt>
      <trkpt lat="43.608743" lon="10.705110">
        <ele>107.910074</ele>
        <time>2026-05-05T23:09:29.182Z</time>
      </trkpt>
      <trkpt lat="43.609093" lon="10.705744">
        <ele>113.198941</ele>
        <time>2026-05-05T23:10:14.471Z</time>
      </trkpt>
      <trkpt lat="43.609263" lon="10.705904">
        <ele>115.099269</ele>
        <time>2026-05-05T23:10:30.334Z</time>
      </trkpt>
      <trkpt lat="43.609704" lon="10.705978">
        <ele>119.249039</ele>
        <time>2026-05-05T23:11:05.977Z</time>
      </trkpt>
      <trkpt lat="43.610044" lon="10.706212">
        <ele>122.797545</ele>
        <time>2026-05-05T23:11:40.721Z</time>
      </trkpt>
      <trkpt lat="43.610479" lon="10.706298">
        <ele>126.902393</ele>
        <time>2026-05-05T23:12:16.407Z</time>
      </trkpt>
      <trkpt lat="43.610697" lon="10.706221">
        <ele>129.004316</ele>
        <time>2026-05-05T23:12:33.941Z</time>
      </trkpt>
      <trkpt lat="43.610942" lon="10.706008">
        <ele>131.517393</ele>
        <time>2026-05-05T23:12:55.770Z</time>
      </trkpt>
      <trkpt lat="43.610999" lon="10.705971">
        <ele>131.923287</ele>
        <time>2026-05-05T23:13:00.290Z</time>
      </trkpt>
      <trkpt lat="43.611166" lon="10.705877">
        <ele>133.085490</ele>
        <time>2026-05-05T23:13:13.155Z</time>
      </trkpt>
      <trkpt lat="43.611356" lon="10.705862">
        <ele>134.311972</ele>
        <time>2026-05-05T23:13:26.618Z</time>
      </trkpt>
      <trkpt lat="43.611736" lon="10.705964">
        <ele>136.806759</ele>
        <time>2026-05-05T23:13:52.847Z</time>
      </trkpt>
      <trkpt lat="43.612055" lon="10.706110">
        <ele>138.972538</ele>
        <time>2026-05-05T23:14:12.261Z</time>
      </trkpt>
      <trkpt lat="43.612444" lon="10.706333">
        <ele>141.686871</ele>
        <time>2026-05-05T23:14:35.074Z</time>
      </trkpt>
      <trkpt lat="43.612546" lon="10.706423">
        <ele>142.466916</ele>
        <time>2026-05-05T23:14:42.044Z</time>
      </trkpt>
      <trkpt lat="43.612805" lon="10.706899">
        <ele>143.673862</ele>
        <time>2026-05-05T23:15:05.302Z</time>
      </trkpt>
      <trkpt lat="43.613016" lon="10.706789">
        <ele>144.235714</ele>
        <time>2026-05-05T23:15:16.262Z</time>
      </trkpt>
      <trkpt lat="43.613492" lon="10.706688">
        <ele>145.435463</ele>
        <time>2026-05-05T23:15:34.624Z</time>
      </trkpt>
      <trkpt lat="43.613758" lon="10.706632">
        <ele>146.105791</ele>
        <time>2026-05-05T23:15:42.252Z</time>
      </trkpt>
      <trkpt lat="43.613923" lon="10.706459">
        <ele>146.621867</ele>
        <time>2026-05-05T23:15:47.752Z</time>
      </trkpt>
      <trkpt lat="43.614107" lon="10.706173">
        <ele>147.169020</ele>
        <time>2026-05-05T23:15:56.130Z</time>
      </trkpt>
      <trkpt lat="43.614182" lon="10.706027">
        <ele>147.178870</ele>
        <time>2026-05-05T23:16:00.609Z</time>
      </trkpt>
      <trkpt lat="43.614219" lon="10.705847">
        <ele>147.189165</ele>
        <time>2026-05-05T23:16:05.295Z</time>
      </trkpt>
      <trkpt lat="43.614235" lon="10.705547">
        <ele>147.205717</ele>
        <time>2026-05-05T23:16:12.676Z</time>
      </trkpt>
      <trkpt lat="43.614274" lon="10.705472">
        <ele>147.210798</ele>
        <time>2026-05-05T23:16:14.963Z</time>
      </trkpt>
      <trkpt lat="43.614331" lon="10.705449">
        <ele>147.215311</ele>
        <time>2026-05-05T23:16:16.951Z</time>
      </trkpt>
      <trkpt lat="43.614689" lon="10.705613">
        <ele>147.243976</ele>
        <time>2026-05-05T23:16:29.461Z</time>
      </trkpt>
      <trkpt lat="43.614948" lon="10.705682">
        <ele>147.264022</ele>
        <time>2026-05-05T23:16:37.416Z</time>
      </trkpt>
      <trkpt lat="43.615704" lon="10.705561">
        <ele>146.043407</ele>
        <time>2026-05-05T23:16:53.991Z</time>
      </trkpt>
      <trkpt lat="43.615843" lon="10.705483">
        <ele>145.348720</ele>
        <time>2026-05-05T23:16:56.759Z</time>
      </trkpt>
      <trkpt lat="43.616114" lon="10.705153">
        <ele>143.675930</ele>
        <time>2026-05-05T23:17:03.142Z</time>
      </trkpt>
      <trkpt lat="43.616227" lon="10.704939">
        <ele>142.788029</ele>
        <time>2026-05-05T23:17:06.485Z</time>
      </trkpt>
      <trkpt lat="43.616410" lon="10.704705">
        <ele>141.633357</ele>
        <time>2026-05-05T23:17:10.825Z</time>
      </trkpt>
      <trkpt lat="43.616564" lon="10.704580">
        <ele>140.806300</ele>
        <time>2026-05-05T23:17:13.939Z</time>
      </trkpt>
      <trkpt lat="43.616807" lon="10.704466">
        <ele>139.618030</ele>
        <time>2026-05-05T23:17:18.464Z</time>
      </trkpt>
      <trkpt lat="43.617057" lon="10.704303">
        <ele>139.018212</ele>
        <time>2026-05-05T23:17:23.519Z</time>
      </trkpt>
      <trkpt lat="43.617112" lon="10.704233">
        <ele>139.042813</ele>
        <time>2026-05-05T23:17:24.922Z</time>
      </trkpt>
      <trkpt lat="43.617318" lon="10.703780">
        <ele>139.170208</ele>
        <time>2026-05-05T23:17:32.808Z</time>
      </trkpt>
      <trkpt lat="43.617553" lon="10.703187">
        <ele>139.331198</ele>
        <time>2026-05-05T23:17:47.025Z</time>
      </trkpt>
      <trkpt lat="43.617547" lon="10.703107">
        <ele>139.350352</ele>
        <time>2026-05-05T23:17:49.312Z</time>
      </trkpt>
      <trkpt lat="43.617515" lon="10.703052">
        <ele>139.367155</ele>
        <time>2026-05-05T23:17:51.400Z</time>
      </trkpt>
      <trkpt lat="43.617446" lon="10.703024">
        <ele>139.390811</ele>
        <time>2026-05-05T23:17:54.489Z</time>
      </trkpt>
      <trkpt lat="43.617351" lon="10.702934">
        <ele>139.428704</ele>
        <time>2026-05-05T23:17:59.847Z</time>
      </trkpt>
      <trkpt lat="43.617262" lon="10.702732">
        <ele>139.485017</ele>
        <time>2026-05-05T23:18:08.341Z</time>
      </trkpt>
      <trkpt lat="43.617262" lon="10.702638">
        <ele>139.507402</ele>
        <time>2026-05-05T23:18:11.846Z</time>
      </trkpt>
      <trkpt lat="43.617391" lon="10.702299">
        <ele>139.926784</ele>
        <time>2026-05-05T23:18:26.836Z</time>
      </trkpt>
      <trkpt lat="43.617415" lon="10.702070">
        <ele>140.515909</ele>
        <time>2026-05-05T23:18:35.915Z</time>
      </trkpt>
      <trkpt lat="43.617764" lon="10.701412">
        <ele>142.592708</ele>
        <time>2026-05-05T23:19:07.926Z</time>
      </trkpt>
      <trkpt lat="43.617842" lon="10.701214">
        <ele>143.166626</ele>
        <time>2026-05-05T23:19:16.939Z</time>
      </trkpt>
      <trkpt lat="43.617908" lon="10.700923">
        <ele>143.943031</ele>
        <time>2026-05-05T23:19:28.331Z</time>
      </trkpt>
      <trkpt lat="43.617953" lon="10.700438">
        <ele>145.187960</ele>
        <time>2026-05-05T23:19:44.069Z</time>
      </trkpt>
      <trkpt lat="43.618101" lon="10.700395">
        <ele>145.719842</ele>
        <time>2026-05-05T23:19:51.946Z</time>
      </trkpt>
      <trkpt lat="43.618164" lon="10.700410">
        <ele>145.827289</ele>
        <time>2026-05-05T23:19:55.220Z</time>
      </trkpt>
      <trkpt lat="43.618836" lon="10.701329">
        <ele>141.975084</ele>
        <time>2026-05-05T23:20:28.276Z</time>
      </trkpt>
      <trkpt lat="43.619059" lon="10.701495">
        <ele>140.943140</ele>
        <time>2026-05-05T23:20:35.625Z</time>
      </trkpt>
      <trkpt lat="43.619197" lon="10.701500">
        <ele>140.380779</ele>
        <time>2026-05-05T23:20:39.419Z</time>
      </trkpt>
      <trkpt lat="43.619770" lon="10.701412">
        <ele>137.037213</ele>
        <time>2026-05-05T23:20:54.379Z</time>
      </trkpt>
      <trkpt lat="43.620249" lon="10.701254">
        <ele>131.272082</ele>
        <time>2026-05-05T23:21:06.575Z</time>
      </trkpt>
      <trkpt lat="43.620828" lon="10.700946">
        <ele>124.008726</ele>
        <time>2026-05-05T23:21:21.861Z</time>
      </trkpt>
      <trkpt lat="43.621415" lon="10.700162">
        <ele>115.556287</ele>
        <time>2026-05-05T23:21:42.460Z</time>
      </trkpt>
      <trkpt lat="43.621526" lon="10.700048">
        <ele>114.522949</ele>
        <time>2026-05-05T23:21:46.082Z</time>
      </trkpt>
      <trkpt lat="43.621677" lon="10.700001">
        <ele>113.366575</ele>
        <time>2026-05-05T23:21:50.218Z</time>
      </trkpt>
      <trkpt lat="43.621969" lon="10.699987">
        <ele>111.183787</ele>
        <time>2026-05-05T23:21:58.155Z</time>
      </trkpt>
      <trkpt lat="43.622597" lon="10.699717">
        <ele>106.270144</ele>
        <time>2026-05-05T23:22:16.573Z</time>
      </trkpt>
      <trkpt lat="43.622982" lon="10.699601">
        <ele>103.660773</ele>
        <time>2026-05-05T23:22:27.856Z</time>
      </trkpt>
      <trkpt lat="43.623073" lon="10.699521">
        <ele>103.217458</ele>
        <time>2026-05-05T23:22:30.968Z</time>
      </trkpt>
      <trkpt lat="43.623479" lon="10.698936">
        <ele>100.806335</ele>
        <time>2026-05-05T23:22:47.919Z</time>
      </trkpt>
      <trkpt lat="43.623519" lon="10.698776">
        <ele>100.302726</ele>
        <time>2026-05-05T23:22:51.502Z</time>
      </trkpt>
      <trkpt lat="43.623469" lon="10.698324">
        <ele>98.942357</ele>
        <time>2026-05-05T23:23:01.358Z</time>
      </trkpt>
      <trkpt lat="43.623531" lon="10.697836">
        <ele>97.468303</ele>
        <time>2026-05-05T23:23:12.330Z</time>
      </trkpt>
      <trkpt lat="43.623564" lon="10.697286">
        <ele>96.580249</ele>
        <time>2026-05-05T23:23:25.209Z</time>
      </trkpt>
      <trkpt lat="43.623604" lon="10.697071">
        <ele>96.504754</ele>
        <time>2026-05-05T23:23:30.665Z</time>
      </trkpt>
      <trkpt lat="43.623736" lon="10.696646">
        <ele>96.347477</ele>
        <time>2026-05-05T23:23:42.692Z</time>
      </trkpt>
      <trkpt lat="43.623735" lon="10.695868">
        <ele>96.082893</ele>
        <time>2026-05-05T23:24:06.087Z</time>
      </trkpt>
      <trkpt lat="43.623796" lon="10.695745">
        <ele>96.032187</ele>
        <time>2026-05-05T23:24:10.658Z</time>
      </trkpt>
      <trkpt lat="43.624061" lon="10.695626">
        <ele>95.901278</ele>
        <time>2026-05-05T23:24:22.215Z</time>
      </trkpt>
      <trkpt lat="43.624262" lon="10.695133">
        <ele>96.015246</ele>
        <time>2026-05-05T23:24:38.738Z</time>
      </trkpt>
      <trkpt lat="43.624401" lon="10.694860">
        <ele>96.182914</ele>
        <time>2026-05-05T23:24:44.134Z</time>
      </trkpt>
      <trkpt lat="43.624436" lon="10.694739">
        <ele>96.248372</ele>
        <time>2026-05-05T23:24:46.170Z</time>
      </trkpt>
      <trkpt lat="43.624457" lon="10.694412">
        <ele>96.413285</ele>
        <time>2026-05-05T23:24:51.119Z</time>
      </trkpt>
      <trkpt lat="43.624310" lon="10.692929">
        <ele>97.672514</ele>
        <time>2026-05-05T23:25:20.195Z</time>
      </trkpt>
      <trkpt lat="43.624003" lon="10.691700">
        <ele>102.247675</ele>
        <time>2026-05-05T23:26:07.868Z</time>
      </trkpt>
      <trkpt lat="43.624006" lon="10.691581">
        <ele>102.666695</ele>
        <time>2026-05-05T23:26:13.290Z</time>
      </trkpt>
      <trkpt lat="43.624041" lon="10.691480">
        <ele>103.060746</ele>
        <time>2026-05-05T23:26:18.552Z</time>
      </trkpt>
      <trkpt lat="43.624273" lon="10.691187">
        <ele>104.588859</ele>
        <time>2026-05-05T23:26:39.518Z</time>
      </trkpt>
      <trkpt lat="43.624617" lon="10.690841">
        <ele>106.607710</ele>
        <time>2026-05-05T23:27:07.087Z</time>
      </trkpt>
      <trkpt lat="43.625022" lon="10.690346">
        <ele>109.079490</ele>
        <time>2026-05-05T23:27:39.017Z</time>
      </trkpt>
      <trkpt lat="43.625077" lon="10.690235">
        <ele>109.524570</ele>
        <time>2026-05-05T23:27:44.253Z</time>
      </trkpt>
      <trkpt lat="43.625142" lon="10.689981">
        <ele>110.415975</ele>
        <time>2026-05-05T23:27:54.270Z</time>
      </trkpt>
      <trkpt lat="43.625211" lon="10.689198">
        <ele>113.025884</ele>
        <time>2026-05-05T23:28:20.894Z</time>
      </trkpt>
      <trkpt lat="43.625172" lon="10.688172">
        <ele>113.444231</ele>
        <time>2026-05-05T23:28:45.577Z</time>
      </trkpt>
      <trkpt lat="43.625204" lon="10.687636">
        <ele>112.994043</ele>
        <time>2026-05-05T23:28:53.322Z</time>
      </trkpt>
      <trkpt lat="43.625186" lon="10.687303">
        <ele>112.714526</ele>
        <time>2026-05-05T23:28:57.732Z</time>
      </trkpt>
      <trkpt lat="43.624988" lon="10.686792">
        <ele>112.229362</ele>
        <time>2026-05-05T23:29:04.996Z</time>
      </trkpt>
      <trkpt lat="43.624919" lon="10.686612">
        <ele>112.058868</ele>
        <time>2026-05-05T23:29:07.467Z</time>
      </trkpt>
      <trkpt lat="43.624869" lon="10.686395">
        <ele>111.733068</ele>
        <time>2026-05-05T23:29:10.180Z</time>
      </trkpt>
      <trkpt lat="43.624777" lon="10.684736">
        <ele>108.419017</ele>
        <time>2026-05-05T23:29:30.281Z</time>
      </trkpt>
      <trkpt lat="43.624657" lon="10.683996">
        <ele>107.058950</ele>
        <time>2026-05-05T23:29:41.164Z</time>
      </trkpt>
      <trkpt lat="43.624609" lon="10.683806">
        <ele>107.213238</ele>
        <time>2026-05-05T23:29:44.847Z</time>
      </trkpt>
      <trkpt lat="43.624416" lon="10.683284">
        <ele>107.662636</ele>
        <time>2026-05-05T23:29:58.138Z</time>
      </trkpt>
      <trkpt lat="43.624403" lon="10.683087">
        <ele>107.814301</ele>
        <time>2026-05-05T23:30:03.474Z</time>
      </trkpt>
      <trkpt lat="43.624463" lon="10.682941">
        <ele>107.943020</ele>
        <time>2026-05-05T23:30:08.145Z</time>
      </trkpt>
      <trkpt lat="43.624549" lon="10.683206">
        <ele>108.165678</ele>
        <time>2026-05-05T23:30:15.508Z</time>
      </trkpt>
      <trkpt lat="43.624706" lon="10.683307">
        <ele>108.349111</ele>
        <time>2026-05-05T23:30:21.331Z</time>
      </trkpt>
      <trkpt lat="43.625366" lon="10.683398">
        <ele>108.942420</ele>
        <time>2026-05-05T23:30:41.712Z</time>
      </trkpt>
      <trkpt lat="43.625753" lon="10.683250">
        <ele>109.008902</ele>
        <time>2026-05-05T23:30:51.968Z</time>
      </trkpt>
      <trkpt lat="43.625999" lon="10.683226">
        <ele>109.049731</ele>
        <time>2026-05-05T23:31:01.308Z</time>
      </trkpt>
      <trkpt lat="43.626285" lon="10.682886">
        <ele>109.112199</ele>
        <time>2026-05-05T23:31:15.352Z</time>
      </trkpt>
      <trkpt lat="43.626454" lon="10.682657">
        <ele>109.151392</ele>
        <time>2026-05-05T23:31:23.923Z</time>
      </trkpt>
      <trkpt lat="43.626566" lon="10.682433">
        <ele>109.184018</ele>
        <time>2026-05-05T23:31:31.201Z</time>
      </trkpt>
      <trkpt lat="43.626832" lon="10.681899">
        <ele>109.303592</ele>
        <time>2026-05-05T23:31:48.955Z</time>
      </trkpt>
      <trkpt lat="43.627261" lon="10.681864">
        <ele>109.446162</ele>
        <time>2026-05-05T23:32:06.641Z</time>
      </trkpt>
      <trkpt lat="43.627845" lon="10.682207">
        <ele>109.656689</ele>
        <time>2026-05-05T23:32:35.420Z</time>
      </trkpt>
      <trkpt lat="43.628007" lon="10.682302">
        <ele>109.715074</ele>
        <time>2026-05-05T23:32:42.566Z</time>
      </trkpt>
      <trkpt lat="43.628399" lon="10.682381">
        <ele>109.658643</ele>
        <time>2026-05-05T23:32:57.456Z</time>
      </trkpt>
      <trkpt lat="43.628636" lon="10.682491">
        <ele>109.219051</ele>
        <time>2026-05-05T23:33:06.527Z</time>
      </trkpt>
      <trkpt lat="43.629519" lon="10.683464">
        <ele>107.233166</ele>
        <time>2026-05-05T23:33:45.556Z</time>
      </trkpt>
      <trkpt lat="43.629731" lon="10.683582">
        <ele>106.831304</ele>
        <time>2026-05-05T23:33:52.530Z</time>
      </trkpt>
      <trkpt lat="43.629929" lon="10.683609">
        <ele>106.095196</ele>
        <time>2026-05-05T23:33:58.410Z</time>
      </trkpt>
      <trkpt lat="43.630182" lon="10.683561">
        <ele>104.642092</ele>
        <time>2026-05-05T23:34:05.708Z</time>
      </trkpt>
      <trkpt lat="43.630387" lon="10.683447">
        <ele>103.384677</ele>
        <time>2026-05-05T23:34:11.842Z</time>
      </trkpt>
      <trkpt lat="43.630753" lon="10.683384">
        <ele>101.286002</ele>
        <time>2026-05-05T23:34:22.011Z</time>
      </trkpt>
      <trkpt lat="43.631005" lon="10.683287">
        <ele>99.797488</ele>
        <time>2026-05-05T23:34:29.143Z</time>
      </trkpt>
      <trkpt lat="43.631378" lon="10.683046">
        <ele>97.454465</ele>
        <time>2026-05-05T23:34:40.356Z</time>
      </trkpt>
      <trkpt lat="43.632132" lon="10.682643">
        <ele>95.466715</ele>
        <time>2026-05-05T23:35:04.007Z</time>
      </trkpt>
      <trkpt lat="43.632391" lon="10.682396">
        <ele>94.988055</ele>
        <time>2026-05-05T23:35:15.058Z</time>
      </trkpt>
      <trkpt lat="43.632582" lon="10.682096">
        <ele>94.548214</ele>
        <time>2026-05-05T23:35:27.193Z</time>
      </trkpt>
      <trkpt lat="43.632854" lon="10.681844">
        <ele>94.050110</ele>
        <time>2026-05-05T23:35:42.721Z</time>
      </trkpt>
      <trkpt lat="43.633394" lon="10.681728">
        <ele>92.734757</ele>
        <time>2026-05-05T23:36:09.140Z</time>
      </trkpt>
      <trkpt lat="43.633511" lon="10.681677">
        <ele>92.353942</ele>
        <time>2026-05-05T23:36:13.926Z</time>
      </trkpt>
      <trkpt lat="43.633654" lon="10.681476">
        <ele>91.720748</ele>
        <time>2026-05-05T23:36:21.112Z</time>
      </trkpt>
      <trkpt lat="43.633726" lon="10.681112">
        <ele>90.873003</ele>
        <time>2026-05-05T23:36:29.802Z</time>
      </trkpt>
      <trkpt lat="43.633800" lon="10.680921">
        <ele>90.386295</ele>
        <time>2026-05-05T23:36:34.462Z</time>
      </trkpt>
      <trkpt lat="43.633834" lon="10.680861">
        <ele>90.215100</ele>
        <time>2026-05-05T23:36:36.056Z</time>
      </trkpt>
      <trkpt lat="43.633924" lon="10.680698">
        <ele>89.754514</ele>
        <time>2026-05-05T23:36:40.321Z</time>
      </trkpt>
      <trkpt lat="43.634012" lon="10.680578">
        <ele>89.370729</ele>
        <time>2026-05-05T23:36:43.819Z</time>
      </trkpt>
      <trkpt lat="43.634122" lon="10.680484">
        <ele>88.969259</ele>
        <time>2026-05-05T23:36:47.437Z</time>
      </trkpt>
      <trkpt lat="43.634402" lon="10.680326">
        <ele>87.996859</ele>
        <time>2026-05-05T23:36:55.656Z</time>
      </trkpt>
      <trkpt lat="43.634771" lon="10.680173">
        <ele>86.232397</ele>
        <time>2026-05-05T23:37:05.946Z</time>
      </trkpt>
      <trkpt lat="43.635499" lon="10.679961">
        <ele>82.824938</ele>
        <time>2026-05-05T23:37:26.618Z</time>
      </trkpt>
      <trkpt lat="43.635835" lon="10.679816">
        <ele>81.212760</ele>
        <time>2026-05-05T23:37:37.895Z</time>
      </trkpt>
      <trkpt lat="43.636223" lon="10.679757">
        <ele>79.700538</ele>
        <time>2026-05-05T23:37:53.119Z</time>
      </trkpt>
      <trkpt lat="43.637186" lon="10.679526">
        <ele>78.037750</ele>
        <time>2026-05-05T23:38:31.578Z</time>
      </trkpt>
      <trkpt lat="43.637318" lon="10.679462">
        <ele>77.799764</ele>
        <time>2026-05-05T23:38:36.214Z</time>
      </trkpt>
      <trkpt lat="43.637490" lon="10.679189">
        <ele>77.354119</ele>
        <time>2026-05-05T23:38:44.429Z</time>
      </trkpt>
      <trkpt lat="43.637540" lon="10.678980">
        <ele>77.083100</ele>
        <time>2026-05-05T23:38:49.233Z</time>
      </trkpt>
      <trkpt lat="43.637781" lon="10.678609">
        <ele>75.714379</ele>
        <time>2026-05-05T23:38:59.673Z</time>
      </trkpt>
      <trkpt lat="43.637847" lon="10.678459">
        <ele>75.009954</ele>
        <time>2026-05-05T23:39:03.265Z</time>
      </trkpt>
      <trkpt lat="43.637847" lon="10.678304">
        <ele>74.387978</ele>
        <time>2026-05-05T23:39:06.395Z</time>
      </trkpt>
      <trkpt lat="43.637878" lon="10.678186">
        <ele>73.884243</ele>
        <time>2026-05-05T23:39:08.898Z</time>
      </trkpt>
      <trkpt lat="43.637932" lon="10.678116">
        <ele>73.473698</ele>
        <time>2026-05-05T23:39:10.926Z</time>
      </trkpt>
      <trkpt lat="43.638002" lon="10.678073">
        <ele>73.048947</ele>
        <time>2026-05-05T23:39:13.024Z</time>
      </trkpt>
      <trkpt lat="43.638138" lon="10.678078">
        <ele>72.294610</ele>
        <time>2026-05-05T23:39:16.780Z</time>
      </trkpt>
      <trkpt lat="43.638204" lon="10.678052">
        <ele>71.914082</ele>
        <time>2026-05-05T23:39:18.692Z</time>
      </trkpt>
      <trkpt lat="43.638253" lon="10.677981">
        <ele>71.520402</ele>
        <time>2026-05-05T23:39:20.679Z</time>
      </trkpt>
      <trkpt lat="43.638351" lon="10.677923">
        <ele>70.929282</ele>
        <time>2026-05-05T23:39:23.686Z</time>
      </trkpt>
      <trkpt lat="43.638879" lon="10.678009">
        <ele>67.981445</ele>
        <time>2026-05-05T23:39:38.827Z</time>
      </trkpt>
      <trkpt lat="43.639115" lon="10.677820">
        <ele>66.512107</ele>
        <time>2026-05-05T23:39:46.623Z</time>
      </trkpt>
      <trkpt lat="43.639209" lon="10.677708">
        <ele>65.905902</ele>
        <time>2026-05-05T23:39:50.159Z</time>
      </trkpt>
      <trkpt lat="43.639388" lon="10.677622">
        <ele>64.980325</ele>
        <time>2026-05-05T23:39:55.510Z</time>
      </trkpt>
      <trkpt lat="43.639520" lon="10.677510">
        <ele>64.223795</ele>
        <time>2026-05-05T23:39:59.890Z</time>
      </trkpt>
      <trkpt lat="43.639543" lon="10.677435">
        <ele>63.935886</ele>
        <time>2026-05-05T23:40:01.556Z</time>
      </trkpt>
      <trkpt lat="43.639546" lon="10.677069">
        <ele>62.642161</ele>
        <time>2026-05-05T23:40:09.014Z</time>
      </trkpt>
      <trkpt lat="43.639524" lon="10.676297">
        <ele>59.911381</ele>
        <time>2026-05-05T23:40:24.915Z</time>
      </trkpt>
      <trkpt lat="43.639557" lon="10.676171">
        <ele>59.437761</ele>
        <time>2026-05-05T23:40:27.732Z</time>
      </trkpt>
      <trkpt lat="43.639628" lon="10.676023">
        <ele>58.810153</ele>
        <time>2026-05-05T23:40:31.491Z</time>
      </trkpt>
      <trkpt lat="43.639804" lon="10.675761">
        <ele>58.179869</ele>
        <time>2026-05-05T23:40:39.373Z</time>
      </trkpt>
      <trkpt lat="43.639876" lon="10.675712">
        <ele>58.284916</ele>
        <time>2026-05-05T23:40:41.960Z</time>
      </trkpt>
      <trkpt lat="43.639990" lon="10.675420">
        <ele>58.599183</ele>
        <time>2026-05-05T23:40:50.415Z</time>
      </trkpt>
      <trkpt lat="43.640069" lon="10.675297">
        <ele>58.754956</ele>
        <time>2026-05-05T23:40:55.009Z</time>
      </trkpt>
      <trkpt lat="43.640322" lon="10.674991">
        <ele>59.195031</ele>
        <time>2026-05-05T23:41:10.909Z</time>
      </trkpt>
      <trkpt lat="43.640375" lon="10.674822">
        <ele>59.369493</ele>
        <time>2026-05-05T23:41:18.229Z</time>
      </trkpt>
      <trkpt lat="43.640581" lon="10.674620">
        <ele>59.700109</ele>
        <time>2026-05-05T23:41:33.270Z</time>
      </trkpt>
      <trkpt lat="43.640664" lon="10.674485">
        <ele>59.867897</ele>
        <time>2026-05-05T23:41:41.361Z</time>
      </trkpt>
      <trkpt lat="43.640966" lon="10.674564">
        <ele>60.270193</ele>
        <time>2026-05-05T23:42:00.736Z</time>
      </trkpt>
      <trkpt lat="43.640978" lon="10.674567">
        <ele>60.286155</ele>
        <time>2026-05-05T23:42:01.434Z</time>
      </trkpt>
      <trkpt lat="43.641153" lon="10.674648">
        <ele>60.552996</ele>
        <time>2026-05-05T23:42:12.922Z</time>
      </trkpt>
      <trkpt lat="43.641253" lon="10.674642">
        <ele>60.709984</ele>
        <time>2026-05-05T23:42:19.304Z</time>
      </trkpt>
      <trkpt lat="43.641343" lon="10.674591">
        <ele>60.862548</ele>
        <time>2026-05-05T23:42:25.190Z</time>
      </trkpt>
      <trkpt lat="43.641518" lon="10.674653">
        <ele>61.145895</ele>
        <time>2026-05-05T23:42:36.209Z</time>
      </trkpt>
      <trkpt lat="43.641792" lon="10.674540">
        <ele>61.594367</ele>
        <time>2026-05-05T23:42:51.885Z</time>
      </trkpt>
      <trkpt lat="43.642069" lon="10.674610">
        <ele>62.036019</ele>
        <time>2026-05-05T23:43:05.528Z</time>
      </trkpt>
      <trkpt lat="43.642312" lon="10.674527">
        <ele>62.428610</ele>
        <time>2026-05-05T23:43:16.633Z</time>
      </trkpt>
      <trkpt lat="43.642481" lon="10.674502">
        <ele>62.695184</ele>
        <time>2026-05-05T23:43:23.258Z</time>
      </trkpt>
      <trkpt lat="43.643268" lon="10.674530">
        <ele>62.526650</ele>
        <time>2026-05-05T23:43:50.122Z</time>
      </trkpt>
      <trkpt lat="43.643451" lon="10.674478">
        <ele>62.239484</ele>
        <time>2026-05-05T23:43:56.305Z</time>
      </trkpt>
      <trkpt lat="43.643673" lon="10.674330">
        <ele>61.860626</ele>
        <time>2026-05-05T23:44:04.417Z</time>
      </trkpt>
      <trkpt lat="43.643943" lon="10.674147">
        <ele>61.398394</ele>
        <time>2026-05-05T23:44:14.373Z</time>
      </trkpt>
      <trkpt lat="43.644188" lon="10.674135">
        <ele>61.021580</ele>
        <time>2026-05-05T23:44:22.555Z</time>
      </trkpt>
      <trkpt lat="43.644435" lon="10.674071">
        <ele>60.635313</ele>
        <time>2026-05-05T23:44:30.930Z</time>
      </trkpt>
      <trkpt lat="43.644718" lon="10.673848">
        <ele>60.194587</ele>
        <time>2026-05-05T23:44:41.919Z</time>
      </trkpt>
      <trkpt lat="43.645308" lon="10.673535">
        <ele>59.404212</ele>
        <time>2026-05-05T23:45:04.248Z</time>
      </trkpt>
      <trkpt lat="43.645650" lon="10.673057">
        <ele>58.795879</ele>
        <time>2026-05-05T23:45:21.335Z</time>
      </trkpt>
      <trkpt lat="43.645905" lon="10.672837">
        <ele>58.419922</ele>
        <time>2026-05-05T23:45:31.711Z</time>
      </trkpt>
      <trkpt lat="43.646108" lon="10.672553">
        <ele>57.937075</ele>
        <time>2026-05-05T23:45:41.438Z</time>
      </trkpt>
      <trkpt lat="43.646170" lon="10.672419">
        <ele>57.675290</ele>
        <time>2026-05-05T23:45:45.315Z</time>
      </trkpt>
      <trkpt lat="43.646434" lon="10.672161">
        <ele>56.939825</ele>
        <time>2026-05-05T23:45:56.314Z</time>
      </trkpt>
      <trkpt lat="43.646911" lon="10.671764">
        <ele>55.673283</ele>
        <time>2026-05-05T23:46:14.530Z</time>
      </trkpt>
      <trkpt lat="43.647020" lon="10.671797">
        <ele>55.419475</ele>
        <time>2026-05-05T23:46:18.046Z</time>
      </trkpt>
      <trkpt lat="43.647315" lon="10.671728">
        <ele>54.738933</ele>
        <time>2026-05-05T23:46:27.413Z</time>
      </trkpt>
      <trkpt lat="43.647377" lon="10.671700">
        <ele>54.590570</ele>
        <time>2026-05-05T23:46:29.450Z</time>
      </trkpt>
      <trkpt lat="43.647451" lon="10.671603">
        <ele>54.358580</ele>
        <time>2026-05-05T23:46:32.593Z</time>
      </trkpt>
      <trkpt lat="43.647547" lon="10.671270">
        <ele>53.516564</ele>
        <time>2026-05-05T23:46:40.577Z</time>
      </trkpt>
      <trkpt lat="43.647602" lon="10.671174">
        <ele>53.168821</ele>
        <time>2026-05-05T23:46:43.293Z</time>
      </trkpt>
      <trkpt lat="43.647618" lon="10.671051">
        <ele>52.813909</ele>
        <time>2026-05-05T23:46:46.063Z</time>
      </trkpt>
      <trkpt lat="43.647567" lon="10.670590">
        <ele>51.489484</ele>
        <time>2026-05-05T23:46:56.334Z</time>
      </trkpt>
      <trkpt lat="43.647571" lon="10.670434">
        <ele>51.046175</ele>
        <time>2026-05-05T23:46:59.701Z</time>
      </trkpt>
      <trkpt lat="43.647858" lon="10.670273">
        <ele>49.830511</ele>
        <time>2026-05-05T23:47:08.801Z</time>
      </trkpt>
      <trkpt lat="43.647954" lon="10.670160">
        <ele>49.335593</ele>
        <time>2026-05-05T23:47:12.501Z</time>
      </trkpt>
      <trkpt lat="43.648043" lon="10.670139">
        <ele>48.981236</ele>
        <time>2026-05-05T23:47:15.141Z</time>
      </trkpt>
      <trkpt lat="43.648145" lon="10.670197">
        <ele>48.548350</ele>
        <time>2026-05-05T23:47:18.377Z</time>
      </trkpt>
      <trkpt lat="43.648242" lon="10.670203">
        <ele>48.167269</ele>
        <time>2026-05-05T23:47:21.257Z</time>
      </trkpt>
      <trkpt lat="43.648455" lon="10.670112">
        <ele>47.292264</ele>
        <time>2026-05-05T23:47:27.923Z</time>
      </trkpt>
      <trkpt lat="43.648796" lon="10.670043">
        <ele>45.982882</ele>
        <time>2026-05-05T23:47:38.302Z</time>
      </trkpt>
      <trkpt lat="43.649056" lon="10.669834">
        <ele>44.848063</ele>
        <time>2026-05-05T23:47:47.419Z</time>
      </trkpt>
      <trkpt lat="43.649134" lon="10.669678">
        <ele>44.330399</ele>
        <time>2026-05-05T23:47:51.566Z</time>
      </trkpt>
      <trkpt lat="43.649208" lon="10.669598">
        <ele>43.975931</ele>
        <time>2026-05-05T23:47:54.411Z</time>
      </trkpt>
      <trkpt lat="43.649619" lon="10.669431">
        <ele>42.359644</ele>
        <time>2026-05-05T23:48:07.381Z</time>
      </trkpt>
      <trkpt lat="43.649774" lon="10.669410">
        <ele>41.772043</ele>
        <time>2026-05-05T23:48:12.096Z</time>
      </trkpt>
      <trkpt lat="43.650003" lon="10.669458">
        <ele>40.898171</ele>
        <time>2026-05-05T23:48:19.112Z</time>
      </trkpt>
      <trkpt lat="43.650050" lon="10.669415">
        <ele>40.685511</ele>
        <time>2026-05-05T23:48:20.809Z</time>
      </trkpt>
      <trkpt lat="43.650311" lon="10.669532">
        <ele>39.641528</ele>
        <time>2026-05-05T23:48:29.146Z</time>
      </trkpt>
      <trkpt lat="43.650423" lon="10.669533">
        <ele>39.212994</ele>
        <time>2026-05-05T23:48:32.569Z</time>
      </trkpt>
      <trkpt lat="43.650861" lon="10.669356">
        <ele>37.466985</ele>
        <time>2026-05-05T23:48:46.495Z</time>
      </trkpt>
      <trkpt lat="43.651067" lon="10.669473">
        <ele>36.614845</ele>
        <time>2026-05-05T23:48:53.267Z</time>
      </trkpt>
      <trkpt lat="43.651273" lon="10.669452">
        <ele>35.824523</ele>
        <time>2026-05-05T23:48:59.522Z</time>
      </trkpt>
      <trkpt lat="43.651669" lon="10.669333">
        <ele>34.273979</ele>
        <time>2026-05-05T23:49:11.684Z</time>
      </trkpt>
      <trkpt lat="43.652241" lon="10.669088">
        <ele>31.639141</ele>
        <time>2026-05-05T23:49:29.386Z</time>
      </trkpt>
      <trkpt lat="43.652769" lon="10.668805">
        <ele>28.942880</ele>
        <time>2026-05-05T23:49:45.770Z</time>
      </trkpt>
      <trkpt lat="43.653000" lon="10.668731">
        <ele>27.813916</ele>
        <time>2026-05-05T23:49:52.576Z</time>
      </trkpt>
      <trkpt lat="43.653489" lon="10.668605">
        <ele>25.445638</ele>
        <time>2026-05-05T23:50:06.740Z</time>
      </trkpt>
      <trkpt lat="43.654801" lon="10.668603">
        <ele>21.306634</ele>
        <time>2026-05-05T23:50:46.018Z</time>
      </trkpt>
      <trkpt lat="43.654959" lon="10.668945">
        <ele>20.432445</ele>
        <time>2026-05-05T23:50:51.681Z</time>
      </trkpt>
      <trkpt lat="43.654998" lon="10.669189">
        <ele>19.894106</ele>
        <time>2026-05-05T23:50:55.367Z</time>
      </trkpt>
      <trkpt lat="43.654963" lon="10.669458">
        <ele>19.458434</ele>
        <time>2026-05-05T23:50:59.633Z</time>
      </trkpt>
      <trkpt lat="43.654895" lon="10.669979">
        <ele>19.380328</ele>
        <time>2026-05-05T23:51:08.402Z</time>
      </trkpt>
      <trkpt lat="43.654779" lon="10.670621">
        <ele>19.282702</ele>
        <time>2026-05-05T23:51:20.413Z</time>
      </trkpt>
      <trkpt lat="43.654707" lon="10.670877">
        <ele>19.242180</ele>
        <time>2026-05-05T23:51:25.328Z</time>
      </trkpt>
      <trkpt lat="43.654546" lon="10.671250">
        <ele>19.178101</ele>
        <time>2026-05-05T23:51:32.747Z</time>
      </trkpt>
      <trkpt lat="43.654542" lon="10.671318">
        <ele>19.168035</ele>
        <time>2026-05-05T23:51:33.835Z</time>
      </trkpt>
      <trkpt lat="43.654563" lon="10.671370">
        <ele>19.159249</ele>
        <time>2026-05-05T23:51:34.775Z</time>
      </trkpt>
      <trkpt lat="43.654689" lon="10.671470">
        <ele>19.129622</ele>
        <time>2026-05-05T23:51:37.920Z</time>
      </trkpt>
      <trkpt lat="43.654861" lon="10.671561">
        <ele>19.053747</ele>
        <time>2026-05-05T23:51:41.828Z</time>
      </trkpt>
      <trkpt lat="43.654984" lon="10.671555">
        <ele>18.940075</ele>
        <time>2026-05-05T23:51:44.387Z</time>
      </trkpt>
      <trkpt lat="43.655034" lon="10.671507">
        <ele>18.883850</ele>
        <time>2026-05-05T23:51:45.636Z</time>
      </trkpt>
      <trkpt lat="43.655072" lon="10.671393">
        <ele>18.799977</ele>
        <time>2026-05-05T23:51:47.489Z</time>
      </trkpt>
      <trkpt lat="43.655107" lon="10.671114">
        <ele>18.610761</ele>
        <time>2026-05-05T23:51:51.645Z</time>
      </trkpt>
      <trkpt lat="43.655145" lon="10.671026">
        <ele>18.542281</ele>
        <time>2026-05-05T23:51:53.125Z</time>
      </trkpt>
      <trkpt lat="43.655198" lon="10.670987">
        <ele>18.486826</ele>
        <time>2026-05-05T23:51:54.352Z</time>
      </trkpt>
      <trkpt lat="43.655309" lon="10.670988">
        <ele>18.384305</ele>
        <time>2026-05-05T23:51:56.574Z</time>
      </trkpt>
      <trkpt lat="43.655633" lon="10.669201">
        <ele>17.161744</ele>
        <time>2026-05-05T23:52:23.487Z</time>
      </trkpt>
      <trkpt lat="43.655727" lon="10.668610">
        <ele>16.769268</ele>
        <time>2026-05-05T23:52:32.372Z</time>
      </trkpt>
      <trkpt lat="43.655750" lon="10.667597">
        <ele>16.111913</ele>
        <time>2026-05-05T23:52:47.489Z</time>
      </trkpt>
      <trkpt lat="43.655692" lon="10.667082">
        <ele>15.779322</ele>
        <time>2026-05-05T23:52:55.278Z</time>
      </trkpt>
      <trkpt lat="43.655528" lon="10.666199">
        <ele>15.246294</ele>
        <time>2026-05-05T23:53:08.876Z</time>
      </trkpt>
      <trkpt lat="43.655464" lon="10.665582">
        <ele>14.881846</ele>
        <time>2026-05-05T23:53:18.179Z</time>
      </trkpt>
      <trkpt lat="43.655470" lon="10.665231">
        <ele>14.676559</ele>
        <time>2026-05-05T23:53:23.435Z</time>
      </trkpt>
      <trkpt lat="43.655513" lon="10.665033">
        <ele>14.555686</ele>
        <time>2026-05-05T23:53:26.539Z</time>
      </trkpt>
      <trkpt lat="43.655757" lon="10.664321">
        <ele>14.235935</ele>
        <time>2026-05-05T23:53:38.500Z</time>
      </trkpt>
      <trkpt lat="43.656283" lon="10.662786">
        <ele>13.741365</ele>
        <time>2026-05-05T23:54:05.066Z</time>
      </trkpt>
      <trkpt lat="43.656688" lon="10.661145">
        <ele>13.556876</ele>
        <time>2026-05-05T23:54:34.270Z</time>
      </trkpt>
      <trkpt lat="43.657002" lon="10.659775">
        <ele>13.482067</ele>
        <time>2026-05-05T23:54:57.383Z</time>
      </trkpt>
      <trkpt lat="43.657237" lon="10.658731">
        <ele>13.469695</ele>
        <time>2026-05-05T23:55:15.983Z</time>
      </trkpt>
      <trkpt lat="43.657387" lon="10.657927">
        <ele>13.460300</ele>
        <time>2026-05-05T23:55:29.228Z</time>
      </trkpt>
      <trkpt lat="43.657395" lon="10.657877">
        <ele>13.459720</ele>
        <time>2026-05-05T23:55:30.129Z</time>
      </trkpt>
      <trkpt lat="43.657423" lon="10.657738">
        <ele>13.461109</ele>
        <time>2026-05-05T23:55:32.588Z</time>
      </trkpt>
      <trkpt lat="43.657441" lon="10.657652">
        <ele>13.486056</ele>
        <time>2026-05-05T23:55:34.131Z</time>
      </trkpt>
      <trkpt lat="43.657500" lon="10.657425">
        <ele>13.553266</ele>
        <time>2026-05-05T23:55:38.502Z</time>
      </trkpt>
      <trkpt lat="43.657617" lon="10.657011">
        <ele>13.677115</ele>
        <time>2026-05-05T23:55:47.059Z</time>
      </trkpt>
      <trkpt lat="43.657579" lon="10.656910">
        <ele>13.708836</ele>
        <time>2026-05-05T23:55:49.219Z</time>
      </trkpt>
      <trkpt lat="43.657509" lon="10.656861">
        <ele>13.739057</ele>
        <time>2026-05-05T23:55:51.247Z</time>
      </trkpt>
      <trkpt lat="43.657177" lon="10.656876">
        <ele>13.866994</ele>
        <time>2026-05-05T23:55:59.428Z</time>
      </trkpt>
      <trkpt lat="43.657019" lon="10.656847">
        <ele>13.928382</ele>
        <time>2026-05-05T23:56:02.998Z</time>
      </trkpt>
      <trkpt lat="43.655925" lon="10.656518">
        <ele>14.657773</ele>
        <time>2026-05-05T23:56:33.580Z</time>
      </trkpt>
      <trkpt lat="43.655724" lon="10.656318">
        <ele>14.889486</ele>
        <time>2026-05-05T23:56:41.120Z</time>
      </trkpt>
      <trkpt lat="43.655156" lon="10.655430">
        <ele>15.691796</ele>
        <time>2026-05-05T23:57:06.727Z</time>
      </trkpt>
      <trkpt lat="43.655007" lon="10.655208">
        <ele>15.879401</ele>
        <time>2026-05-05T23:57:12.833Z</time>
      </trkpt>
      <trkpt lat="43.654884" lon="10.655020">
        <ele>16.003701</ele>
        <time>2026-05-05T23:57:17.832Z</time>
      </trkpt>
      <trkpt lat="43.654632" lon="10.654639">
        <ele>16.256852</ele>
        <time>2026-05-05T23:57:27.697Z</time>
      </trkpt>
      <trkpt lat="43.654594" lon="10.654533">
        <ele>16.314866</ele>
        <time>2026-05-05T23:57:29.985Z</time>
      </trkpt>
      <trkpt lat="43.654643" lon="10.654254">
        <ele>16.455661</ele>
        <time>2026-05-05T23:57:35.284Z</time>
      </trkpt>
      <trkpt lat="43.654757" lon="10.653854">
        <ele>16.666492</ele>
        <time>2026-05-05T23:57:43.186Z</time>
      </trkpt>
      <trkpt lat="43.655331" lon="10.651472">
        <ele>17.728103</ele>
        <time>2026-05-05T23:58:33.620Z</time>
      </trkpt>
      <trkpt lat="43.655339" lon="10.651415">
        <ele>17.750861</ele>
        <time>2026-05-05T23:58:34.833Z</time>
      </trkpt>
      <trkpt lat="43.655331" lon="10.651472">
        <ele>17.773618</ele>
        <time>2026-05-05T23:58:35.985Z</time>
      </trkpt>
      <trkpt lat="43.654304" lon="10.650993">
        <ele>17.572323</ele>
        <time>2026-05-05T23:59:02.246Z</time>
      </trkpt>
      <trkpt lat="43.654148" lon="10.650925">
        <ele>17.451466</ele>
        <time>2026-05-05T23:59:05.782Z</time>
      </trkpt>
      <trkpt lat="43.653579" lon="10.650678">
        <ele>17.010812</ele>
        <time>2026-05-05T23:59:18.518Z</time>
      </trkpt>
      <trkpt lat="43.653473" lon="10.650524">
        <ele>16.897185</ele>
        <time>2026-05-05T23:59:21.744Z</time>
      </trkpt>
      <trkpt lat="43.653407" lon="10.650453">
        <ele>16.835391</ele>
        <time>2026-05-05T23:59:23.485Z</time>
      </trkpt>
      <trkpt lat="43.653321" lon="10.650363">
        <ele>16.755690</ele>
        <time>2026-05-05T23:59:25.702Z</time>
      </trkpt>
      <trkpt lat="43.653323" lon="10.649927">
        <ele>16.454324</ele>
        <time>2026-05-05T23:59:34.072Z</time>
      </trkpt>
      <trkpt lat="43.653290" lon="10.649536">
        <ele>16.162107</ele>
        <time>2026-05-05T23:59:41.686Z</time>
      </trkpt>
      <trkpt lat="43.653382" lon="10.649025">
        <ele>15.771211</ele>
        <time>2026-05-05T23:59:51.891Z</time>
      </trkpt>
      <trkpt lat="43.653674" lon="10.648205">
        <ele>15.092776</ele>
        <time>2026-05-06T00:00:10.313Z</time>
      </trkpt>
      <trkpt lat="43.653673" lon="10.647909">
        <ele>14.873046</ele>
        <time>2026-05-06T00:00:16.279Z</time>
      </trkpt>
      <trkpt lat="43.653726" lon="10.647780">
        <ele>14.839990</ele>
        <time>2026-05-06T00:00:18.521Z</time>
      </trkpt>
      <trkpt lat="43.654046" lon="10.646938">
        <ele>14.738361</ele>
        <time>2026-05-06T00:00:33.340Z</time>
      </trkpt>
      <trkpt lat="43.654173" lon="10.646584">
        <ele>14.696139</ele>
        <time>2026-05-06T00:00:39.978Z</time>
      </trkpt>
      <trkpt lat="43.654312" lon="10.645943">
        <ele>14.624636</ele>
        <time>2026-05-06T00:00:51.902Z</time>
      </trkpt>
      <trkpt lat="43.654335" lon="10.645591">
        <ele>14.587746</ele>
        <time>2026-05-06T00:00:58.017Z</time>
      </trkpt>
      <trkpt lat="43.654279" lon="10.645154">
        <ele>14.634268</ele>
        <time>2026-05-06T00:01:05.687Z</time>
      </trkpt>
      <trkpt lat="43.654322" lon="10.644978">
        <ele>14.653740</ele>
        <time>2026-05-06T00:01:08.957Z</time>
      </trkpt>
      <trkpt lat="43.654371" lon="10.644851">
        <ele>14.668828</ele>
        <time>2026-05-06T00:01:11.470Z</time>
      </trkpt>
      <trkpt lat="43.654340" lon="10.644675">
        <ele>14.687816</ele>
        <time>2026-05-06T00:01:14.631Z</time>
      </trkpt>
      <trkpt lat="43.654353" lon="10.644274">
        <ele>14.729893</ele>
        <time>2026-05-06T00:01:21.615Z</time>
      </trkpt>
      <trkpt lat="43.654292" lon="10.643683">
        <ele>14.792472</ele>
        <time>2026-05-06T00:01:31.759Z</time>
      </trkpt>
      <trkpt lat="43.653874" lon="10.639828">
        <ele>14.938943</ele>
        <time>2026-05-06T00:02:38.574Z</time>
      </trkpt>
      <trkpt lat="43.653830" lon="10.639423">
        <ele>14.896715</ele>
        <time>2026-05-06T00:02:45.171Z</time>
      </trkpt>
      <trkpt lat="43.653748" lon="10.638553">
        <ele>14.806251</ele>
        <time>2026-05-06T00:02:59.114Z</time>
      </trkpt>
      <trkpt lat="43.653756" lon="10.637816">
        <ele>14.693292</ele>
        <time>2026-05-06T00:03:10.669Z</time>
      </trkpt>
      <trkpt lat="43.653917" lon="10.635976">
        <ele>14.339603</ele>
        <time>2026-05-06T00:03:40.279Z</time>
      </trkpt>
      <trkpt lat="43.653947" lon="10.635839">
        <ele>14.312288</ele>
        <time>2026-05-06T00:03:42.623Z</time>
      </trkpt>
      <trkpt lat="43.654059" lon="10.635617">
        <ele>14.308275</ele>
        <time>2026-05-06T00:03:47.059Z</time>
      </trkpt>
      <trkpt lat="43.654116" lon="10.635550">
        <ele>14.312862</ele>
        <time>2026-05-06T00:03:48.773Z</time>
      </trkpt>
      <trkpt lat="43.654263" lon="10.635541">
        <ele>14.321883</ele>
        <time>2026-05-06T00:03:52.189Z</time>
      </trkpt>
      <trkpt lat="43.654399" lon="10.635533">
        <ele>14.330228</ele>
        <time>2026-05-06T00:03:55.396Z</time>
      </trkpt>
      <trkpt lat="43.654429" lon="10.635460">
        <ele>14.333951</ele>
        <time>2026-05-06T00:03:59.601Z</time>
      </trkpt>
      <trkpt lat="43.654252" lon="10.635248">
        <ele>14.348309</ele>
        <time>2026-05-06T00:04:05.115Z</time>
      </trkpt>
      <trkpt lat="43.654116" lon="10.634963">
        <ele>14.363452</ele>
        <time>2026-05-06T00:04:11.056Z</time>
      </trkpt>
      <trkpt lat="43.654081" lon="10.634688">
        <ele>14.375837</ele>
        <time>2026-05-06T00:04:15.905Z</time>
      </trkpt>
      <trkpt lat="43.654118" lon="10.634303">
        <ele>14.393063</ele>
        <time>2026-05-06T00:04:22.748Z</time>
      </trkpt>
      <trkpt lat="43.654139" lon="10.634149">
        <ele>14.400014</ele>
        <time>2026-05-06T00:04:25.474Z</time>
      </trkpt>
      <trkpt lat="43.654118" lon="10.634303">
        <ele>14.406965</ele>
        <time>2026-05-06T00:04:28.118Z</time>
      </trkpt>
      <trkpt lat="43.654141" lon="10.634316">
        <ele>14.408488</ele>
        <time>2026-05-06T00:04:28.685Z</time>
      </trkpt>
      <trkpt lat="43.654189" lon="10.633834">
        <ele>14.361275</ele>
        <time>2026-05-06T00:04:53.147Z</time>
      </trkpt>
      <trkpt lat="43.654159" lon="10.633767">
        <ele>14.353050</ele>
        <time>2026-05-06T00:04:57.114Z</time>
      </trkpt>
      <trkpt lat="43.654257" lon="10.632664">
        <ele>14.237044</ele>
        <time>2026-05-06T00:05:52.996Z</time>
      </trkpt>
      <trkpt lat="43.654333" lon="10.631822">
        <ele>14.150948</ele>
        <time>2026-05-06T00:06:35.645Z</time>
      </trkpt>
      <trkpt lat="43.654351" lon="10.631726">
        <ele>14.156846</ele>
        <time>2026-05-06T00:06:40.650Z</time>
      </trkpt>
      <trkpt lat="43.654333" lon="10.631822">
        <ele>14.162743</ele>
        <time>2026-05-06T00:06:45.654Z</time>
      </trkpt>
      <trkpt lat="43.654286" lon="10.631815">
        <ele>14.166629</ele>
        <time>2026-05-06T00:06:48.965Z</time>
      </trkpt>
      <trkpt lat="43.654335" lon="10.631486">
        <ele>14.186605</ele>
        <time>2026-05-06T00:06:54.493Z</time>
      </trkpt>
      <trkpt lat="43.654390" lon="10.631410">
        <ele>14.192998</ele>
        <time>2026-05-06T00:06:56.236Z</time>
      </trkpt>
      <trkpt lat="43.654492" lon="10.631362">
        <ele>14.201855</ele>
        <time>2026-05-06T00:06:58.665Z</time>
      </trkpt>
      <trkpt lat="43.654666" lon="10.631375">
        <ele>14.216178</ele>
        <time>2026-05-06T00:07:02.561Z</time>
      </trkpt>
      <trkpt lat="43.654655" lon="10.631430">
        <ele>14.219571</ele>
        <time>2026-05-06T00:07:05.456Z</time>
      </trkpt>
      <trkpt lat="43.654876" lon="10.631517">
        <ele>14.238459</ele>
        <time>2026-05-06T00:07:21.437Z</time>
      </trkpt>
      <trkpt lat="43.655097" lon="10.631603">
        <ele>14.257331</ele>
        <time>2026-05-06T00:07:37.392Z</time>
      </trkpt>
      <trkpt lat="43.654876" lon="10.631517">
        <ele>14.276203</ele>
        <time>2026-05-06T00:07:53.348Z</time>
      </trkpt>
      <trkpt lat="43.654655" lon="10.631430">
        <ele>14.295091</ele>
        <time>2026-05-06T00:08:09.329Z</time>
      </trkpt>
      <trkpt lat="43.654666" lon="10.631375">
        <ele>14.300584</ele>
        <time>2026-05-06T00:08:12.224Z</time>
      </trkpt>
      <trkpt lat="43.654604" lon="10.631337">
        <ele>14.325872</ele>
        <time>2026-05-06T00:08:14.019Z</time>
      </trkpt>
      <trkpt lat="43.654628" lon="10.631289">
        <ele>14.341612</ele>
        <time>2026-05-06T00:08:15.154Z</time>
      </trkpt>
      <trkpt lat="43.654679" lon="10.631313">
        <ele>14.361700</ele>
        <time>2026-05-06T00:08:16.614Z</time>
      </trkpt>
      <trkpt lat="43.654984" lon="10.631432">
        <ele>14.479866</ele>
        <time>2026-05-06T00:08:25.009Z</time>
      </trkpt>
      <trkpt lat="43.655125" lon="10.631413">
        <ele>14.532689</ele>
        <time>2026-05-06T00:08:28.598Z</time>
      </trkpt>
      <trkpt lat="43.655438" lon="10.631528">
        <ele>14.653446</ele>
        <time>2026-05-06T00:08:36.881Z</time>
      </trkpt>
      <trkpt lat="43.655590" lon="10.631469">
        <ele>14.712313</ele>
        <time>2026-05-06T00:08:41.089Z</time>
      </trkpt>
      <trkpt lat="43.655659" lon="10.631488">
        <ele>14.738546</ele>
        <time>2026-05-06T00:08:42.947Z</time>
      </trkpt>
      <trkpt lat="43.655747" lon="10.631021">
        <ele>14.868729</ele>
        <time>2026-05-06T00:08:52.092Z</time>
      </trkpt>
      <trkpt lat="43.655487" lon="10.630933">
        <ele>14.968522</ele>
        <time>2026-05-06T00:08:58.847Z</time>
      </trkpt>
      <trkpt lat="43.655747" lon="10.631021">
        <ele>14.839436</ele>
        <time>2026-05-06T00:09:05.189Z</time>
      </trkpt>
      <trkpt lat="43.655659" lon="10.631488">
        <ele>14.671065</ele>
        <time>2026-05-06T00:09:12.654Z</time>
      </trkpt>
      <trkpt lat="43.655590" lon="10.631469">
        <ele>14.637137</ele>
        <time>2026-05-06T00:09:14.142Z</time>
      </trkpt>
      <trkpt lat="43.655438" lon="10.631528">
        <ele>14.561001</ele>
        <time>2026-05-06T00:09:17.430Z</time>
      </trkpt>
      <trkpt lat="43.655125" lon="10.631413">
        <ele>14.404819</ele>
        <time>2026-05-06T00:09:24.076Z</time>
      </trkpt>
      <trkpt lat="43.654984" lon="10.631432">
        <ele>14.336501</ele>
        <time>2026-05-06T00:09:26.981Z</time>
      </trkpt>
      <trkpt lat="43.654679" lon="10.631313">
        <ele>14.183671</ele>
        <time>2026-05-06T00:09:33.546Z</time>
      </trkpt>
      <trkpt lat="43.654628" lon="10.631289">
        <ele>14.157691</ele>
        <time>2026-05-06T00:09:34.686Z</time>
      </trkpt>
      <trkpt lat="43.654604" lon="10.631274">
        <ele>14.144989</ele>
        <time>2026-05-06T00:09:35.262Z</time>
      </trkpt>
      <trkpt lat="43.654572" lon="10.631244">
        <ele>14.126342</ele>
        <time>2026-05-06T00:09:36.076Z</time>
      </trkpt>
      <trkpt lat="43.654458" lon="10.630914">
        <ele>14.096111</ele>
        <time>2026-05-06T00:09:41.835Z</time>
      </trkpt>
      <trkpt lat="43.654420" lon="10.630655">
        <ele>14.091567</ele>
        <time>2026-05-06T00:09:46.170Z</time>
      </trkpt>
      <trkpt lat="43.654378" lon="10.630586">
        <ele>14.090016</ele>
        <time>2026-05-06T00:09:47.718Z</time>
      </trkpt>
      <trkpt lat="43.654282" lon="10.630551">
        <ele>14.087656</ele>
        <time>2026-05-06T00:09:50.081Z</time>
      </trkpt>
      <trkpt lat="43.654148" lon="10.630589">
        <ele>14.084405</ele>
        <time>2026-05-06T00:09:53.407Z</time>
      </trkpt>
      <trkpt lat="43.654021" lon="10.630938">
        <ele>14.077687</ele>
        <time>2026-05-06T00:10:00.406Z</time>
      </trkpt>
      <trkpt lat="43.653922" lon="10.630981">
        <ele>14.075220</ele>
        <time>2026-05-06T00:10:02.912Z</time>
      </trkpt>
      <trkpt lat="43.653799" lon="10.630947">
        <ele>14.072239</ele>
        <time>2026-05-06T00:10:05.925Z</time>
      </trkpt>
      <trkpt lat="43.653709" lon="10.630922">
        <ele>14.070057</ele>
        <time>2026-05-06T00:10:08.128Z</time>
      </trkpt>
      <trkpt lat="43.653700" lon="10.630992">
        <ele>14.068835</ele>
        <time>2026-05-06T00:10:09.330Z</time>
      </trkpt>
      <trkpt lat="43.653512" lon="10.630951">
        <ele>14.064311</ele>
        <time>2026-05-06T00:10:13.798Z</time>
      </trkpt>
      <trkpt lat="43.653334" lon="10.630911">
        <ele>14.060025</ele>
        <time>2026-05-06T00:10:18.031Z</time>
      </trkpt>
      <trkpt lat="43.653512" lon="10.630951">
        <ele>14.066326</ele>
        <time>2026-05-06T00:10:22.123Z</time>
      </trkpt>
      <trkpt lat="43.653700" lon="10.630992">
        <ele>14.079740</ele>
        <time>2026-05-06T00:10:26.473Z</time>
      </trkpt>
      <trkpt lat="43.653709" lon="10.630922">
        <ele>14.083366</ele>
        <time>2026-05-06T00:10:27.627Z</time>
      </trkpt>
      <trkpt lat="43.653799" lon="10.630947">
        <ele>14.089836</ele>
        <time>2026-05-06T00:10:29.716Z</time>
      </trkpt>
      <trkpt lat="43.653922" lon="10.630981">
        <ele>14.098677</ele>
        <time>2026-05-06T00:10:32.517Z</time>
      </trkpt>
      <trkpt lat="43.654021" lon="10.630938">
        <ele>14.105992</ele>
        <time>2026-05-06T00:10:34.844Z</time>
      </trkpt>
      <trkpt lat="43.654148" lon="10.630589">
        <ele>14.125913</ele>
        <time>2026-05-06T00:10:41.065Z</time>
      </trkpt>
      <trkpt lat="43.654282" lon="10.630551">
        <ele>14.135555</ele>
        <time>2026-05-06T00:10:44.110Z</time>
      </trkpt>
      <trkpt lat="43.654378" lon="10.630586">
        <ele>14.142553</ele>
        <time>2026-05-06T00:10:46.342Z</time>
      </trkpt>
      <trkpt lat="43.654420" lon="10.630655">
        <ele>14.147151</ele>
        <time>2026-05-06T00:10:47.824Z</time>
      </trkpt>
      <trkpt lat="43.654458" lon="10.630914">
        <ele>14.160628</ele>
        <time>2026-05-06T00:10:52.301Z</time>
      </trkpt>
      <trkpt lat="43.654572" lon="10.631244">
        <ele>14.179276</ele>
        <time>2026-05-06T00:10:59.046Z</time>
      </trkpt>
      <trkpt lat="43.654604" lon="10.631274">
        <ele>14.182001</ele>
        <time>2026-05-06T00:11:00.039Z</time>
      </trkpt>
      <trkpt lat="43.654628" lon="10.631289">
        <ele>14.183858</ele>
        <time>2026-05-06T00:11:00.741Z</time>
      </trkpt>
      <trkpt lat="43.654679" lon="10.631313">
        <ele>14.185182</ele>
        <time>2026-05-06T00:11:02.194Z</time>
      </trkpt>
      <trkpt lat="43.654984" lon="10.631432">
        <ele>14.185182</ele>
        <time>2026-05-06T00:11:11.009Z</time>
      </trkpt>
      <trkpt lat="43.655125" lon="10.631413">
        <ele>14.185182</ele>
        <time>2026-05-06T00:11:15.069Z</time>
      </trkpt>
      <trkpt lat="43.655438" lon="10.631528">
        <ele>14.185182</ele>
        <time>2026-05-06T00:11:24.332Z</time>
      </trkpt>
      <trkpt lat="43.655590" lon="10.631469">
        <ele>14.185182</ele>
        <time>2026-05-06T00:11:28.795Z</time>
      </trkpt>
      <trkpt lat="43.655659" lon="10.631488">
        <ele>14.185182</ele>
        <time>2026-05-06T00:11:30.747Z</time>
      </trkpt>
      <trkpt lat="43.655747" lon="10.631021">
        <ele>14.185182</ele>
        <time>2026-05-06T00:11:40.387Z</time>
      </trkpt>
      <trkpt lat="43.655783" lon="10.630798">
        <ele>14.185182</ele>
        <time>2026-05-06T00:11:44.779Z</time>
      </trkpt>
      <trkpt lat="43.655865" lon="10.630705">
        <ele>14.185182</ele>
        <time>2026-05-06T00:11:48.280Z</time>
      </trkpt>
      <trkpt lat="43.655891" lon="10.630522">
        <ele>14.185182</ele>
        <time>2026-05-06T00:11:52.732Z</time>
      </trkpt>
    </trkseg>
  </trk>
</gpx>